Time,TemperatureF,DewpointF,PressureIn,WindDirection,WindDirectionDegrees,WindSpeedMPH,WindSpeedGustMPH,Humidity,HourlyPrecipIn,Conditions,Clouds,dailyrainin,SoftwareType,DateUTC
2013-01-04 00:00:00,29.6,20.7,30.06,SW,236,4.0,11.0,69,0.00,,,0.00,VWS V14.01,2013-01-04 05:00:00,
2013-01-04 00:01:00,29.6,20.7,30.06,SW,236,0.0,3.0,69,0.00,,,0.00,VWS V14.01,2013-01-04 05:01:00,
2013-01-04 00:02:00,29.6,21.0,30.06,West,281,5.0,6.0,70,0.00,,,0.00,VWS V14.01,2013-01-04 05:02:00,
2013-01-04 00:03:00,29.6,21.0,30.06,West,273,2.0,6.0,70,0.00,,,0.00,VWS V14.01,2013-01-04 05:03:00,
2013-01-04 00:04:00,29.5,20.9,30.06,West,273,2.0,10.0,70,0.00,,,0.00,VWS V14.01,2013-01-04 05:04:00,
2013-01-04 00:05:00,29.5,20.9,30.06,SW,220,5.0,10.0,70,0.00,,,0.00,VWS V14.01,2013-01-04 05:05:00,
2013-01-04 00:06:00,29.5,20.9,30.06,SW,232,5.0,10.0,70,0.00,,,0.00,VWS V14.01,2013-01-04 05:06:00,
2013-01-04 00:07:00,29.5,20.9,30.06,West,265,2.0,10.0,70,0.00,,,0.00,VWS V14.01,2013-01-04 05:07:00,
2013-01-04 00:08:00,29.4,20.8,30.06,SW,226,0.0,10.0,70,0.00,,,0.00,VWS V14.01,2013-01-04 05:08:00,
2013-01-04 00:09:00,29.4,20.8,30.06,West,278,1.0,10.0,70,0.00,,,0.00,VWS V14.01,2013-01-04 05:09:00,
2013-01-04 00:10:00,29.4,20.8,30.06,West,268,1.0,10.0,70,0.00,,,0.00,VWS V14.01,2013-01-04 05:10:00,
2013-01-04 00:11:00,29.4,20.8,30.06,West,266,6.0,6.0,70,0.00,,,0.00,VWS V14.01,2013-01-04 05:11:00,
2013-01-04 00:12:00,29.4,20.8,30.06,NW,311,5.0,6.0,70,0.00,,,0.00,VWS V14.01,2013-01-04 05:12:00,
2013-01-04 00:13:00,29.3,20.7,30.06,WSW,250,2.0,6.0,70,0.00,,,0.00,VWS V14.01,2013-01-04 05:13:00,
2013-01-04 00:14:00,29.3,20.7,30.06,West,281,4.0,6.0,70,0.00,,,0.00,VWS V14.01,2013-01-04 05:14:00,
2013-01-04 00:15:00,29.3,20.7,30.05,WNW,286,1.0,6.0,70,0.00,,,0.00,VWS V14.01,2013-01-04 05:15:00,
2013-01-04 00:16:00,29.3,20.7,30.05,WNW,286,0.0,6.0,70,0.00,,,0.00,VWS V14.01,2013-01-04 05:16:00,
2013-01-04 00:17:00,29.2,20.6,30.05,West,264,3.0,6.0,70,0.00,,,0.00,VWS V14.01,2013-01-04 05:17:00,
2013-01-04 00:18:00,29.2,20.6,30.05,WSW,242,0.0,6.0,70,0.00,,,0.00,VWS V14.01,2013-01-04 05:18:00,
2013-01-04 00:19:00,29.2,20.6,30.05,WSW,252,1.0,6.0,70,0.00,,,0.00,VWS V14.01,2013-01-04 05:19:00,
2013-01-04 00:20:00,29.1,20.9,30.05,WSW,255,5.0,6.0,71,0.00,,,0.00,VWS V14.01,2013-01-04 05:20:00,
2013-01-04 00:21:00,29.1,20.9,30.05,West,259,5.0,5.0,71,0.00,,,0.00,VWS V14.01,2013-01-04 05:21:00,
2013-01-04 00:22:00,29.1,20.9,30.05,WSW,242,3.0,5.0,71,0.00,,,0.00,VWS V14.01,2013-01-04 05:22:00,
2013-01-04 00:23:00,29.1,20.9,30.05,WSW,242,3.0,5.0,71,0.00,,,0.00,VWS V14.01,2013-01-04 05:23:00,
2013-01-04 00:24:00,29.0,20.8,30.05,West,277,0.0,5.0,71,0.00,,,0.00,VWS V14.01,2013-01-04 05:24:00,
2013-01-04 00:25:00,29.0,20.8,30.05,WNW,296,3.0,5.0,71,0.00,,,0.00,VWS V14.01,2013-01-04 05:25:00,
2013-01-04 00:26:00,29.0,20.8,30.05,WNW,295,0.0,5.0,71,0.00,,,0.00,VWS V14.01,2013-01-04 05:26:00,
2013-01-04 00:27:00,29.0,20.8,30.05,West,276,2.0,5.0,71,0.00,,,0.00,VWS V14.01,2013-01-04 05:27:00,
2013-01-04 00:28:00,29.0,20.8,30.05,West,276,2.0,5.0,71,0.00,,,0.00,VWS V14.01,2013-01-04 05:28:00,
2013-01-04 00:29:00,28.9,20.7,30.05,WNW,288,3.0,8.0,71,0.00,,,0.00,VWS V14.01,2013-01-04 05:29:00,
2013-01-04 00:30:00,28.9,20.7,30.05,West,261,6.0,8.0,71,0.00,,,0.00,VWS V14.01,2013-01-04 05:30:00,
2013-01-04 00:31:00,28.9,20.7,30.05,WSW,253,0.0,6.0,71,0.00,,,0.00,VWS V14.01,2013-01-04 05:31:00,
2013-01-04 00:32:00,28.9,20.7,30.05,WSW,253,1.0,6.0,71,0.00,,,0.00,VWS V14.01,2013-01-04 05:32:00,
2013-01-04 00:33:00,28.9,20.7,30.05,WSW,248,3.0,6.0,71,0.00,,,0.00,VWS V14.01,2013-01-04 05:33:00,
2013-01-04 00:34:00,28.9,20.7,30.05,West,267,5.0,6.0,71,0.00,,,0.00,VWS V14.01,2013-01-04 05:34:00,
2013-01-04 00:35:00,28.8,20.6,30.05,West,278,7.0,7.0,71,0.00,,,0.00,VWS V14.01,2013-01-04 05:35:00,
2013-01-04 00:36:00,28.8,20.6,30.05,West,277,1.0,7.0,71,0.00,,,0.00,VWS V14.01,2013-01-04 05:36:00,
2013-01-04 00:37:00,28.8,20.6,30.05,West,277,0.0,7.0,71,0.00,,,0.00,VWS V14.01,2013-01-04 05:37:00,
2013-01-04 00:38:00,28.8,20.6,30.05,West,266,2.0,7.0,71,0.00,,,0.00,VWS V14.01,2013-01-04 05:38:00,
2013-01-04 00:39:00,28.7,20.8,30.05,West,266,5.0,7.0,72,0.00,,,0.00,VWS V14.01,2013-01-04 05:39:00,
2013-01-04 00:40:00,28.7,20.8,30.05,WSW,250,4.0,7.0,72,0.00,,,0.00,VWS V14.01,2013-01-04 05:40:00,
2013-01-04 00:41:00,28.7,20.8,30.05,West,264,3.0,5.0,72,0.00,,,0.00,VWS V14.01,2013-01-04 05:41:00,
2013-01-04 00:42:00,28.7,20.8,30.05,West,264,0.0,5.0,72,0.00,,,0.00,VWS V14.01,2013-01-04 05:42:00,
2013-01-04 00:43:00,28.7,20.8,30.05,West,278,2.0,5.0,72,0.00,,,0.00,VWS V14.01,2013-01-04 05:43:00,
2013-01-04 00:44:00,28.7,20.8,30.05,West,267,2.0,5.0,72,0.00,,,0.00,VWS V14.01,2013-01-04 05:44:00,
2013-01-04 00:45:00,28.6,20.7,30.05,West,275,6.0,6.0,72,0.00,,,0.00,VWS V14.01,2013-01-04 05:45:00,
2013-01-04 00:46:00,28.6,20.7,30.05,West,269,7.0,8.0,72,0.00,,,0.00,VWS V14.01,2013-01-04 05:46:00,
2013-01-04 00:47:00,28.6,20.7,30.05,West,274,7.0,8.0,72,0.00,,,0.00,VWS V14.01,2013-01-04 05:47:00,
2013-01-04 00:48:00,28.6,20.7,30.05,WSW,254,3.0,8.0,72,0.00,,,0.00,VWS V14.01,2013-01-04 05:48:00,
2013-01-04 00:49:00,28.6,20.7,30.05,SW,236,5.0,8.0,72,0.00,,,0.00,VWS V14.01,2013-01-04 05:49:00,
2013-01-04 00:50:00,28.6,20.7,30.05,WSW,238,6.0,8.0,72,0.00,,,0.00,VWS V14.01,2013-01-04 05:50:00,
2013-01-04 00:51:00,28.6,20.7,30.05,West,259,2.0,9.0,72,0.00,,,0.00,VWS V14.01,2013-01-04 05:51:00,
2013-01-04 00:52:00,28.6,20.7,30.05,WNW,286,1.0,9.0,72,0.00,,,0.00,VWS V14.01,2013-01-04 05:52:00,
2013-01-04 00:53:00,28.6,20.7,30.05,West,261,6.0,9.0,72,0.00,,,0.00,VWS V14.01,2013-01-04 05:53:00,
2013-01-04 00:54:00,28.6,20.7,30.05,West,269,4.0,9.0,72,0.00,,,0.00,VWS V14.01,2013-01-04 05:54:00,
2013-01-04 00:55:00,28.6,20.7,30.05,West,263,4.0,9.0,72,0.00,,,0.00,VWS V14.01,2013-01-04 05:55:00,
2013-01-04 00:56:00,28.6,20.7,30.05,West,263,1.0,9.0,72,0.00,,,0.00,VWS V14.01,2013-01-04 05:56:00,
2013-01-04 00:57:00,28.6,20.7,30.05,West,281,5.0,9.0,72,0.00,,,0.00,VWS V14.01,2013-01-04 05:57:00,
2013-01-04 00:58:00,28.6,20.7,30.05,West,281,5.0,9.0,72,0.00,,,0.00,VWS V14.01,2013-01-04 05:58:00,
2013-01-04 00:59:00,28.5,20.6,30.05,WSW,255,0.0,9.0,72,0.00,,,0.00,VWS V14.01,2013-01-04 05:59:00,
2013-01-04 01:00:00,28.5,20.6,30.05,WNW,284,4.0,9.0,72,0.00,,,0.00,VWS V14.01,2013-01-04 06:00:00,
2013-01-04 01:01:00,28.5,20.6,30.05,WSW,244,1.0,7.0,72,0.00,,,0.00,VWS V14.01,2013-01-04 06:01:00,
2013-01-04 01:02:00,28.5,20.6,30.05,WSW,245,5.0,7.0,72,0.00,,,0.00,VWS V14.01,2013-01-04 06:02:00,
2013-01-04 01:03:00,28.5,20.6,30.05,WSW,245,5.0,7.0,72,0.00,,,0.00,VWS V14.01,2013-01-04 06:03:00,
2013-01-04 01:04:00,28.5,21.0,30.05,WNW,286,5.0,7.0,73,0.00,,,0.00,VWS V14.01,2013-01-04 06:04:00,
2013-01-04 01:05:00,28.5,21.0,30.05,West,265,2.0,7.0,73,0.00,,,0.00,VWS V14.01,2013-01-04 06:05:00,
2013-01-04 01:06:00,28.5,21.0,30.05,West,270,2.0,7.0,73,0.00,,,0.00,VWS V14.01,2013-01-04 06:06:00,
2013-01-04 01:07:00,28.5,21.0,30.05,West,265,1.0,7.0,73,0.00,,,0.00,VWS V14.01,2013-01-04 06:07:00,
2013-01-04 01:08:00,28.5,21.0,30.05,West,278,2.0,7.0,73,0.00,,,0.00,VWS V14.01,2013-01-04 06:08:00,
2013-01-04 01:09:00,28.4,20.9,30.05,West,276,2.0,7.0,73,0.00,,,0.00,VWS V14.01,2013-01-04 06:09:00,
2013-01-04 01:10:00,28.5,21.0,30.05,WNW,301,2.0,7.0,73,0.00,,,0.00,VWS V14.01,2013-01-04 06:10:00,
2013-01-04 01:11:00,28.5,21.0,30.05,WSW,242,2.0,7.0,73,0.00,,,0.00,VWS V14.01,2013-01-04 06:11:00,
2013-01-04 01:12:00,28.5,21.0,30.05,WSW,242,0.0,7.0,73,0.00,,,0.00,VWS V14.01,2013-01-04 06:12:00,
2013-01-04 01:13:00,28.4,20.9,30.05,WSW,244,1.0,7.0,73,0.00,,,0.00,VWS V14.01,2013-01-04 06:13:00,
2013-01-04 01:14:00,28.4,20.9,30.05,WSW,244,1.0,7.0,73,0.00,,,0.00,VWS V14.01,2013-01-04 06:14:00,
2013-01-04 01:15:00,28.4,20.9,30.04,WSW,252,1.0,7.0,73,0.00,,,0.00,VWS V14.01,2013-01-04 06:15:00,
2013-01-04 01:16:00,28.4,20.9,30.04,West,263,4.0,7.0,73,0.00,,,0.00,VWS V14.01,2013-01-04 06:16:00,
2013-01-04 01:17:00,28.4,20.9,30.04,West,270,1.0,7.0,73,0.00,,,0.00,VWS V14.01,2013-01-04 06:17:00,
2013-01-04 01:18:00,28.4,20.9,30.04,WSW,254,2.0,7.0,73,0.00,,,0.00,VWS V14.01,2013-01-04 06:18:00,
2013-01-04 01:19:00,28.4,20.9,30.04,West,271,4.0,7.0,73,0.00,,,0.00,VWS V14.01,2013-01-04 06:19:00,
2013-01-04 01:20:00,28.3,20.8,30.04,West,272,0.0,7.0,73,0.00,,,0.00,VWS V14.01,2013-01-04 06:20:00,
2013-01-04 01:21:00,28.3,20.8,30.04,West,264,5.0,5.0,73,0.00,,,0.00,VWS V14.01,2013-01-04 06:21:00,
2013-01-04 01:22:00,28.3,20.8,30.04,West,266,4.0,5.0,73,0.00,,,0.00,VWS V14.01,2013-01-04 06:22:00,
2013-01-04 01:23:00,28.3,20.8,30.04,West,265,4.0,6.0,73,0.00,,,0.00,VWS V14.01,2013-01-04 06:23:00,
2013-01-04 01:24:00,28.3,20.8,30.04,WSW,254,4.0,6.0,73,0.00,,,0.00,VWS V14.01,2013-01-04 06:24:00,
2013-01-04 01:25:00,28.2,20.7,30.04,West,276,4.0,6.0,73,0.00,,,0.00,VWS V14.01,2013-01-04 06:25:00,
2013-01-04 01:26:00,28.2,20.7,30.04,West,263,2.0,6.0,73,0.00,,,0.00,VWS V14.01,2013-01-04 06:26:00,
2013-01-04 01:27:00,28.3,20.8,30.04,SW,215,4.0,6.0,73,0.00,,,0.00,VWS V14.01,2013-01-04 06:27:00,
2013-01-04 01:28:00,28.2,20.7,30.04,WSW,255,3.0,6.0,73,0.00,,,0.00,VWS V14.01,2013-01-04 06:28:00,
2013-01-04 01:29:00,28.2,20.7,30.04,West,267,2.0,6.0,73,0.00,,,0.00,VWS V14.01,2013-01-04 06:29:00,
2013-01-04 01:30:00,28.2,21.0,30.04,West,271,4.0,8.0,74,0.00,,,0.00,VWS V14.01,2013-01-04 06:30:00,
2013-01-04 01:31:00,28.3,21.1,30.04,WSW,247,2.0,3.0,74,0.00,,,0.00,VWS V14.01,2013-01-04 06:31:00,
2013-01-04 01:32:00,28.2,21.0,30.04,WSW,247,1.0,3.0,74,0.00,,,0.00,VWS V14.01,2013-01-04 06:32:00,
2013-01-04 01:33:00,28.2,21.0,30.04,WSW,258,1.0,3.0,74,0.00,,,0.00,VWS V14.01,2013-01-04 06:33:00,
2013-01-04 01:34:00,28.2,21.0,30.04,West,273,1.0,3.0,74,0.00,,,0.00,VWS V14.01,2013-01-04 06:34:00,
2013-01-04 01:35:00,28.2,21.0,30.04,West,272,1.0,4.0,74,0.00,,,0.00,VWS V14.01,2013-01-04 06:35:00,
2013-01-04 01:36:00,28.2,21.0,30.04,WNW,290,2.0,5.0,74,0.00,,,0.00,VWS V14.01,2013-01-04 06:36:00,
2013-01-04 01:37:00,28.2,21.0,30.04,West,271,1.0,5.0,74,0.00,,,0.00,VWS V14.01,2013-01-04 06:37:00,
2013-01-04 01:38:00,28.2,21.0,30.04,West,271,1.0,5.0,74,0.00,,,0.00,VWS V14.01,2013-01-04 06:38:00,
2013-01-04 01:39:00,28.2,21.0,30.04,West,264,4.0,5.0,74,0.00,,,0.00,VWS V14.01,2013-01-04 06:39:00,
2013-01-04 01:40:00,28.1,20.9,30.04,West,265,1.0,5.0,74,0.00,,,0.00,VWS V14.01,2013-01-04 06:40:00,
2013-01-04 01:41:00,28.2,21.0,30.04,WNW,288,3.0,6.0,74,0.00,,,0.00,VWS V14.01,2013-01-04 06:41:00,
2013-01-04 01:42:00,28.1,20.9,30.04,WNW,288,2.0,6.0,74,0.00,,,0.00,VWS V14.01,2013-01-04 06:42:00,
2013-01-04 01:43:00,28.1,20.9,30.04,WNW,288,2.0,6.0,74,0.00,,,0.00,VWS V14.01,2013-01-04 06:43:00,
2013-01-04 01:44:00,28.2,21.0,30.04,WSW,257,1.0,6.0,74,0.00,,,0.00,VWS V14.01,2013-01-04 06:44:00,
2013-01-04 01:45:00,28.1,20.9,30.05,WSW,247,2.0,6.0,74,0.00,,,0.00,VWS V14.01,2013-01-04 06:45:00,
2013-01-04 01:46:00,28.2,21.0,30.05,West,261,0.0,6.0,74,0.00,,,0.00,VWS V14.01,2013-01-04 06:46:00,
2013-01-04 01:47:00,28.2,21.0,30.05,SSW,207,5.0,6.0,74,0.00,,,0.00,VWS V14.01,2013-01-04 06:47:00,
2013-01-04 01:48:00,28.2,21.0,30.05,WSW,254,3.0,6.0,74,0.00,,,0.00,VWS V14.01,2013-01-04 06:48:00,
2013-01-04 01:49:00,28.1,20.9,30.05,West,269,3.0,6.0,74,0.00,,,0.00,VWS V14.01,2013-01-04 06:49:00,
2013-01-04 01:50:00,28.2,21.0,30.05,WSW,250,2.0,6.0,74,0.00,,,0.00,VWS V14.01,2013-01-04 06:50:00,
2013-01-04 01:51:00,28.2,21.0,30.05,WSW,243,1.0,5.0,74,0.00,,,0.00,VWS V14.01,2013-01-04 06:51:00,
2013-01-04 01:52:00,28.2,21.0,30.05,WSW,257,5.0,5.0,74,0.00,,,0.00,VWS V14.01,2013-01-04 06:52:00,
2013-01-04 01:53:00,28.2,21.0,30.05,WSW,253,5.0,8.0,74,0.00,,,0.00,VWS V14.01,2013-01-04 06:53:00,
2013-01-04 01:54:00,28.2,21.0,30.05,WSW,247,2.0,8.0,74,0.00,,,0.00,VWS V14.01,2013-01-04 06:54:00,
2013-01-04 01:55:00,28.2,21.0,30.05,WSW,252,4.0,8.0,74,0.00,,,0.00,VWS V14.01,2013-01-04 06:55:00,
2013-01-04 01:56:00,28.3,21.1,30.05,West,265,5.0,8.0,74,0.00,,,0.00,VWS V14.01,2013-01-04 06:56:00,
2013-01-04 01:57:00,28.3,21.1,30.05,West,265,5.0,8.0,74,0.00,,,0.00,VWS V14.01,2013-01-04 06:57:00,
2013-01-04 01:58:00,28.3,21.1,30.05,WSW,242,4.0,8.0,74,0.00,,,0.00,VWS V14.01,2013-01-04 06:58:00,
2013-01-04 01:59:00,28.3,21.1,30.05,WSW,249,3.0,8.0,74,0.00,,,0.00,VWS V14.01,2013-01-04 06:59:00,
2013-01-04 02:00:00,28.3,21.1,30.05,West,281,2.0,8.0,74,0.00,,,0.00,VWS V14.01,2013-01-04 07:00:00,
2013-01-04 02:01:00,28.4,21.2,30.05,WSW,250,7.0,7.0,74,0.00,,,0.00,VWS V14.01,2013-01-04 07:01:00,
2013-01-04 02:02:00,28.4,21.2,30.05,WSW,245,6.0,7.0,74,0.00,,,0.00,VWS V14.01,2013-01-04 07:02:00,
2013-01-04 02:03:00,28.4,21.2,30.05,WSW,249,3.0,7.0,74,0.00,,,0.00,VWS V14.01,2013-01-04 07:03:00,
2013-01-04 02:04:00,28.4,21.2,30.05,West,267,6.0,7.0,74,0.00,,,0.00,VWS V14.01,2013-01-04 07:04:00,
2013-01-04 02:05:00,28.4,21.2,30.05,WSW,250,5.0,7.0,74,0.00,,,0.00,VWS V14.01,2013-01-04 07:05:00,
2013-01-04 02:06:00,28.5,21.3,30.05,WNW,285,6.0,8.0,74,0.00,,,0.00,VWS V14.01,2013-01-04 07:06:00,
2013-01-04 02:07:00,28.5,21.3,30.05,WSW,242,7.0,8.0,74,0.00,,,0.00,VWS V14.01,2013-01-04 07:07:00,
2013-01-04 02:08:00,28.5,21.3,30.05,West,269,6.0,8.0,74,0.00,,,0.00,VWS V14.01,2013-01-04 07:08:00,
2013-01-04 02:09:00,28.5,21.3,30.05,WSW,244,4.0,8.0,74,0.00,,,0.00,VWS V14.01,2013-01-04 07:09:00,
2013-01-04 02:10:00,28.6,21.4,30.05,WSW,238,6.0,8.0,74,0.00,,,0.00,VWS V14.01,2013-01-04 07:10:00,
2013-01-04 02:11:00,28.6,21.4,30.05,WSW,254,3.0,9.0,74,0.00,,,0.00,VWS V14.01,2013-01-04 07:11:00,
2013-01-04 02:12:00,28.7,21.5,30.05,WSW,254,0.0,9.0,74,0.00,,,0.00,VWS V14.01,2013-01-04 07:12:00,
2013-01-04 02:13:00,28.7,21.5,30.05,WSW,254,0.0,9.0,74,0.00,,,0.00,VWS V14.01,2013-01-04 07:13:00,
2013-01-04 02:14:00,28.7,21.5,30.05,WSW,242,0.0,9.0,74,0.00,,,0.00,VWS V14.01,2013-01-04 07:14:00,
2013-01-04 02:15:00,28.7,21.5,30.06,SW,230,2.0,9.0,74,0.00,,,0.00,VWS V14.01,2013-01-04 07:15:00,
2013-01-04 02:16:00,28.7,21.5,30.06,SW,230,1.0,9.0,74,0.00,,,0.00,VWS V14.01,2013-01-04 07:16:00,
2013-01-04 02:17:00,28.7,21.5,30.06,SW,230,2.0,9.0,74,0.00,,,0.00,VWS V14.01,2013-01-04 07:17:00,
2013-01-04 02:18:00,28.7,21.5,30.06,SW,230,2.0,9.0,74,0.00,,,0.00,VWS V14.01,2013-01-04 07:18:00,
2013-01-04 02:19:00,28.8,21.6,30.06,WSW,250,8.0,9.0,74,0.00,,,0.00,VWS V14.01,2013-01-04 07:19:00,
2013-01-04 02:20:00,28.7,21.5,30.06,West,276,1.0,9.0,74,0.00,,,0.00,VWS V14.01,2013-01-04 07:20:00,
2013-01-04 02:21:00,28.8,21.6,30.06,West,267,1.0,4.0,74,0.00,,,0.00,VWS V14.01,2013-01-04 07:21:00,
2013-01-04 02:22:00,28.8,21.6,30.06,West,267,0.0,4.0,74,0.00,,,0.00,VWS V14.01,2013-01-04 07:22:00,
2013-01-04 02:23:00,28.8,21.6,30.06,West,267,0.0,4.0,74,0.00,,,0.00,VWS V14.01,2013-01-04 07:23:00,
2013-01-04 02:24:00,28.8,21.6,30.06,West,262,5.0,6.0,74,0.00,,,0.00,VWS V14.01,2013-01-04 07:24:00,
2013-01-04 02:25:00,28.8,21.6,30.06,WSW,244,8.0,8.0,74,0.00,,,0.00,VWS V14.01,2013-01-04 07:25:00,
2013-01-04 02:26:00,28.8,21.6,30.06,West,280,1.0,8.0,74,0.00,,,0.00,VWS V14.01,2013-01-04 07:26:00,
2013-01-04 02:27:00,28.8,21.6,30.06,WNW,289,3.0,8.0,74,0.00,,,0.00,VWS V14.01,2013-01-04 07:27:00,
2013-01-04 02:28:00,28.8,21.6,30.06,WSW,253,4.0,8.0,74,0.00,,,0.00,VWS V14.01,2013-01-04 07:28:00,
2013-01-04 02:29:00,28.8,21.6,30.06,West,261,5.0,8.0,74,0.00,,,0.00,VWS V14.01,2013-01-04 07:29:00,
2013-01-04 02:30:00,28.8,21.6,30.06,WSW,252,5.0,8.0,74,0.00,,,0.00,VWS V14.01,2013-01-04 07:30:00,
2013-01-04 02:31:00,28.8,21.6,30.06,WNW,285,4.0,6.0,74,0.00,,,0.00,VWS V14.01,2013-01-04 07:31:00,
2013-01-04 02:32:00,28.8,21.6,30.06,WNW,284,3.0,6.0,74,0.00,,,0.00,VWS V14.01,2013-01-04 07:32:00,
2013-01-04 02:33:00,28.8,21.6,30.06,WNW,284,3.0,6.0,74,0.00,,,0.00,VWS V14.01,2013-01-04 07:33:00,
2013-01-04 02:34:00,28.8,21.6,30.06,WSW,247,5.0,7.0,74,0.00,,,0.00,VWS V14.01,2013-01-04 07:34:00,
2013-01-04 02:35:00,28.9,21.7,30.06,WSW,246,3.0,7.0,74,0.00,,,0.00,VWS V14.01,2013-01-04 07:35:00,
2013-01-04 02:36:00,28.9,21.7,30.06,WSW,237,5.0,9.0,74,0.00,,,0.00,VWS V14.01,2013-01-04 07:36:00,
2013-01-04 02:37:00,28.9,21.7,30.06,WSW,254,3.0,9.0,74,0.00,,,0.00,VWS V14.01,2013-01-04 07:37:00,
2013-01-04 02:38:00,28.9,21.7,30.06,West,266,1.0,9.0,74,0.00,,,0.00,VWS V14.01,2013-01-04 07:38:00,
2013-01-04 02:39:00,28.9,21.7,30.06,WSW,246,1.0,9.0,74,0.00,,,0.00,VWS V14.01,2013-01-04 07:39:00,
2013-01-04 02:40:00,28.9,21.7,30.06,WSW,251,7.0,9.0,74,0.00,,,0.00,VWS V14.01,2013-01-04 07:40:00,
2013-01-04 02:41:00,28.9,21.7,30.06,West,261,0.0,3.0,74,0.00,,,0.00,VWS V14.01,2013-01-04 07:41:00,
2013-01-04 02:42:00,28.9,21.7,30.06,West,261,0.0,3.0,74,0.00,,,0.00,VWS V14.01,2013-01-04 07:42:00,
2013-01-04 02:43:00,28.9,21.7,30.06,WSW,245,3.0,7.0,74,0.00,,,0.00,VWS V14.01,2013-01-04 07:43:00,
2013-01-04 02:44:00,28.9,21.7,30.06,SW,230,0.0,7.0,74,0.00,,,0.00,VWS V14.01,2013-01-04 07:44:00,
2013-01-04 02:45:00,28.9,21.7,30.06,WSW,240,1.0,7.0,74,0.00,,,0.00,VWS V14.01,2013-01-04 07:45:00,
2013-01-04 02:46:00,28.9,21.7,30.06,WSW,238,0.0,7.0,74,0.00,,,0.00,VWS V14.01,2013-01-04 07:46:00,
2013-01-04 02:47:00,28.9,21.7,30.06,WSW,238,1.0,7.0,74,0.00,,,0.00,VWS V14.01,2013-01-04 07:47:00,
2013-01-04 02:48:00,28.9,21.7,30.06,WSW,238,1.0,7.0,74,0.00,,,0.00,VWS V14.01,2013-01-04 07:48:00,
2013-01-04 02:49:00,29.0,21.8,30.06,WNW,290,1.0,7.0,74,0.00,,,0.00,VWS V14.01,2013-01-04 07:49:00,
2013-01-04 02:50:00,28.9,21.7,30.06,WNW,296,6.0,7.0,74,0.00,,,0.00,VWS V14.01,2013-01-04 07:50:00,
2013-01-04 02:51:00,29.0,21.8,30.06,SW,232,2.0,6.0,74,0.00,,,0.00,VWS V14.01,2013-01-04 07:51:00,
2013-01-04 02:52:00,28.9,22.0,30.06,SW,232,1.0,6.0,75,0.00,,,0.00,VWS V14.01,2013-01-04 07:52:00,
2013-01-04 02:53:00,28.9,22.0,30.06,SW,232,1.0,6.0,75,0.00,,,0.00,VWS V14.01,2013-01-04 07:53:00,
2013-01-04 02:54:00,29.0,22.1,30.06,WSW,256,4.0,6.0,75,0.00,,,0.00,VWS V14.01,2013-01-04 07:54:00,
2013-01-04 02:55:00,29.0,22.1,30.06,WNW,303,0.0,6.0,75,0.00,,,0.00,VWS V14.01,2013-01-04 07:55:00,
2013-01-04 02:56:00,29.0,22.1,30.06,WSW,246,11.0,11.0,75,0.00,,,0.00,VWS V14.01,2013-01-04 07:56:00,
2013-01-04 02:57:00,29.0,22.1,30.06,WSW,246,11.0,11.0,75,0.00,,,0.00,VWS V14.01,2013-01-04 07:57:00,
2013-01-04 02:58:00,29.0,22.1,30.06,WSW,246,11.0,11.0,75,0.00,,,0.00,VWS V14.01,2013-01-04 07:58:00,
2013-01-04 02:59:00,29.0,22.1,30.06,West,259,0.0,11.0,75,0.00,,,0.00,VWS V14.01,2013-01-04 07:59:00,
2013-01-04 03:00:00,29.0,22.1,30.06,WNW,282,0.0,11.0,75,0.00,,,0.00,VWS V14.01,2013-01-04 08:00:00,
2013-01-04 03:01:00,29.0,22.1,30.06,West,271,1.0,5.0,75,0.00,,,0.00,VWS V14.01,2013-01-04 08:01:00,
2013-01-04 03:02:00,29.0,22.1,30.06,West,275,3.0,5.0,75,0.00,,,0.00,VWS V14.01,2013-01-04 08:02:00,
2013-01-04 03:03:00,29.0,22.1,30.06,West,259,3.0,6.0,75,0.00,,,0.00,VWS V14.01,2013-01-04 08:03:00,
2013-01-04 03:04:00,29.0,22.1,30.06,West,271,3.0,6.0,75,0.00,,,0.00,VWS V14.01,2013-01-04 08:04:00,
2013-01-04 03:05:00,29.0,22.1,30.06,WSW,252,7.0,7.0,75,0.00,,,0.00,VWS V14.01,2013-01-04 08:05:00,
2013-01-04 03:06:00,29.1,22.2,30.06,WSW,240,4.0,7.0,75,0.00,,,0.00,VWS V14.01,2013-01-04 08:06:00,
2013-01-04 03:07:00,29.0,22.1,30.06,West,269,4.0,7.0,75,0.00,,,0.00,VWS V14.01,2013-01-04 08:07:00,
2013-01-04 03:08:00,29.1,22.2,30.06,WSW,241,4.0,7.0,75,0.00,,,0.00,VWS V14.01,2013-01-04 08:08:00,
2013-01-04 03:09:00,29.1,22.2,30.06,WSW,242,0.0,7.0,75,0.00,,,0.00,VWS V14.01,2013-01-04 08:09:00,
2013-01-04 03:10:00,29.1,22.2,30.06,West,265,5.0,7.0,75,0.00,,,0.00,VWS V14.01,2013-01-04 08:10:00,
2013-01-04 03:11:00,29.1,22.2,30.06,SSW,208,0.0,2.0,75,0.00,,,0.00,VWS V14.01,2013-01-04 08:11:00,
2013-01-04 03:12:00,29.1,22.2,30.06,SSW,209,1.0,2.0,75,0.00,,,0.00,VWS V14.01,2013-01-04 08:12:00,
2013-01-04 03:13:00,29.1,22.2,30.06,West,276,1.0,2.0,75,0.00,,,0.00,VWS V14.01,2013-01-04 08:13:00,
2013-01-04 03:14:00,29.1,22.2,30.06,WSW,248,4.0,5.0,75,0.00,,,0.00,VWS V14.01,2013-01-04 08:14:00,
2013-01-04 03:15:00,29.1,22.2,30.06,SW,233,8.0,9.0,75,0.00,,,0.00,VWS V14.01,2013-01-04 08:15:00,
2013-01-04 03:16:00,29.2,22.3,30.06,West,280,1.0,9.0,75,0.00,,,0.00,VWS V14.01,2013-01-04 08:16:00,
2013-01-04 03:17:00,29.2,22.3,30.06,West,281,0.0,9.0,75,0.00,,,0.00,VWS V14.01,2013-01-04 08:17:00,
2013-01-04 03:18:00,29.2,22.3,30.06,WSW,247,4.0,9.0,75,0.00,,,0.00,VWS V14.01,2013-01-04 08:18:00,
2013-01-04 03:19:00,29.2,22.3,30.06,WSW,252,2.0,9.0,75,0.00,,,0.00,VWS V14.01,2013-01-04 08:19:00,
2013-01-04 03:20:00,29.2,22.3,30.06,West,264,2.0,9.0,75,0.00,,,0.00,VWS V14.01,2013-01-04 08:20:00,
2013-01-04 03:21:00,29.2,22.3,30.06,West,263,4.0,8.0,75,0.00,,,0.00,VWS V14.01,2013-01-04 08:21:00,
2013-01-04 03:22:00,29.2,22.3,30.06,SW,230,0.0,8.0,75,0.00,,,0.00,VWS V14.01,2013-01-04 08:22:00,
2013-01-04 03:23:00,29.2,22.3,30.06,West,277,2.0,8.0,75,0.00,,,0.00,VWS V14.01,2013-01-04 08:23:00,
2013-01-04 03:24:00,29.3,22.4,30.06,WSW,246,0.0,9.0,75,0.00,,,0.00,VWS V14.01,2013-01-04 08:24:00,
2013-01-04 03:25:00,29.2,22.3,30.06,WSW,246,0.0,9.0,75,0.00,,,0.00,VWS V14.01,2013-01-04 08:25:00,
2013-01-04 03:26:00,29.2,22.3,30.06,WNW,285,5.0,9.0,75,0.00,,,0.00,VWS V14.01,2013-01-04 08:26:00,
2013-01-04 03:27:00,29.3,22.4,30.06,WSW,254,5.0,9.0,75,0.00,,,0.00,VWS V14.01,2013-01-04 08:27:00,
2013-01-04 03:28:00,29.3,22.4,30.06,WSW,254,5.0,9.0,75,0.00,,,0.00,VWS V14.01,2013-01-04 08:28:00,
2013-01-04 03:29:00,29.3,22.4,30.06,West,275,6.0,9.0,75,0.00,,,0.00,VWS V14.01,2013-01-04 08:29:00,
2013-01-04 03:30:00,29.3,22.4,30.06,West,277,4.0,9.0,75,0.00,,,0.00,VWS V14.01,2013-01-04 08:30:00,
2013-01-04 03:31:00,29.3,22.4,30.06,West,263,2.0,5.0,75,0.00,,,0.00,VWS V14.01,2013-01-04 08:31:00,
2013-01-04 03:32:00,29.3,22.4,30.06,West,263,3.0,5.0,75,0.00,,,0.00,VWS V14.01,2013-01-04 08:32:00,
2013-01-04 03:33:00,29.3,22.4,30.06,West,263,3.0,5.0,75,0.00,,,0.00,VWS V14.01,2013-01-04 08:33:00,
2013-01-04 03:34:00,29.3,22.7,30.06,NW,304,4.0,7.0,76,0.00,,,0.00,VWS V14.01,2013-01-04 08:34:00,
2013-01-04 03:35:00,29.4,22.8,30.06,West,273,2.0,7.0,76,0.00,,,0.00,VWS V14.01,2013-01-04 08:35:00,
2013-01-04 03:36:00,29.3,22.7,30.06,West,267,3.0,7.0,76,0.00,,,0.00,VWS V14.01,2013-01-04 08:36:00,
2013-01-04 03:37:00,29.3,22.7,30.06,West,266,2.0,7.0,76,0.00,,,0.00,VWS V14.01,2013-01-04 08:37:00,
2013-01-04 03:38:00,29.3,22.7,30.06,West,266,2.0,7.0,76,0.00,,,0.00,VWS V14.01,2013-01-04 08:38:00,
2013-01-04 03:39:00,29.3,22.7,30.06,West,260,1.0,7.0,76,0.00,,,0.00,VWS V14.01,2013-01-04 08:39:00,
2013-01-04 03:40:00,29.4,22.8,30.06,West,274,4.0,7.0,76,0.00,,,0.00,VWS V14.01,2013-01-04 08:40:00,
2013-01-04 03:41:00,29.4,22.8,30.06,WSW,257,7.0,7.0,76,0.00,,,0.00,VWS V14.01,2013-01-04 08:41:00,
2013-01-04 03:42:00,29.4,22.8,30.06,West,263,3.0,7.0,76,0.00,,,0.00,VWS V14.01,2013-01-04 08:42:00,
2013-01-04 03:43:00,29.4,22.8,30.06,West,272,2.0,7.0,76,0.00,,,0.00,VWS V14.01,2013-01-04 08:43:00,
2013-01-04 03:44:00,29.4,22.8,30.06,WSW,252,1.0,7.0,76,0.00,,,0.00,VWS V14.01,2013-01-04 08:44:00,
2013-01-04 03:45:00,29.4,22.8,30.06,West,262,4.0,7.0,76,0.00,,,0.00,VWS V14.01,2013-01-04 08:45:00,
2013-01-04 03:46:00,29.4,22.8,30.06,WNW,284,4.0,7.0,76,0.00,,,0.00,VWS V14.01,2013-01-04 08:46:00,
2013-01-04 03:47:00,29.4,22.8,30.06,WNW,285,2.0,7.0,76,0.00,,,0.00,VWS V14.01,2013-01-04 08:47:00,
2013-01-04 03:48:00,29.4,22.8,30.06,WSW,257,0.0,7.0,76,0.00,,,0.00,VWS V14.01,2013-01-04 08:48:00,
2013-01-04 03:49:00,29.4,22.8,30.06,WSW,256,0.0,7.0,76,0.00,,,0.00,VWS V14.01,2013-01-04 08:49:00,
2013-01-04 03:50:00,29.4,22.8,30.06,West,279,2.0,7.0,76,0.00,,,0.00,VWS V14.01,2013-01-04 08:50:00,
2013-01-04 03:51:00,29.4,22.8,30.06,WNW,286,7.0,7.0,76,0.00,,,0.00,VWS V14.01,2013-01-04 08:51:00,
2013-01-04 03:52:00,29.4,22.8,30.06,WNW,291,2.0,7.0,76,0.00,,,0.00,VWS V14.01,2013-01-04 08:52:00,
2013-01-04 03:53:00,29.5,22.9,30.06,WNW,300,1.0,7.0,76,0.00,,,0.00,VWS V14.01,2013-01-04 08:53:00,
2013-01-04 03:54:00,29.5,22.9,30.06,West,267,2.0,7.0,76,0.00,,,0.00,VWS V14.01,2013-01-04 08:54:00,
2013-01-04 03:55:00,29.5,22.9,30.06,West,278,3.0,7.0,76,0.00,,,0.00,VWS V14.01,2013-01-04 08:55:00,
2013-01-04 03:56:00,29.5,22.9,30.06,West,278,0.0,7.0,76,0.00,,,0.00,VWS V14.01,2013-01-04 08:56:00,
2013-01-04 03:57:00,29.5,22.9,30.06,SE,128,3.0,7.0,76,0.00,,,0.00,VWS V14.01,2013-01-04 08:57:00,
2013-01-04 03:58:00,29.5,22.9,30.06,WSW,256,2.0,7.0,76,0.00,,,0.00,VWS V14.01,2013-01-04 08:58:00,
2013-01-04 03:59:00,29.5,22.9,30.06,WSW,256,0.0,7.0,76,0.00,,,0.00,VWS V14.01,2013-01-04 08:59:00,
2013-01-04 04:00:00,29.5,22.9,30.05,WSW,255,1.0,7.0,76,0.00,,,0.00,VWS V14.01,2013-01-04 09:00:00,
2013-01-04 04:01:00,29.5,22.9,30.05,West,259,4.0,7.0,76,0.00,,,0.00,VWS V14.01,2013-01-04 09:01:00,
2013-01-04 04:02:00,29.5,22.9,30.05,West,259,2.0,7.0,76,0.00,,,0.00,VWS V14.01,2013-01-04 09:02:00,
2013-01-04 04:03:00,29.6,23.0,30.05,SW,228,3.0,7.0,76,0.00,,,0.00,VWS V14.01,2013-01-04 09:03:00,
2013-01-04 04:04:00,29.5,22.9,30.05,West,278,3.0,7.0,76,0.00,,,0.00,VWS V14.01,2013-01-04 09:04:00,
2013-01-04 04:05:00,29.6,23.0,30.05,West,267,1.0,7.0,76,0.00,,,0.00,VWS V14.01,2013-01-04 09:05:00,
2013-01-04 04:06:00,29.6,23.0,30.05,West,267,2.0,7.0,76,0.00,,,0.00,VWS V14.01,2013-01-04 09:06:00,
2013-01-04 04:07:00,29.5,22.9,30.05,West,262,4.0,7.0,76,0.00,,,0.00,VWS V14.01,2013-01-04 09:07:00,
2013-01-04 04:08:00,29.5,22.9,30.05,West,262,4.0,7.0,76,0.00,,,0.00,VWS V14.01,2013-01-04 09:08:00,
2013-01-04 04:09:00,29.6,23.0,30.05,West,264,4.0,7.0,76,0.00,,,0.00,VWS V14.01,2013-01-04 09:09:00,
2013-01-04 04:10:00,29.6,23.0,30.05,WSW,248,4.0,7.0,76,0.00,,,0.00,VWS V14.01,2013-01-04 09:10:00,
2013-01-04 04:11:00,29.6,23.0,30.05,West,275,0.0,3.0,76,0.00,,,0.00,VWS V14.01,2013-01-04 09:11:00,
2013-01-04 04:12:00,29.6,23.0,30.05,West,275,3.0,3.0,76,0.00,,,0.00,VWS V14.01,2013-01-04 09:12:00,
2013-01-04 04:13:00,29.6,23.0,30.05,West,275,3.0,3.0,76,0.00,,,0.00,VWS V14.01,2013-01-04 09:13:00,
2013-01-04 04:14:00,29.6,23.0,30.05,West,273,4.0,5.0,76,0.00,,,0.00,VWS V14.01,2013-01-04 09:14:00,
2013-01-04 04:15:00,29.6,23.0,30.05,WSW,256,3.0,5.0,76,0.00,,,0.00,VWS V14.01,2013-01-04 09:15:00,
2013-01-04 04:16:00,29.6,23.0,30.05,West,269,5.0,5.0,76,0.00,,,0.00,VWS V14.01,2013-01-04 09:16:00,
2013-01-04 04:17:00,29.6,23.0,30.05,WNW,288,0.0,5.0,76,0.00,,,0.00,VWS V14.01,2013-01-04 09:17:00,
2013-01-04 04:18:00,29.6,23.0,30.05,WNW,288,0.0,5.0,76,0.00,,,0.00,VWS V14.01,2013-01-04 09:18:00,
2013-01-04 04:19:00,29.6,23.0,30.05,WSW,241,4.0,7.0,76,0.00,,,0.00,VWS V14.01,2013-01-04 09:19:00,
2013-01-04 04:20:00,29.6,23.0,30.05,WNW,286,2.0,7.0,76,0.00,,,0.00,VWS V14.01,2013-01-04 09:20:00,
2013-01-04 04:21:00,29.6,23.0,30.05,West,281,2.0,3.0,76,0.00,,,0.00,VWS V14.01,2013-01-04 09:21:00,
2013-01-04 04:22:00,29.6,23.0,30.05,West,281,2.0,3.0,76,0.00,,,0.00,VWS V14.01,2013-01-04 09:22:00,
2013-01-04 04:23:00,29.6,23.0,30.05,WSW,248,0.0,3.0,76,0.00,,,0.00,VWS V14.01,2013-01-04 09:23:00,
2013-01-04 04:24:00,29.6,23.0,30.05,WSW,248,0.0,3.0,76,0.00,,,0.00,VWS V14.01,2013-01-04 09:24:00,
2013-01-04 04:25:00,29.6,23.0,30.05,WSW,242,3.0,6.0,76,0.00,,,0.00,VWS V14.01,2013-01-04 09:25:00,
2013-01-04 04:26:00,29.6,23.0,30.05,West,268,3.0,6.0,76,0.00,,,0.00,VWS V14.01,2013-01-04 09:26:00,
2013-01-04 04:27:00,29.6,23.0,30.05,West,267,1.0,6.0,76,0.00,,,0.00,VWS V14.01,2013-01-04 09:27:00,
2013-01-04 04:28:00,29.6,23.0,30.05,WNW,298,4.0,6.0,76,0.00,,,0.00,VWS V14.01,2013-01-04 09:28:00,
2013-01-04 04:29:00,29.6,23.0,30.05,WNW,290,3.0,6.0,76,0.00,,,0.00,VWS V14.01,2013-01-04 09:29:00,
2013-01-04 04:30:00,29.6,23.0,30.05,WNW,288,1.0,6.0,76,0.00,,,0.00,VWS V14.01,2013-01-04 09:30:00,
2013-01-04 04:31:00,29.6,23.0,30.05,WNW,288,0.0,1.0,76,0.00,,,0.00,VWS V14.01,2013-01-04 09:31:00,
2013-01-04 04:32:00,29.6,23.0,30.05,West,269,6.0,6.0,76,0.00,,,0.00,VWS V14.01,2013-01-04 09:32:00,
2013-01-04 04:33:00,29.7,23.1,30.05,WNW,300,1.0,6.0,76,0.00,,,0.00,VWS V14.01,2013-01-04 09:33:00,
2013-01-04 04:34:00,29.6,23.0,30.05,West,281,1.0,6.0,76,0.00,,,0.00,VWS V14.01,2013-01-04 09:34:00,
2013-01-04 04:35:00,29.7,23.1,30.05,West,261,1.0,6.0,76,0.00,,,0.00,VWS V14.01,2013-01-04 09:35:00,
2013-01-04 04:36:00,29.7,23.1,30.05,WSW,246,4.0,6.0,76,0.00,,,0.00,VWS V14.01,2013-01-04 09:36:00,
2013-01-04 04:37:00,29.7,23.1,30.05,WSW,252,5.0,6.0,76,0.00,,,0.00,VWS V14.01,2013-01-04 09:37:00,
2013-01-04 04:38:00,29.7,23.1,30.05,WNW,294,0.0,6.0,76,0.00,,,0.00,VWS V14.01,2013-01-04 09:38:00,
2013-01-04 04:39:00,29.7,23.1,30.05,West,271,5.0,8.0,76,0.00,,,0.00,VWS V14.01,2013-01-04 09:39:00,
2013-01-04 04:40:00,29.7,23.1,30.05,West,273,4.0,8.0,76,0.00,,,0.00,VWS V14.01,2013-01-04 09:40:00,
2013-01-04 04:41:00,29.7,23.1,30.05,WSW,257,3.0,5.0,76,0.00,,,0.00,VWS V14.01,2013-01-04 09:41:00,
2013-01-04 04:42:00,29.7,23.1,30.05,WSW,257,2.0,5.0,76,0.00,,,0.00,VWS V14.01,2013-01-04 09:42:00,
2013-01-04 04:43:00,29.7,23.1,30.05,West,267,1.0,7.0,76,0.00,,,0.00,VWS V14.01,2013-01-04 09:43:00,
2013-01-04 04:44:00,29.8,23.2,30.05,WSW,254,10.0,10.0,76,0.00,,,0.00,VWS V14.01,2013-01-04 09:44:00,
2013-01-04 04:45:00,29.8,23.2,30.05,NW,309,4.0,10.0,76,0.00,,,0.00,VWS V14.01,2013-01-04 09:45:00,
2013-01-04 04:46:00,29.8,23.2,30.05,WNW,287,2.0,10.0,76,0.00,,,0.00,VWS V14.01,2013-01-04 09:46:00,
2013-01-04 04:47:00,29.8,23.2,30.05,WNW,287,0.0,10.0,76,0.00,,,0.00,VWS V14.01,2013-01-04 09:47:00,
2013-01-04 04:48:00,29.8,23.2,30.05,WNW,287,0.0,10.0,76,0.00,,,0.00,VWS V14.01,2013-01-04 09:48:00,
2013-01-04 04:49:00,29.8,23.2,30.05,NW,311,5.0,10.0,76,0.00,,,0.00,VWS V14.01,2013-01-04 09:49:00,
2013-01-04 04:50:00,29.8,23.2,30.05,WSW,243,3.0,10.0,76,0.00,,,0.00,VWS V14.01,2013-01-04 09:50:00,
2013-01-04 04:51:00,29.9,23.3,30.05,WSW,238,1.0,3.0,76,0.00,,,0.00,VWS V14.01,2013-01-04 09:51:00,
2013-01-04 04:52:00,29.9,23.3,30.05,WSW,238,2.0,3.0,76,0.00,,,0.00,VWS V14.01,2013-01-04 09:52:00,
2013-01-04 04:53:00,29.9,23.3,30.05,WSW,238,2.0,3.0,76,0.00,,,0.00,VWS V14.01,2013-01-04 09:53:00,
2013-01-04 04:54:00,29.9,23.3,30.05,NW,314,5.0,6.0,76,0.00,,,0.00,VWS V14.01,2013-01-04 09:54:00,
2013-01-04 04:55:00,29.9,23.3,30.05,West,276,5.0,6.0,76,0.00,,,0.00,VWS V14.01,2013-01-04 09:55:00,
2013-01-04 04:56:00,29.9,23.3,30.05,NW,325,3.0,6.0,76,0.00,,,0.00,VWS V14.01,2013-01-04 09:56:00,
2013-01-04 04:57:00,29.9,23.3,30.05,NW,325,3.0,6.0,76,0.00,,,0.00,VWS V14.01,2013-01-04 09:57:00,
2013-01-04 04:58:00,29.9,23.3,30.05,NW,325,3.0,6.0,76,0.00,,,0.00,VWS V14.01,2013-01-04 09:58:00,
2013-01-04 04:59:00,30.0,23.4,30.05,WNW,290,3.0,6.0,76,0.00,,,0.00,VWS V14.01,2013-01-04 09:59:00,
2013-01-04 05:00:00,30.0,23.4,30.05,West,267,2.0,6.0,76,0.00,,,0.00,VWS V14.01,2013-01-04 10:00:00,
2013-01-04 05:01:00,30.0,23.4,30.05,West,265,4.0,4.0,76,0.00,,,0.00,VWS V14.01,2013-01-04 10:01:00,
2013-01-04 05:02:00,30.0,23.4,30.05,WSW,242,4.0,8.0,76,0.00,,,0.00,VWS V14.01,2013-01-04 10:02:00,
2013-01-04 05:03:00,30.0,23.4,30.05,WSW,238,0.0,8.0,76,0.00,,,0.00,VWS V14.01,2013-01-04 10:03:00,
2013-01-04 05:04:00,30.1,23.5,30.05,WNW,286,1.0,8.0,76,0.00,,,0.00,VWS V14.01,2013-01-04 10:04:00,
2013-01-04 05:05:00,30.1,23.5,30.05,WNW,283,2.0,8.0,76,0.00,,,0.00,VWS V14.01,2013-01-04 10:05:00,
2013-01-04 05:06:00,30.1,23.5,30.05,WSW,254,4.0,8.0,76,0.00,,,0.00,VWS V14.01,2013-01-04 10:06:00,
2013-01-04 05:07:00,30.1,23.5,30.05,WSW,254,1.0,8.0,76,0.00,,,0.00,VWS V14.01,2013-01-04 10:07:00,
2013-01-04 05:08:00,30.1,23.5,30.05,WNW,283,0.0,8.0,76,0.00,,,0.00,VWS V14.01,2013-01-04 10:08:00,
2013-01-04 05:09:00,30.1,23.5,30.05,WSW,249,6.0,8.0,76,0.00,,,0.00,VWS V14.01,2013-01-04 10:09:00,
2013-01-04 05:10:00,30.1,23.5,30.05,West,275,6.0,8.0,76,0.00,,,0.00,VWS V14.01,2013-01-04 10:10:00,
2013-01-04 05:11:00,30.1,23.5,30.05,West,275,6.0,6.0,76,0.00,,,0.00,VWS V14.01,2013-01-04 10:11:00,
2013-01-04 05:12:00,30.1,23.5,30.05,West,272,4.0,6.0,76,0.00,,,0.00,VWS V14.01,2013-01-04 10:12:00,
2013-01-04 05:13:00,30.1,23.5,30.05,West,265,3.0,6.0,76,0.00,,,0.00,VWS V14.01,2013-01-04 10:13:00,
2013-01-04 05:14:00,30.1,23.5,30.05,WSW,237,6.0,6.0,76,0.00,,,0.00,VWS V14.01,2013-01-04 10:14:00,
2013-01-04 05:15:00,30.1,23.5,30.05,West,281,2.0,7.0,76,0.00,,,0.00,VWS V14.01,2013-01-04 10:15:00,
2013-01-04 05:16:00,30.1,23.5,30.05,West,269,6.0,7.0,76,0.00,,,0.00,VWS V14.01,2013-01-04 10:16:00,
2013-01-04 05:17:00,30.2,23.6,30.05,SW,223,2.0,7.0,76,0.00,,,0.00,VWS V14.01,2013-01-04 10:17:00,
2013-01-04 05:18:00,30.1,23.5,30.05,West,281,4.0,7.0,76,0.00,,,0.00,VWS V14.01,2013-01-04 10:18:00,
2013-01-04 05:19:00,30.2,23.6,30.05,West,281,1.0,7.0,76,0.00,,,0.00,VWS V14.01,2013-01-04 10:19:00,
2013-01-04 05:20:00,30.2,23.6,30.05,West,270,2.0,7.0,76,0.00,,,0.00,VWS V14.01,2013-01-04 10:20:00,
2013-01-04 05:21:00,30.2,23.6,30.05,West,273,0.0,3.0,76,0.00,,,0.00,VWS V14.01,2013-01-04 10:21:00,
2013-01-04 05:22:00,30.1,23.5,30.05,West,279,5.0,5.0,76,0.00,,,0.00,VWS V14.01,2013-01-04 10:22:00,
2013-01-04 05:23:00,30.2,23.6,30.05,West,274,9.0,9.0,76,0.00,,,0.00,VWS V14.01,2013-01-04 10:23:00,
2013-01-04 05:24:00,30.2,23.6,30.05,West,265,4.0,9.0,76,0.00,,,0.00,VWS V14.01,2013-01-04 10:24:00,
2013-01-04 05:25:00,30.2,23.6,30.05,NW,312,2.0,9.0,76,0.00,,,0.00,VWS V14.01,2013-01-04 10:25:00,
2013-01-04 05:26:00,30.2,23.6,30.05,West,261,1.0,9.0,76,0.00,,,0.00,VWS V14.01,2013-01-04 10:26:00,
2013-01-04 05:27:00,30.2,23.6,30.05,WSW,258,7.0,9.0,76,0.00,,,0.00,VWS V14.01,2013-01-04 10:27:00,
2013-01-04 05:28:00,30.2,23.6,30.05,West,274,10.0,10.0,76,0.00,,,0.00,VWS V14.01,2013-01-04 10:28:00,
2013-01-04 05:29:00,30.2,23.6,30.05,West,277,4.0,10.0,76,0.00,,,0.00,VWS V14.01,2013-01-04 10:29:00,
2013-01-04 05:30:00,30.2,23.6,30.05,West,264,2.0,10.0,76,0.00,,,0.00,VWS V14.01,2013-01-04 10:30:00,
2013-01-04 05:31:00,30.2,23.6,30.05,West,265,3.0,9.0,76,0.00,,,0.00,VWS V14.01,2013-01-04 10:31:00,
2013-01-04 05:32:00,30.2,23.6,30.05,West,265,1.0,9.0,76,0.00,,,0.00,VWS V14.01,2013-01-04 10:32:00,
2013-01-04 05:33:00,30.2,23.6,30.05,West,265,1.0,9.0,76,0.00,,,0.00,VWS V14.01,2013-01-04 10:33:00,
2013-01-04 05:34:00,30.2,23.6,30.05,WNW,291,5.0,9.0,76,0.00,,,0.00,VWS V14.01,2013-01-04 10:34:00,
2013-01-04 05:35:00,30.2,23.6,30.05,WSW,251,8.0,9.0,76,0.00,,,0.00,VWS V14.01,2013-01-04 10:35:00,
2013-01-04 05:36:00,30.2,23.6,30.05,West,269,1.0,9.0,76,0.00,,,0.00,VWS V14.01,2013-01-04 10:36:00,
2013-01-04 05:37:00,30.2,23.6,30.05,West,267,2.0,9.0,76,0.00,,,0.00,VWS V14.01,2013-01-04 10:37:00,
2013-01-04 05:38:00,30.2,23.6,30.05,West,267,2.0,9.0,76,0.00,,,0.00,VWS V14.01,2013-01-04 10:38:00,
2013-01-04 05:39:00,30.2,23.6,30.05,WSW,252,0.0,9.0,76,0.00,,,0.00,VWS V14.01,2013-01-04 10:39:00,
2013-01-04 05:40:00,30.2,23.6,30.05,WNW,293,4.0,9.0,76,0.00,,,0.00,VWS V14.01,2013-01-04 10:40:00,
2013-01-04 05:41:00,30.2,23.6,30.05,WNW,291,8.0,8.0,76,0.00,,,0.00,VWS V14.01,2013-01-04 10:41:00,
2013-01-04 05:42:00,30.2,23.6,30.05,NW,317,2.0,8.0,76,0.00,,,0.00,VWS V14.01,2013-01-04 10:42:00,
2013-01-04 05:43:00,30.2,23.9,30.05,West,273,3.0,8.0,77,0.00,,,0.00,VWS V14.01,2013-01-04 10:43:00,
2013-01-04 05:44:00,30.2,23.9,30.05,WSW,252,5.0,8.0,77,0.00,,,0.00,VWS V14.01,2013-01-04 10:44:00,
2013-01-04 05:45:00,30.2,23.9,30.05,WNW,290,11.0,11.0,77,0.00,,,0.00,VWS V14.01,2013-01-04 10:45:00,
2013-01-04 05:46:00,30.2,23.9,30.05,West,277,3.0,11.0,77,0.00,,,0.00,VWS V14.01,2013-01-04 10:46:00,
2013-01-04 05:47:00,30.2,23.9,30.05,West,276,2.0,11.0,77,0.00,,,0.00,VWS V14.01,2013-01-04 10:47:00,
2013-01-04 05:48:00,30.2,23.9,30.05,WSW,257,5.0,11.0,77,0.00,,,0.00,VWS V14.01,2013-01-04 10:48:00,
2013-01-04 05:49:00,30.2,23.9,30.05,WSW,257,2.0,11.0,77,0.00,,,0.00,VWS V14.01,2013-01-04 10:49:00,
2013-01-04 05:50:00,30.2,23.9,30.05,WSW,254,3.0,11.0,77,0.00,,,0.00,VWS V14.01,2013-01-04 10:50:00,
2013-01-04 05:51:00,30.2,23.9,30.05,WNW,286,5.0,7.0,77,0.00,,,0.00,VWS V14.01,2013-01-04 10:51:00,
2013-01-04 05:52:00,30.2,23.9,30.05,WSW,250,7.0,8.0,77,0.00,,,0.00,VWS V14.01,2013-01-04 10:52:00,
2013-01-04 05:53:00,30.2,23.9,30.05,West,259,1.0,8.0,77,0.00,,,0.00,VWS V14.01,2013-01-04 10:53:00,
2013-01-04 05:54:00,30.2,23.6,30.05,SW,224,4.0,8.0,76,0.00,,,0.00,VWS V14.01,2013-01-04 10:54:00,
2013-01-04 05:55:00,30.2,23.6,30.05,WNW,289,4.0,8.0,76,0.00,,,0.00,VWS V14.01,2013-01-04 10:55:00,
2013-01-04 05:56:00,30.3,23.7,30.05,WNW,288,0.0,8.0,76,0.00,,,0.00,VWS V14.01,2013-01-04 10:56:00,
2013-01-04 05:57:00,30.2,23.6,30.05,WNW,288,1.0,8.0,76,0.00,,,0.00,VWS V14.01,2013-01-04 10:57:00,
2013-01-04 05:58:00,30.2,23.9,30.05,WSW,238,4.0,8.0,77,0.00,,,0.00,VWS V14.01,2013-01-04 10:58:00,
2013-01-04 05:59:00,30.2,23.6,30.05,West,270,6.0,8.0,76,0.00,,,0.00,VWS V14.01,2013-01-04 10:59:00,
2013-01-04 06:00:00,30.3,24.0,30.05,West,263,3.0,8.0,77,0.00,,,0.00,VWS V14.01,2013-01-04 11:00:00,
2013-01-04 06:01:00,30.3,23.7,30.05,WNW,302,4.0,6.0,76,0.00,,,0.00,VWS V14.01,2013-01-04 11:01:00,
2013-01-04 06:02:00,30.2,23.6,30.05,West,267,7.0,7.0,76,0.00,,,0.00,VWS V14.01,2013-01-04 11:02:00,
2013-01-04 06:03:00,30.3,23.7,30.05,WSW,252,2.0,7.0,76,0.00,,,0.00,VWS V14.01,2013-01-04 11:03:00,
2013-01-04 06:04:00,30.3,24.0,30.05,WSW,254,0.0,7.0,77,0.00,,,0.00,VWS V14.01,2013-01-04 11:04:00,
2013-01-04 06:05:00,30.3,24.0,30.05,NW,323,1.0,7.0,77,0.00,,,0.00,VWS V14.01,2013-01-04 11:05:00,
2013-01-04 06:06:00,30.3,24.0,30.05,West,272,5.0,7.0,77,0.00,,,0.00,VWS V14.01,2013-01-04 11:06:00,
2013-01-04 06:07:00,30.3,24.0,30.05,West,274,4.0,7.0,77,0.00,,,0.00,VWS V14.01,2013-01-04 11:07:00,
2013-01-04 06:08:00,30.3,24.0,30.05,West,274,4.0,7.0,77,0.00,,,0.00,VWS V14.01,2013-01-04 11:08:00,
2013-01-04 06:09:00,30.3,24.0,30.05,West,260,4.0,7.0,77,0.00,,,0.00,VWS V14.01,2013-01-04 11:09:00,
2013-01-04 06:10:00,30.2,23.9,30.05,West,274,4.0,7.0,77,0.00,,,0.00,VWS V14.01,2013-01-04 11:10:00,
2013-01-04 06:11:00,30.3,24.0,30.05,WSW,255,0.0,6.0,77,0.00,,,0.00,VWS V14.01,2013-01-04 11:11:00,
2013-01-04 06:12:00,30.2,23.9,30.05,WSW,256,3.0,6.0,77,0.00,,,0.00,VWS V14.01,2013-01-04 11:12:00,
2013-01-04 06:13:00,30.2,23.9,30.05,WSW,256,3.0,6.0,77,0.00,,,0.00,VWS V14.01,2013-01-04 11:13:00,
2013-01-04 06:14:00,30.2,23.9,30.05,West,263,2.0,6.0,77,0.00,,,0.00,VWS V14.01,2013-01-04 11:14:00,
2013-01-04 06:15:00,30.2,23.9,30.05,SW,225,4.0,6.0,77,0.00,,,0.00,VWS V14.01,2013-01-04 11:15:00,
2013-01-04 06:16:00,30.2,23.9,30.05,West,275,7.0,13.0,77,0.00,,,0.00,VWS V14.01,2013-01-04 11:16:00,
2013-01-04 06:17:00,30.2,23.9,30.05,West,262,9.0,13.0,77,0.00,,,0.00,VWS V14.01,2013-01-04 11:17:00,
2013-01-04 06:18:00,30.2,23.9,30.05,WSW,246,6.0,13.0,77,0.00,,,0.00,VWS V14.01,2013-01-04 11:18:00,
2013-01-04 06:19:00,30.2,23.9,30.05,WSW,240,3.0,13.0,77,0.00,,,0.00,VWS V14.01,2013-01-04 11:19:00,
2013-01-04 06:20:00,30.2,23.9,30.05,West,261,7.0,13.0,77,0.00,,,0.00,VWS V14.01,2013-01-04 11:20:00,
2013-01-04 06:21:00,30.2,23.9,30.05,West,261,2.0,8.0,77,0.00,,,0.00,VWS V14.01,2013-01-04 11:21:00,
2013-01-04 06:22:00,30.2,23.9,30.05,West,265,6.0,8.0,77,0.00,,,0.00,VWS V14.01,2013-01-04 11:22:00,
2013-01-04 06:23:00,30.2,23.9,30.05,WSW,252,2.0,8.0,77,0.00,,,0.00,VWS V14.01,2013-01-04 11:23:00,
2013-01-04 06:24:00,30.2,23.9,30.05,WNW,283,4.0,8.0,77,0.00,,,0.00,VWS V14.01,2013-01-04 11:24:00,
2013-01-04 06:25:00,30.2,23.9,30.05,WNW,283,0.0,8.0,77,0.00,,,0.00,VWS V14.01,2013-01-04 11:25:00,
2013-01-04 06:26:00,30.2,23.9,30.05,West,279,2.0,8.0,77,0.00,,,0.00,VWS V14.01,2013-01-04 11:26:00,
2013-01-04 06:27:00,30.2,23.9,30.05,West,279,3.0,8.0,77,0.00,,,0.00,VWS V14.01,2013-01-04 11:27:00,
2013-01-04 06:28:00,30.2,23.9,30.05,NW,319,1.0,8.0,77,0.00,,,0.00,VWS V14.01,2013-01-04 11:28:00,
2013-01-04 06:29:00,30.2,23.9,30.05,WNW,290,5.0,8.0,77,0.00,,,0.00,VWS V14.01,2013-01-04 11:29:00,
2013-01-04 06:30:00,30.2,23.9,30.05,West,262,7.0,8.0,77,0.00,,,0.00,VWS V14.01,2013-01-04 11:30:00,
2013-01-04 06:31:00,30.1,23.8,30.05,West,262,4.0,7.0,77,0.00,,,0.00,VWS V14.01,2013-01-04 11:31:00,
2013-01-04 06:32:00,30.2,23.9,30.05,WSW,248,6.0,7.0,77,0.00,,,0.00,VWS V14.01,2013-01-04 11:32:00,
2013-01-04 06:33:00,30.2,23.9,30.05,WSW,248,6.0,7.0,77,0.00,,,0.00,VWS V14.01,2013-01-04 11:33:00,
2013-01-04 06:34:00,30.1,23.8,30.05,West,262,4.0,7.0,77,0.00,,,0.00,VWS V14.01,2013-01-04 11:34:00,
2013-01-04 06:35:00,30.1,24.1,30.05,WSW,254,6.0,7.0,78,0.00,,,0.00,VWS V14.01,2013-01-04 11:35:00,
2013-01-04 06:36:00,30.1,24.1,30.05,WSW,248,4.0,8.0,78,0.00,,,0.00,VWS V14.01,2013-01-04 11:36:00,
2013-01-04 06:37:00,30.1,24.1,30.05,WSW,258,5.0,8.0,78,0.00,,,0.00,VWS V14.01,2013-01-04 11:37:00,
2013-01-04 06:38:00,30.1,24.1,30.05,WSW,258,5.0,8.0,78,0.00,,,0.00,VWS V14.01,2013-01-04 11:38:00,
2013-01-04 06:39:00,30.1,24.1,30.05,West,263,2.0,8.0,78,0.00,,,0.00,VWS V14.01,2013-01-04 11:39:00,
2013-01-04 06:40:00,30.1,24.1,30.05,WNW,291,2.0,8.0,78,0.00,,,0.00,VWS V14.01,2013-01-04 11:40:00,
2013-01-04 06:41:00,30.1,24.1,30.05,West,275,7.0,8.0,78,0.00,,,0.00,VWS V14.01,2013-01-04 11:41:00,
2013-01-04 06:42:00,30.1,24.1,30.05,West,269,4.0,8.0,78,0.00,,,0.00,VWS V14.01,2013-01-04 11:42:00,
2013-01-04 06:43:00,30.1,24.1,30.05,West,269,8.0,8.0,78,0.00,,,0.00,VWS V14.01,2013-01-04 11:43:00,
2013-01-04 06:44:00,30.1,24.1,30.05,WSW,252,5.0,8.0,78,0.00,,,0.00,VWS V14.01,2013-01-04 11:44:00,
2013-01-04 06:45:00,30.1,24.1,30.05,WSW,246,7.0,8.0,78,0.00,,,0.00,VWS V14.01,2013-01-04 11:45:00,
2013-01-04 06:46:00,30.1,24.1,30.05,WSW,248,3.0,8.0,78,0.00,,,0.00,VWS V14.01,2013-01-04 11:46:00,
2013-01-04 06:47:00,30.1,24.1,30.05,SW,232,4.0,8.0,78,0.00,,,0.00,VWS V14.01,2013-01-04 11:47:00,
2013-01-04 06:48:00,30.1,24.1,30.05,WNW,284,4.0,8.0,78,0.00,,,0.00,VWS V14.01,2013-01-04 11:48:00,
2013-01-04 06:49:00,30.0,24.0,30.05,WNW,300,5.0,8.0,78,0.00,,,0.00,VWS V14.01,2013-01-04 11:49:00,
2013-01-04 06:50:00,30.0,24.0,30.05,West,268,4.0,8.0,78,0.00,,,0.00,VWS V14.01,2013-01-04 11:50:00,
2013-01-04 06:51:00,30.0,24.0,30.05,WSW,252,3.0,6.0,78,0.00,,,0.00,VWS V14.01,2013-01-04 11:51:00,
2013-01-04 06:52:00,30.0,24.0,30.05,WSW,252,0.0,6.0,78,0.00,,,0.00,VWS V14.01,2013-01-04 11:52:00,
2013-01-04 06:53:00,30.0,24.0,30.05,West,262,2.0,6.0,78,0.00,,,0.00,VWS V14.01,2013-01-04 11:53:00,
2013-01-04 06:54:00,30.0,24.3,30.05,West,261,5.0,6.0,79,0.00,,,0.00,VWS V14.01,2013-01-04 11:54:00,
2013-01-04 06:55:00,30.0,24.3,30.05,WSW,257,5.0,6.0,79,0.00,,,0.00,VWS V14.01,2013-01-04 11:55:00,
2013-01-04 06:56:00,30.0,24.3,30.05,West,275,9.0,9.0,79,0.00,,,0.00,VWS V14.01,2013-01-04 11:56:00,
2013-01-04 06:57:00,30.0,24.3,30.05,SW,224,3.0,9.0,79,0.00,,,0.00,VWS V14.01,2013-01-04 11:57:00,
2013-01-04 06:58:00,30.0,24.3,30.05,WSW,249,0.0,9.0,79,0.00,,,0.00,VWS V14.01,2013-01-04 11:58:00,
2013-01-04 06:59:00,29.9,24.2,30.05,NW,321,3.0,9.0,79,0.00,,,0.00,VWS V14.01,2013-01-04 11:59:00,
2013-01-04 07:00:00,29.9,24.2,30.05,SW,220,6.0,9.0,79,0.00,,,0.00,VWS V14.01,2013-01-04 12:00:00,
2013-01-04 07:01:00,29.9,24.2,30.05,WSW,257,7.0,9.0,79,0.00,,,0.00,VWS V14.01,2013-01-04 12:01:00,
2013-01-04 07:02:00,29.9,24.2,30.05,West,273,7.0,9.0,79,0.00,,,0.00,VWS V14.01,2013-01-04 12:02:00,
2013-01-04 07:03:00,29.9,24.2,30.05,WSW,253,3.0,9.0,79,0.00,,,0.00,VWS V14.01,2013-01-04 12:03:00,
2013-01-04 07:04:00,29.9,24.2,30.05,WSW,253,2.0,9.0,79,0.00,,,0.00,VWS V14.01,2013-01-04 12:04:00,
2013-01-04 07:05:00,29.9,24.2,30.05,West,278,6.0,9.0,79,0.00,,,0.00,VWS V14.01,2013-01-04 12:05:00,
2013-01-04 07:06:00,29.9,24.5,30.05,West,267,5.0,9.0,80,0.00,,,0.00,VWS V14.01,2013-01-04 12:06:00,
2013-01-04 07:07:00,29.9,24.5,30.05,West,267,5.0,9.0,80,0.00,,,0.00,VWS V14.01,2013-01-04 12:07:00,
2013-01-04 07:08:00,29.9,24.5,30.05,West,267,5.0,9.0,80,0.00,,,0.00,VWS V14.01,2013-01-04 12:08:00,
2013-01-04 07:09:00,29.9,24.5,30.05,WSW,252,6.0,9.0,80,0.00,,,0.00,VWS V14.01,2013-01-04 12:09:00,
2013-01-04 07:10:00,29.9,24.5,30.05,WSW,250,3.0,9.0,80,0.00,,,0.00,VWS V14.01,2013-01-04 12:10:00,
2013-01-04 07:11:00,29.9,24.5,30.05,WSW,250,0.0,3.0,80,0.00,,,0.00,VWS V14.01,2013-01-04 12:11:00,
2013-01-04 07:12:00,29.8,24.4,30.05,SW,229,6.0,6.0,80,0.00,,,0.00,VWS V14.01,2013-01-04 12:12:00,
2013-01-04 07:13:00,29.8,24.4,30.05,SW,229,6.0,6.0,80,0.00,,,0.00,VWS V14.01,2013-01-04 12:13:00,
2013-01-04 07:14:00,29.8,24.4,30.05,WNW,289,2.0,7.0,80,0.00,,,0.00,VWS V14.01,2013-01-04 12:14:00,
2013-01-04 07:15:00,29.8,24.4,30.05,WNW,303,1.0,7.0,80,0.00,,,0.00,VWS V14.01,2013-01-04 12:15:00,
2013-01-04 07:16:00,29.8,24.4,30.05,West,261,0.0,7.0,80,0.00,,,0.00,VWS V14.01,2013-01-04 12:16:00,
2013-01-04 07:17:00,29.8,24.4,30.05,West,261,0.0,7.0,80,0.00,,,0.00,VWS V14.01,2013-01-04 12:17:00,
2013-01-04 07:18:00,29.8,24.4,30.05,West,261,0.0,7.0,80,0.00,,,0.00,VWS V14.01,2013-01-04 12:18:00,
2013-01-04 07:19:00,29.8,24.4,30.05,WSW,257,7.0,7.0,80,0.00,,,0.00,VWS V14.01,2013-01-04 12:19:00,
2013-01-04 07:20:00,29.8,24.4,30.05,WSW,253,4.0,7.0,80,0.00,,,0.00,VWS V14.01,2013-01-04 12:20:00,
2013-01-04 07:21:00,29.8,24.4,30.05,West,281,4.0,6.0,80,0.00,,,0.00,VWS V14.01,2013-01-04 12:21:00,
2013-01-04 07:22:00,29.8,24.4,30.05,West,277,0.0,6.0,80,0.00,,,0.00,VWS V14.01,2013-01-04 12:22:00,
2013-01-04 07:23:00,29.8,24.4,30.05,West,259,6.0,6.0,80,0.00,,,0.00,VWS V14.01,2013-01-04 12:23:00,
2013-01-04 07:24:00,29.8,24.4,30.05,West,275,5.0,7.0,80,0.00,,,0.00,VWS V14.01,2013-01-04 12:24:00,
2013-01-04 07:25:00,29.8,24.4,30.05,SSW,202,5.0,7.0,80,0.00,,,0.00,VWS V14.01,2013-01-04 12:25:00,
2013-01-04 07:26:00,29.8,24.4,30.05,West,271,5.0,7.0,80,0.00,,,0.00,VWS V14.01,2013-01-04 12:26:00,
2013-01-04 07:27:00,29.8,24.4,30.05,West,262,5.0,7.0,80,0.00,,,0.00,VWS V14.01,2013-01-04 12:27:00,
2013-01-04 07:28:00,29.8,24.4,30.05,West,274,1.0,7.0,80,0.00,,,0.00,VWS V14.01,2013-01-04 12:28:00,
2013-01-04 07:29:00,29.7,24.6,30.05,WSW,240,4.0,7.0,81,0.00,,,0.00,VWS V14.01,2013-01-04 12:29:00,
2013-01-04 07:30:00,29.7,24.6,30.05,WNW,289,6.0,9.0,81,0.00,,,0.00,VWS V14.01,2013-01-04 12:30:00,
2013-01-04 07:31:00,29.7,24.6,30.05,West,265,6.0,6.0,81,0.00,,,0.00,VWS V14.01,2013-01-04 12:31:00,
2013-01-04 07:32:00,29.8,24.7,30.05,West,270,2.0,6.0,81,0.00,,,0.00,VWS V14.01,2013-01-04 12:32:00,
2013-01-04 07:33:00,29.8,24.7,30.05,WSW,243,3.0,9.0,81,0.00,,,0.00,VWS V14.01,2013-01-04 12:33:00,
2013-01-04 07:34:00,29.7,24.6,30.05,NW,309,0.0,9.0,81,0.00,,,0.00,VWS V14.01,2013-01-04 12:34:00,
2013-01-04 07:35:00,29.7,24.6,30.05,WSW,258,2.0,9.0,81,0.00,,,0.00,VWS V14.01,2013-01-04 12:35:00,
2013-01-04 07:36:00,29.7,24.6,30.05,WSW,255,7.0,9.0,81,0.00,,,0.00,VWS V14.01,2013-01-04 12:36:00,
2013-01-04 07:37:00,29.7,24.6,30.05,West,269,5.0,9.0,81,0.00,,,0.00,VWS V14.01,2013-01-04 12:37:00,
2013-01-04 07:38:00,29.7,24.6,30.05,WSW,252,3.0,9.0,81,0.00,,,0.00,VWS V14.01,2013-01-04 12:38:00,
2013-01-04 07:39:00,29.7,24.3,30.05,West,273,0.0,9.0,80,0.00,,,0.00,VWS V14.01,2013-01-04 12:39:00,
2013-01-04 07:40:00,29.7,24.3,30.05,WSW,245,4.0,9.0,80,0.00,,,0.00,VWS V14.01,2013-01-04 12:40:00,
2013-01-04 07:41:00,29.7,24.6,30.05,WSW,251,4.0,8.0,81,0.00,,,0.00,VWS V14.01,2013-01-04 12:41:00,
2013-01-04 07:42:00,29.7,24.6,30.05,SW,220,5.0,8.0,81,0.00,,,0.00,VWS V14.01,2013-01-04 12:42:00,
2013-01-04 07:43:00,29.8,24.4,30.05,WSW,238,7.0,9.0,80,0.00,,,0.00,VWS V14.01,2013-01-04 12:43:00,
2013-01-04 07:44:00,29.7,24.3,30.05,SSW,200,6.0,9.0,80,0.00,,,0.00,VWS V14.01,2013-01-04 12:44:00,
2013-01-04 07:45:00,29.7,24.3,30.05,WSW,241,0.0,9.0,80,0.00,,,0.00,VWS V14.01,2013-01-04 12:45:00,
2013-01-04 07:46:00,29.7,24.3,30.05,WSW,248,8.0,9.0,80,0.00,,,0.00,VWS V14.01,2013-01-04 12:46:00,
2013-01-04 07:47:00,29.8,24.4,30.05,NW,314,2.0,9.0,80,0.00,,,0.00,VWS V14.01,2013-01-04 12:47:00,
2013-01-04 07:48:00,29.8,24.4,30.05,NW,314,2.0,9.0,80,0.00,,,0.00,VWS V14.01,2013-01-04 12:48:00,
2013-01-04 07:49:00,29.8,24.4,30.05,West,261,9.0,9.0,80,0.00,,,0.00,VWS V14.01,2013-01-04 12:49:00,
2013-01-04 07:50:00,29.8,24.4,30.05,WSW,252,1.0,9.0,80,0.00,,,0.00,VWS V14.01,2013-01-04 12:50:00,
2013-01-04 07:51:00,29.8,24.4,30.05,West,263,6.0,7.0,80,0.00,,,0.00,VWS V14.01,2013-01-04 12:51:00,
2013-01-04 07:52:00,29.8,24.4,30.05,WSW,240,6.0,7.0,80,0.00,,,0.00,VWS V14.01,2013-01-04 12:52:00,
2013-01-04 07:53:00,29.8,24.4,30.05,WSW,240,6.0,7.0,80,0.00,,,0.00,VWS V14.01,2013-01-04 12:53:00,
2013-01-04 07:54:00,29.8,24.4,30.05,SSW,211,1.0,7.0,80,0.00,,,0.00,VWS V14.01,2013-01-04 12:54:00,
2013-01-04 07:55:00,29.8,24.4,30.05,West,280,6.0,7.0,80,0.00,,,0.00,VWS V14.01,2013-01-04 12:55:00,
2013-01-04 07:56:00,29.8,24.4,30.05,WSW,254,3.0,7.0,80,0.00,,,0.00,VWS V14.01,2013-01-04 12:56:00,
2013-01-04 07:57:00,29.8,24.4,30.05,WSW,256,2.0,7.0,80,0.00,,,0.00,VWS V14.01,2013-01-04 12:57:00,
2013-01-04 07:58:00,29.8,24.4,30.05,West,276,3.0,7.0,80,0.00,,,0.00,VWS V14.01,2013-01-04 12:58:00,
2013-01-04 07:59:00,29.8,24.4,30.05,WSW,248,2.0,7.0,80,0.00,,,0.00,VWS V14.01,2013-01-04 12:59:00,
2013-01-04 08:00:00,29.8,24.4,30.06,West,279,9.0,9.0,80,0.00,,,0.00,VWS V14.01,2013-01-04 13:00:00,
2013-01-04 08:01:00,29.8,24.4,30.06,WSW,258,2.0,7.0,80,0.00,,,0.00,VWS V14.01,2013-01-04 13:01:00,
2013-01-04 08:02:00,29.8,24.4,30.06,WNW,300,0.0,7.0,80,0.00,,,0.00,VWS V14.01,2013-01-04 13:02:00,
2013-01-04 08:03:00,29.9,24.5,30.06,SW,231,3.0,7.0,80,0.00,,,0.00,VWS V14.01,2013-01-04 13:03:00,
2013-01-04 08:04:00,29.8,24.4,30.06,West,265,5.0,7.0,80,0.00,,,0.00,VWS V14.01,2013-01-04 13:04:00,
2013-01-04 08:05:00,29.9,24.5,30.06,West,262,4.0,7.0,80,0.00,,,0.00,VWS V14.01,2013-01-04 13:05:00,
2013-01-04 08:06:00,29.9,24.5,30.06,West,264,8.0,12.0,80,0.00,,,0.00,VWS V14.01,2013-01-04 13:06:00,
2013-01-04 08:07:00,29.9,24.5,30.06,West,262,7.0,12.0,80,0.00,,,0.00,VWS V14.01,2013-01-04 13:07:00,
2013-01-04 08:08:00,29.9,24.2,30.06,WSW,253,2.0,12.0,79,0.00,,,0.00,VWS V14.01,2013-01-04 13:08:00,
2013-01-04 08:09:00,29.9,24.2,30.06,SSW,196,4.0,12.0,79,0.00,,,0.00,VWS V14.01,2013-01-04 13:09:00,
2013-01-04 08:10:00,29.9,24.2,30.06,West,268,2.0,12.0,79,0.00,,,0.00,VWS V14.01,2013-01-04 13:10:00,
2013-01-04 08:11:00,29.9,24.2,30.06,West,266,3.0,3.0,79,0.00,,,0.00,VWS V14.01,2013-01-04 13:11:00,
2013-01-04 08:12:00,29.9,24.2,30.06,West,266,1.0,3.0,79,0.00,,,0.00,VWS V14.01,2013-01-04 13:12:00,
2013-01-04 08:13:00,29.9,24.2,30.06,SW,232,0.0,3.0,79,0.00,,,0.00,VWS V14.01,2013-01-04 13:13:00,
2013-01-04 08:14:00,29.9,24.2,30.06,WSW,245,3.0,3.0,79,0.00,,,0.00,VWS V14.01,2013-01-04 13:14:00,
2013-01-04 08:15:00,29.9,24.2,30.06,WSW,252,2.0,6.0,79,0.00,,,0.00,VWS V14.01,2013-01-04 13:15:00,
2013-01-04 08:16:00,30.0,24.3,30.06,WSW,241,9.0,11.0,79,0.00,,,0.00,VWS V14.01,2013-01-04 13:16:00,
2013-01-04 08:17:00,30.0,24.3,30.06,WSW,238,3.0,11.0,79,0.00,,,0.00,VWS V14.01,2013-01-04 13:17:00,
2013-01-04 08:18:00,30.0,24.3,30.06,West,267,2.0,11.0,79,0.00,,,0.00,VWS V14.01,2013-01-04 13:18:00,
2013-01-04 08:19:00,30.0,24.3,30.06,WSW,244,3.0,11.0,79,0.00,,,0.00,VWS V14.01,2013-01-04 13:19:00,
2013-01-04 08:20:00,30.0,24.3,30.06,SSW,198,4.0,11.0,79,0.00,,,0.00,VWS V14.01,2013-01-04 13:20:00,
2013-01-04 08:21:00,30.1,24.4,30.06,SSW,211,0.0,5.0,79,0.00,,,0.00,VWS V14.01,2013-01-04 13:21:00,
2013-01-04 08:22:00,30.1,24.4,30.06,SW,224,7.0,7.0,79,0.00,,,0.00,VWS V14.01,2013-01-04 13:22:00,
2013-01-04 08:23:00,30.1,24.4,30.06,WSW,252,4.0,7.0,79,0.00,,,0.00,VWS V14.01,2013-01-04 13:23:00,
2013-01-04 08:24:00,30.1,24.4,30.06,WNW,284,4.0,7.0,79,0.00,,,0.00,VWS V14.01,2013-01-04 13:24:00,
2013-01-04 08:25:00,30.1,24.4,30.06,West,272,7.0,9.0,79,0.00,,,0.00,VWS V14.01,2013-01-04 13:25:00,
2013-01-04 08:26:00,30.1,24.4,30.06,West,274,2.0,9.0,79,0.00,,,0.00,VWS V14.01,2013-01-04 13:26:00,
2013-01-04 08:27:00,30.1,24.4,30.06,West,274,2.0,9.0,79,0.00,,,0.00,VWS V14.01,2013-01-04 13:27:00,
2013-01-04 08:28:00,30.1,24.4,30.06,West,274,2.0,9.0,79,0.00,,,0.00,VWS V14.01,2013-01-04 13:28:00,
2013-01-04 08:29:00,30.1,24.4,30.06,WNW,294,6.0,9.0,79,0.00,,,0.00,VWS V14.01,2013-01-04 13:29:00,
2013-01-04 08:30:00,30.1,24.4,30.06,SW,227,3.0,9.0,79,0.00,,,0.00,VWS V14.01,2013-01-04 13:30:00,
2013-01-04 08:31:00,30.1,24.4,30.06,SW,228,2.0,9.0,79,0.00,,,0.00,VWS V14.01,2013-01-04 13:31:00,
2013-01-04 08:32:00,30.1,24.4,30.06,West,262,6.0,9.0,79,0.00,,,0.00,VWS V14.01,2013-01-04 13:32:00,
2013-01-04 08:33:00,30.1,24.4,30.06,West,267,2.0,9.0,79,0.00,,,0.00,VWS V14.01,2013-01-04 13:33:00,
2013-01-04 08:34:00,30.1,24.4,30.06,West,268,1.0,9.0,79,0.00,,,0.00,VWS V14.01,2013-01-04 13:34:00,
2013-01-04 08:35:00,30.1,24.4,30.06,WSW,254,7.0,10.0,79,0.00,,,0.00,VWS V14.01,2013-01-04 13:35:00,
2013-01-04 08:36:00,30.1,24.4,30.06,WSW,237,8.0,10.0,79,0.00,,,0.00,VWS V14.01,2013-01-04 13:36:00,
2013-01-04 08:37:00,30.2,24.5,30.06,WSW,252,4.0,10.0,79,0.00,,,0.00,VWS V14.01,2013-01-04 13:37:00,
2013-01-04 08:38:00,30.2,24.5,30.06,West,269,4.0,10.0,79,0.00,,,0.00,VWS V14.01,2013-01-04 13:38:00,
2013-01-04 08:39:00,30.1,24.4,30.06,WSW,255,2.0,10.0,79,0.00,,,0.00,VWS V14.01,2013-01-04 13:39:00,
2013-01-04 08:40:00,30.1,24.4,30.06,West,271,11.0,12.0,79,0.00,,,0.00,VWS V14.01,2013-01-04 13:40:00,
2013-01-04 08:41:00,30.1,24.4,30.06,WSW,246,4.0,11.0,79,0.00,,,0.00,VWS V14.01,2013-01-04 13:41:00,
2013-01-04 08:42:00,30.1,24.4,30.06,WSW,245,5.0,11.0,79,0.00,,,0.00,VWS V14.01,2013-01-04 13:42:00,
2013-01-04 08:43:00,30.1,24.4,30.06,WSW,257,6.0,11.0,79,0.00,,,0.00,VWS V14.01,2013-01-04 13:43:00,
2013-01-04 08:44:00,30.1,24.4,30.06,WSW,250,6.0,11.0,79,0.00,,,0.00,VWS V14.01,2013-01-04 13:44:00,
2013-01-04 08:45:00,30.1,24.4,30.07,West,274,9.0,13.0,79,0.00,,,0.00,VWS V14.01,2013-01-04 13:45:00,
2013-01-04 08:46:00,30.1,24.4,30.07,WSW,253,3.0,13.0,79,0.00,,,0.00,VWS V14.01,2013-01-04 13:46:00,
2013-01-04 08:47:00,30.1,24.4,30.07,West,268,5.0,13.0,79,0.00,,,0.00,VWS V14.01,2013-01-04 13:47:00,
2013-01-04 08:48:00,30.1,24.7,30.07,SW,231,7.0,13.0,80,0.00,,,0.00,VWS V14.01,2013-01-04 13:48:00,
2013-01-04 08:49:00,30.1,24.7,30.07,WNW,290,5.0,13.0,80,0.00,,,0.00,VWS V14.01,2013-01-04 13:49:00,
2013-01-04 08:50:00,30.1,24.7,30.07,SW,216,2.0,13.0,80,0.00,,,0.00,VWS V14.01,2013-01-04 13:50:00,
2013-01-04 08:51:00,30.1,24.7,30.07,WSW,240,5.0,7.0,80,0.00,,,0.00,VWS V14.01,2013-01-04 13:51:00,
2013-01-04 08:52:00,30.2,24.8,30.07,WSW,249,7.0,7.0,80,0.00,,,0.00,VWS V14.01,2013-01-04 13:52:00,
2013-01-04 08:53:00,30.2,24.8,30.07,WNW,301,1.0,7.0,80,0.00,,,0.00,VWS V14.01,2013-01-04 13:53:00,
2013-01-04 08:54:00,30.2,24.8,30.07,WSW,248,7.0,7.0,80,0.00,,,0.00,VWS V14.01,2013-01-04 13:54:00,
2013-01-04 08:55:00,30.2,24.8,30.07,West,273,5.0,10.0,80,0.00,,,0.00,VWS V14.01,2013-01-04 13:55:00,
2013-01-04 08:56:00,30.2,24.8,30.07,West,277,6.0,11.0,80,0.00,,,0.00,VWS V14.01,2013-01-04 13:56:00,
2013-01-04 08:57:00,30.2,24.8,30.07,West,278,4.0,11.0,80,0.00,,,0.00,VWS V14.01,2013-01-04 13:57:00,
2013-01-04 08:58:00,30.2,24.8,30.07,SW,229,7.0,11.0,80,0.00,,,0.00,VWS V14.01,2013-01-04 13:58:00,
2013-01-04 08:59:00,30.2,24.8,30.07,West,264,1.0,11.0,80,0.00,,,0.00,VWS V14.01,2013-01-04 13:59:00,
2013-01-04 09:00:00,30.2,25.1,30.07,WSW,248,3.0,11.0,81,0.00,,,0.00,VWS V14.01,2013-01-04 14:00:00,
2013-01-04 09:01:00,30.3,25.2,30.07,WSW,251,6.0,12.0,81,0.00,,,0.00,VWS V14.01,2013-01-04 14:01:00,
2013-01-04 09:02:00,30.3,25.2,30.07,West,277,4.0,12.0,81,0.00,,,0.00,VWS V14.01,2013-01-04 14:02:00,
2013-01-04 09:03:00,30.3,25.2,30.07,West,277,4.0,12.0,81,0.00,,,0.00,VWS V14.01,2013-01-04 14:03:00,
2013-01-04 09:04:00,30.3,25.2,30.07,SW,236,4.0,12.0,81,0.00,,,0.00,VWS V14.01,2013-01-04 14:04:00,
2013-01-04 09:05:00,30.3,25.2,30.07,WSW,241,5.0,12.0,81,0.00,,,0.00,VWS V14.01,2013-01-04 14:05:00,
2013-01-04 09:06:00,30.4,25.3,30.07,West,280,9.0,12.0,81,0.00,,,0.00,VWS V14.01,2013-01-04 14:06:00,
2013-01-04 09:07:00,30.4,25.3,30.07,West,280,9.0,12.0,81,0.00,,,0.00,VWS V14.01,2013-01-04 14:07:00,
2013-01-04 09:08:00,30.4,25.3,30.07,West,280,9.0,12.0,81,0.00,,,0.00,VWS V14.01,2013-01-04 14:08:00,
2013-01-04 09:09:00,30.4,25.3,30.07,WNW,287,6.0,12.0,81,0.00,,,0.00,VWS V14.01,2013-01-04 14:09:00,
2013-01-04 09:10:00,30.4,25.3,30.07,WSW,240,2.0,12.0,81,0.00,,,0.00,VWS V14.01,2013-01-04 14:10:00,
2013-01-04 09:11:00,30.4,25.3,30.07,West,265,16.0,16.0,81,0.00,,,0.00,VWS V14.01,2013-01-04 14:11:00,
2013-01-04 09:12:00,30.4,25.3,30.07,SSW,213,5.0,16.0,81,0.00,,,0.00,VWS V14.01,2013-01-04 14:12:00,
2013-01-04 09:13:00,30.4,25.3,30.07,WNW,286,8.0,16.0,81,0.00,,,0.00,VWS V14.01,2013-01-04 14:13:00,
2013-01-04 09:14:00,30.5,25.4,30.07,WSW,243,4.0,16.0,81,0.00,,,0.00,VWS V14.01,2013-01-04 14:14:00,
2013-01-04 09:15:00,30.5,25.4,30.07,SW,226,6.0,16.0,81,0.00,,,0.00,VWS V14.01,2013-01-04 14:15:00,
2013-01-04 09:16:00,30.5,25.4,30.07,WNW,289,11.0,16.0,81,0.00,,,0.00,VWS V14.01,2013-01-04 14:16:00,
2013-01-04 09:17:00,30.5,25.4,30.07,WNW,285,8.0,16.0,81,0.00,,,0.00,VWS V14.01,2013-01-04 14:17:00,
2013-01-04 09:18:00,30.6,25.5,30.07,WNW,297,2.0,16.0,81,0.00,,,0.00,VWS V14.01,2013-01-04 14:18:00,
2013-01-04 09:19:00,30.7,25.6,30.07,West,271,3.0,16.0,81,0.00,,,0.00,VWS V14.01,2013-01-04 14:19:00,
2013-01-04 09:20:00,30.7,25.6,30.07,West,278,10.0,16.0,81,0.00,,,0.00,VWS V14.01,2013-01-04 14:20:00,
2013-01-04 09:21:00,30.8,25.4,30.07,SW,236,5.0,10.0,80,0.00,,,0.00,VWS V14.01,2013-01-04 14:21:00,
2013-01-04 09:22:00,30.8,25.4,30.07,WSW,257,8.0,10.0,80,0.00,,,0.00,VWS V14.01,2013-01-04 14:22:00,
2013-01-04 09:23:00,31.0,25.6,30.07,WSW,242,9.0,10.0,80,0.00,,,0.00,VWS V14.01,2013-01-04 14:23:00,
2013-01-04 09:24:00,31.0,25.6,30.07,WNW,301,3.0,10.0,80,0.00,,,0.00,VWS V14.01,2013-01-04 14:24:00,
2013-01-04 09:25:00,31.1,25.7,30.07,WSW,258,6.0,10.0,80,0.00,,,0.00,VWS V14.01,2013-01-04 14:25:00,
2013-01-04 09:26:00,31.2,25.8,30.07,WNW,297,1.0,10.0,80,0.00,,,0.00,VWS V14.01,2013-01-04 14:26:00,
2013-01-04 09:27:00,31.2,25.8,30.07,WNW,292,3.0,10.0,80,0.00,,,0.00,VWS V14.01,2013-01-04 14:27:00,
2013-01-04 09:28:00,31.2,25.8,30.07,WSW,257,6.0,10.0,80,0.00,,,0.00,VWS V14.01,2013-01-04 14:28:00,
2013-01-04 09:29:00,31.2,25.5,30.07,NW,317,9.0,10.0,79,0.00,,,0.00,VWS V14.01,2013-01-04 14:29:00,
2013-01-04 09:30:00,31.3,25.6,30.06,NW,321,4.0,10.0,79,0.00,,,0.00,VWS V14.01,2013-01-04 14:30:00,
2013-01-04 09:31:00,31.3,25.6,30.06,WNW,288,6.0,11.0,79,0.00,,,0.00,VWS V14.01,2013-01-04 14:31:00,
2013-01-04 09:32:00,31.3,25.6,30.06,WNW,286,5.0,11.0,79,0.00,,,0.00,VWS V14.01,2013-01-04 14:32:00,
2013-01-04 09:33:00,31.3,25.2,30.06,WNW,293,4.0,11.0,78,0.00,,,0.00,VWS V14.01,2013-01-04 14:33:00,
2013-01-04 09:34:00,31.4,25.4,30.06,NW,306,5.0,11.0,78,0.00,,,0.00,VWS V14.01,2013-01-04 14:34:00,
2013-01-04 09:35:00,31.4,25.4,30.06,SSW,194,2.0,11.0,78,0.00,,,0.00,VWS V14.01,2013-01-04 14:35:00,
2013-01-04 09:36:00,31.4,25.4,30.06,WNW,285,8.0,11.0,78,0.00,,,0.00,VWS V14.01,2013-01-04 14:36:00,
2013-01-04 09:37:00,31.4,25.4,30.06,West,264,6.0,11.0,78,0.00,,,0.00,VWS V14.01,2013-01-04 14:37:00,
2013-01-04 09:38:00,31.4,25.4,30.06,West,264,6.0,11.0,78,0.00,,,0.00,VWS V14.01,2013-01-04 14:38:00,
2013-01-04 09:39:00,31.4,25.0,30.06,WSW,252,4.0,11.0,77,0.00,,,0.00,VWS V14.01,2013-01-04 14:39:00,
2013-01-04 09:40:00,31.4,25.0,30.06,WSW,253,2.0,11.0,77,0.00,,,0.00,VWS V14.01,2013-01-04 14:40:00,
2013-01-04 09:41:00,31.4,25.0,30.06,West,270,1.0,4.0,77,0.00,,,0.00,VWS V14.01,2013-01-04 14:41:00,
2013-01-04 09:42:00,31.4,25.0,30.06,West,270,1.0,4.0,77,0.00,,,0.00,VWS V14.01,2013-01-04 14:42:00,
2013-01-04 09:43:00,31.4,25.0,30.06,West,270,1.0,4.0,77,0.00,,,0.00,VWS V14.01,2013-01-04 14:43:00,
2013-01-04 09:44:00,31.4,25.0,30.06,WSW,240,5.0,9.0,77,0.00,,,0.00,VWS V14.01,2013-01-04 14:44:00,
2013-01-04 09:45:00,31.4,25.0,30.06,WNW,296,6.0,9.0,77,0.00,,,0.00,VWS V14.01,2013-01-04 14:45:00,
2013-01-04 09:46:00,31.4,25.0,30.06,SW,236,11.0,14.0,77,0.00,,,0.00,VWS V14.01,2013-01-04 14:46:00,
2013-01-04 09:47:00,31.4,25.0,30.06,NNW,327,6.0,14.0,77,0.00,,,0.00,VWS V14.01,2013-01-04 14:47:00,
2013-01-04 09:48:00,31.4,25.0,30.06,NNW,327,6.0,14.0,77,0.00,,,0.00,VWS V14.01,2013-01-04 14:48:00,
2013-01-04 09:49:00,31.4,24.7,30.06,NW,317,2.0,14.0,76,0.00,,,0.00,VWS V14.01,2013-01-04 14:49:00,
2013-01-04 09:50:00,31.3,24.6,30.06,WNW,296,7.0,14.0,76,0.00,,,0.00,VWS V14.01,2013-01-04 14:50:00,
2013-01-04 09:51:00,31.3,24.6,30.06,North,360,4.0,7.0,76,0.00,,,0.00,VWS V14.01,2013-01-04 14:51:00,
2013-01-04 09:52:00,31.4,24.7,30.06,WNW,298,9.0,13.0,76,0.00,,,0.00,VWS V14.01,2013-01-04 14:52:00,
2013-01-04 09:53:00,31.3,24.6,30.06,WSW,257,7.0,13.0,76,0.00,,,0.00,VWS V14.01,2013-01-04 14:53:00,
2013-01-04 09:54:00,31.3,24.6,30.06,WSW,250,4.0,13.0,76,0.00,,,0.00,VWS V14.01,2013-01-04 14:54:00,
2013-01-04 09:55:00,31.3,24.6,30.06,West,267,4.0,13.0,76,0.00,,,0.00,VWS V14.01,2013-01-04 14:55:00,
2013-01-04 09:56:00,31.4,24.7,30.06,West,261,0.0,13.0,76,0.00,,,0.00,VWS V14.01,2013-01-04 14:56:00,
2013-01-04 09:57:00,31.4,24.7,30.06,West,261,0.0,13.0,76,0.00,,,0.00,VWS V14.01,2013-01-04 14:57:00,
2013-01-04 09:58:00,31.4,24.7,30.06,WSW,245,2.0,13.0,76,0.00,,,0.00,VWS V14.01,2013-01-04 14:58:00,
2013-01-04 09:59:00,31.4,24.7,30.06,WSW,245,1.0,13.0,76,0.00,,,0.00,VWS V14.01,2013-01-04 14:59:00,
2013-01-04 10:00:00,31.5,24.8,30.06,West,270,8.0,13.0,76,0.00,,,0.00,VWS V14.01,2013-01-04 15:00:00,
2013-01-04 10:01:00,31.5,24.5,30.06,WNW,286,7.0,9.0,75,0.00,,,0.00,VWS V14.01,2013-01-04 15:01:00,
2013-01-04 10:02:00,31.5,24.5,30.06,WSW,240,10.0,10.0,75,0.00,,,0.00,VWS V14.01,2013-01-04 15:02:00,
2013-01-04 10:03:00,31.5,24.5,30.06,WNW,288,1.0,10.0,75,0.00,,,0.00,VWS V14.01,2013-01-04 15:03:00,
2013-01-04 10:04:00,31.6,24.3,30.06,West,271,14.0,14.0,74,0.00,,,0.00,VWS V14.01,2013-01-04 15:04:00,
2013-01-04 10:05:00,31.6,24.3,30.06,WSW,248,6.0,14.0,74,0.00,,,0.00,VWS V14.01,2013-01-04 15:05:00,
2013-01-04 10:06:00,31.6,24.3,30.06,NNW,329,3.0,14.0,74,0.00,,,0.00,VWS V14.01,2013-01-04 15:06:00,
2013-01-04 10:07:00,31.6,24.3,30.06,WSW,238,5.0,14.0,74,0.00,,,0.00,VWS V14.01,2013-01-04 15:07:00,
2013-01-04 10:08:00,31.6,24.3,30.06,WSW,240,6.0,14.0,74,0.00,,,0.00,VWS V14.01,2013-01-04 15:08:00,
2013-01-04 10:09:00,31.6,24.3,30.06,NE,45,0.0,14.0,74,0.00,,,0.00,VWS V14.01,2013-01-04 15:09:00,
2013-01-04 10:10:00,31.6,24.3,30.06,WNW,288,9.0,14.0,74,0.00,,,0.00,VWS V14.01,2013-01-04 15:10:00,
2013-01-04 10:11:00,31.6,24.0,30.06,SW,214,3.0,5.0,73,0.00,,,0.00,VWS V14.01,2013-01-04 15:11:00,
2013-01-04 10:12:00,31.6,24.0,30.06,WSW,237,7.0,7.0,73,0.00,,,0.00,VWS V14.01,2013-01-04 15:12:00,
2013-01-04 10:13:00,31.6,24.0,30.06,WNW,282,4.0,7.0,73,0.00,,,0.00,VWS V14.01,2013-01-04 15:13:00,
2013-01-04 10:14:00,31.6,24.0,30.06,West,261,2.0,8.0,73,0.00,,,0.00,VWS V14.01,2013-01-04 15:14:00,
2013-01-04 10:15:00,31.6,24.0,30.06,WNW,291,0.0,8.0,73,0.00,,,0.00,VWS V14.01,2013-01-04 15:15:00,
2013-01-04 10:16:00,31.6,24.0,30.06,West,269,2.0,8.0,73,0.00,,,0.00,VWS V14.01,2013-01-04 15:16:00,
2013-01-04 10:17:00,31.6,24.0,30.06,West,276,6.0,8.0,73,0.00,,,0.00,VWS V14.01,2013-01-04 15:17:00,
2013-01-04 10:18:00,31.6,24.0,30.06,SW,229,9.0,9.0,73,0.00,,,0.00,VWS V14.01,2013-01-04 15:18:00,
2013-01-04 10:19:00,31.6,24.0,30.06,WNW,302,3.0,12.0,73,0.00,,,0.00,VWS V14.01,2013-01-04 15:19:00,
2013-01-04 10:20:00,31.6,24.0,30.06,SW,217,4.0,12.0,73,0.00,,,0.00,VWS V14.01,2013-01-04 15:20:00,
2013-01-04 10:21:00,31.6,24.0,30.06,West,262,7.0,8.0,73,0.00,,,0.00,VWS V14.01,2013-01-04 15:21:00,
2013-01-04 10:22:00,31.6,24.0,30.06,West,272,6.0,8.0,73,0.00,,,0.00,VWS V14.01,2013-01-04 15:22:00,
2013-01-04 10:23:00,31.6,24.0,30.06,West,272,6.0,8.0,73,0.00,,,0.00,VWS V14.01,2013-01-04 15:23:00,
2013-01-04 10:24:00,31.6,24.0,30.06,NW,317,1.0,9.0,73,0.00,,,0.00,VWS V14.01,2013-01-04 15:24:00,
2013-01-04 10:25:00,31.6,24.0,30.06,West,275,4.0,9.0,73,0.00,,,0.00,VWS V14.01,2013-01-04 15:25:00,
2013-01-04 10:26:00,31.6,24.0,30.06,NW,314,4.0,9.0,73,0.00,,,0.00,VWS V14.01,2013-01-04 15:26:00,
2013-01-04 10:27:00,31.6,24.0,30.06,NNW,334,3.0,9.0,73,0.00,,,0.00,VWS V14.01,2013-01-04 15:27:00,
2013-01-04 10:28:00,31.6,24.0,30.06,NNW,334,3.0,9.0,73,0.00,,,0.00,VWS V14.01,2013-01-04 15:28:00,
2013-01-04 10:29:00,31.7,24.0,30.06,North,9,10.0,10.0,73,0.00,,,0.00,VWS V14.01,2013-01-04 15:29:00,
2013-01-04 10:30:00,31.7,24.0,30.05,WNW,289,7.0,10.0,73,0.00,,,0.00,VWS V14.01,2013-01-04 15:30:00,
2013-01-04 10:31:00,31.7,24.0,30.05,SW,221,1.0,6.0,73,0.00,,,0.00,VWS V14.01,2013-01-04 15:31:00,
2013-01-04 10:32:00,31.7,24.0,30.05,WSW,257,6.0,6.0,73,0.00,,,0.00,VWS V14.01,2013-01-04 15:32:00,
2013-01-04 10:33:00,31.7,24.0,30.05,WSW,244,5.0,6.0,73,0.00,,,0.00,VWS V14.01,2013-01-04 15:33:00,
2013-01-04 10:34:00,31.7,24.0,30.05,WSW,251,5.0,6.0,73,0.00,,,0.00,VWS V14.01,2013-01-04 15:34:00,
2013-01-04 10:35:00,31.7,24.0,30.05,WNW,283,7.0,12.0,73,0.00,,,0.00,VWS V14.01,2013-01-04 15:35:00,
2013-01-04 10:36:00,31.6,23.6,30.05,SW,227,6.0,12.0,72,0.00,,,0.00,VWS V14.01,2013-01-04 15:36:00,
2013-01-04 10:37:00,31.6,23.6,30.05,West,281,5.0,13.0,72,0.00,,,0.00,VWS V14.01,2013-01-04 15:37:00,
2013-01-04 10:38:00,31.6,23.6,30.05,WNW,294,3.0,13.0,72,0.00,,,0.00,VWS V14.01,2013-01-04 15:38:00,
2013-01-04 10:39:00,31.6,23.6,30.05,WSW,256,8.0,13.0,72,0.00,,,0.00,VWS V14.01,2013-01-04 15:39:00,
2013-01-04 10:40:00,31.7,23.7,30.05,SW,219,4.0,13.0,72,0.00,,,0.00,VWS V14.01,2013-01-04 15:40:00,
2013-01-04 10:41:00,31.7,23.7,30.05,West,266,8.0,8.0,72,0.00,,,0.00,VWS V14.01,2013-01-04 15:41:00,
2013-01-04 10:42:00,31.7,23.7,30.05,WSW,251,2.0,8.0,72,0.00,,,0.00,VWS V14.01,2013-01-04 15:42:00,
2013-01-04 10:43:00,31.8,23.8,30.05,WSW,244,1.0,8.0,72,0.00,,,0.00,VWS V14.01,2013-01-04 15:43:00,
2013-01-04 10:44:00,31.8,23.8,30.05,West,277,6.0,8.0,72,0.00,,,0.00,VWS V14.01,2013-01-04 15:44:00,
2013-01-04 10:45:00,31.8,23.8,30.03,West,275,7.0,8.0,72,0.00,,,0.00,VWS V14.01,2013-01-04 15:45:00,
2013-01-04 10:46:00,31.8,23.8,30.03,WSW,252,7.0,9.0,72,0.00,,,0.00,VWS V14.01,2013-01-04 15:46:00,
2013-01-04 10:47:00,31.8,23.8,30.03,West,271,8.0,9.0,72,0.00,,,0.00,VWS V14.01,2013-01-04 15:47:00,
2013-01-04 10:48:00,31.8,23.8,30.03,SW,233,6.0,9.0,72,0.00,,,0.00,VWS V14.01,2013-01-04 15:48:00,
2013-01-04 10:49:00,31.9,23.9,30.03,SSE,168,2.0,9.0,72,0.00,,,0.00,VWS V14.01,2013-01-04 15:49:00,
2013-01-04 10:50:00,31.9,23.9,30.03,North,5,2.0,9.0,72,0.00,,,0.00,VWS V14.01,2013-01-04 15:50:00,
2013-01-04 10:51:00,32.0,24.0,30.03,West,268,3.0,12.0,72,0.00,,,0.00,VWS V14.01,2013-01-04 15:51:00,
2013-01-04 10:52:00,32.0,24.0,30.03,SSW,209,5.0,12.0,72,0.00,,,0.00,VWS V14.01,2013-01-04 15:52:00,
2013-01-04 10:53:00,32.0,24.0,30.03,West,275,4.0,12.0,72,0.00,,,0.00,VWS V14.01,2013-01-04 15:53:00,
2013-01-04 10:54:00,32.0,23.7,30.03,North,351,0.0,12.0,71,0.00,,,0.00,VWS V14.01,2013-01-04 15:54:00,
2013-01-04 10:55:00,32.0,23.7,30.03,West,267,4.0,12.0,71,0.00,,,0.00,VWS V14.01,2013-01-04 15:55:00,
2013-01-04 10:56:00,32.0,23.7,30.03,West,267,8.0,12.0,71,0.00,,,0.00,VWS V14.01,2013-01-04 15:56:00,
2013-01-04 10:57:00,32.0,23.7,30.03,WNW,292,7.0,12.0,71,0.00,,,0.00,VWS V14.01,2013-01-04 15:57:00,
2013-01-04 10:58:00,32.0,23.7,30.03,WNW,290,2.0,12.0,71,0.00,,,0.00,VWS V14.01,2013-01-04 15:58:00,
2013-01-04 10:59:00,32.0,23.7,30.03,WSW,258,3.0,12.0,71,0.00,,,0.00,VWS V14.01,2013-01-04 15:59:00,
2013-01-04 11:00:00,32.1,23.8,30.03,WSW,246,7.0,12.0,71,0.00,,,0.00,VWS V14.01,2013-01-04 16:00:00,
2013-01-04 11:01:00,32.1,23.8,30.03,West,263,17.0,17.0,71,0.00,,,0.00,VWS V14.01,2013-01-04 16:01:00,
2013-01-04 11:02:00,32.1,23.8,30.03,West,263,17.0,17.0,71,0.00,,,0.00,VWS V14.01,2013-01-04 16:02:00,
2013-01-04 11:03:00,32.1,23.8,30.03,West,263,17.0,17.0,71,0.00,,,0.00,VWS V14.01,2013-01-04 16:03:00,
2013-01-04 11:04:00,32.2,23.9,30.03,SSW,197,2.0,17.0,71,0.00,,,0.00,VWS V14.01,2013-01-04 16:04:00,
2013-01-04 11:05:00,32.2,23.9,30.03,SW,221,5.0,17.0,71,0.00,,,0.00,VWS V14.01,2013-01-04 16:05:00,
2013-01-04 11:06:00,32.2,23.9,30.03,WNW,289,8.0,17.0,71,0.00,,,0.00,VWS V14.01,2013-01-04 16:06:00,
2013-01-04 11:07:00,32.3,24.0,30.03,West,261,5.0,17.0,71,0.00,,,0.00,VWS V14.01,2013-01-04 16:07:00,
2013-01-04 11:08:00,32.3,24.0,30.03,West,261,5.0,17.0,71,0.00,,,0.00,VWS V14.01,2013-01-04 16:08:00,
2013-01-04 11:09:00,32.3,23.6,30.03,WNW,288,3.0,17.0,70,0.00,,,0.00,VWS V14.01,2013-01-04 16:09:00,
2013-01-04 11:10:00,32.3,23.6,30.03,WSW,254,5.0,17.0,70,0.00,,,0.00,VWS V14.01,2013-01-04 16:10:00,
2013-01-04 11:11:00,32.4,24.1,30.03,West,275,5.0,12.0,71,0.00,,,0.00,VWS V14.01,2013-01-04 16:11:00,
2013-01-04 11:12:00,32.4,24.1,30.03,WNW,301,1.0,12.0,71,0.00,,,0.00,VWS V14.01,2013-01-04 16:12:00,
2013-01-04 11:13:00,32.5,24.2,30.03,South,191,4.0,12.0,71,0.00,,,0.00,VWS V14.01,2013-01-04 16:13:00,
2013-01-04 11:14:00,32.5,24.2,30.03,WNW,290,11.0,12.0,71,0.00,,,0.00,VWS V14.01,2013-01-04 16:14:00,
2013-01-04 11:15:00,32.6,23.9,30.02,ENE,59,1.0,12.0,70,0.00,,,0.00,VWS V14.01,2013-01-04 16:15:00,
2013-01-04 11:16:00,32.7,24.0,30.02,WSW,249,5.0,12.0,70,0.00,,,0.00,VWS V14.01,2013-01-04 16:16:00,
2013-01-04 11:17:00,32.7,24.0,30.02,WSW,257,13.0,15.0,70,0.00,,,0.00,VWS V14.01,2013-01-04 16:17:00,
2013-01-04 11:18:00,32.8,24.1,30.02,West,259,2.0,15.0,70,0.00,,,0.00,VWS V14.01,2013-01-04 16:18:00,
2013-01-04 11:19:00,32.8,24.1,30.02,SSW,213,1.0,15.0,70,0.00,,,0.00,VWS V14.01,2013-01-04 16:19:00,
2013-01-04 11:20:00,32.9,24.2,30.02,WNW,287,5.0,15.0,70,0.00,,,0.00,VWS V14.01,2013-01-04 16:20:00,
2013-01-04 11:21:00,33.0,24.3,30.02,West,270,8.0,18.0,70,0.00,,,0.00,VWS V14.01,2013-01-04 16:21:00,
2013-01-04 11:22:00,33.0,24.3,30.02,SW,224,12.0,18.0,70,0.00,,,0.00,VWS V14.01,2013-01-04 16:22:00,
2013-01-04 11:23:00,33.0,24.0,30.02,NNW,342,9.0,18.0,69,0.00,,,0.00,VWS V14.01,2013-01-04 16:23:00,
2013-01-04 11:24:00,33.1,24.0,30.02,WNW,284,4.0,18.0,69,0.00,,,0.00,VWS V14.01,2013-01-04 16:24:00,
2013-01-04 11:25:00,33.1,24.0,30.02,West,259,2.0,18.0,69,0.00,,,0.00,VWS V14.01,2013-01-04 16:25:00,
2013-01-04 11:26:00,33.1,24.0,30.02,SW,234,4.0,18.0,69,0.00,,,0.00,VWS V14.01,2013-01-04 16:26:00,
2013-01-04 11:27:00,33.2,24.1,30.02,WSW,247,5.0,18.0,69,0.00,,,0.00,VWS V14.01,2013-01-04 16:27:00,
2013-01-04 11:28:00,33.2,24.1,30.02,WNW,300,3.0,18.0,69,0.00,,,0.00,VWS V14.01,2013-01-04 16:28:00,
2013-01-04 11:29:00,33.2,23.8,30.02,WSW,242,0.0,18.0,68,0.00,,,0.00,VWS V14.01,2013-01-04 16:29:00,
2013-01-04 11:30:00,33.2,24.1,30.00,South,185,0.0,18.0,69,0.00,,,0.00,VWS V14.01,2013-01-04 16:30:00,
2013-01-04 11:31:00,33.3,24.2,30.00,WNW,302,2.0,5.0,69,0.00,,,0.00,VWS V14.01,2013-01-04 16:31:00,
2013-01-04 11:32:00,33.3,24.2,30.00,NW,319,3.0,5.0,69,0.00,,,0.00,VWS V14.01,2013-01-04 16:32:00,
2013-01-04 11:33:00,33.4,24.0,30.00,WSW,248,12.0,12.0,68,0.00,,,0.00,VWS V14.01,2013-01-04 16:33:00,
2013-01-04 11:34:00,33.5,24.1,30.00,WNW,286,7.0,12.0,68,0.00,,,0.00,VWS V14.01,2013-01-04 16:34:00,
2013-01-04 11:35:00,33.6,24.2,30.00,NNW,327,4.0,12.0,68,0.00,,,0.00,VWS V14.01,2013-01-04 16:35:00,
2013-01-04 11:36:00,33.7,24.3,30.00,WNW,283,2.0,12.0,68,0.00,,,0.00,VWS V14.01,2013-01-04 16:36:00,
2013-01-04 11:37:00,33.7,24.3,30.00,WNW,283,2.0,12.0,68,0.00,,,0.00,VWS V14.01,2013-01-04 16:37:00,
2013-01-04 11:38:00,33.7,24.3,30.00,WNW,283,2.0,12.0,68,0.00,,,0.00,VWS V14.01,2013-01-04 16:38:00,
2013-01-04 11:39:00,34.0,24.6,30.00,SW,229,6.0,12.0,68,0.00,,,0.00,VWS V14.01,2013-01-04 16:39:00,
2013-01-04 11:40:00,34.1,24.3,30.00,NNE,25,2.0,12.0,67,0.00,,,0.00,VWS V14.01,2013-01-04 16:40:00,
2013-01-04 11:41:00,34.1,24.0,30.00,West,264,8.0,8.0,66,0.00,,,0.00,VWS V14.01,2013-01-04 16:41:00,
2013-01-04 11:42:00,34.1,24.0,30.00,WNW,300,7.0,8.0,66,0.00,,,0.00,VWS V14.01,2013-01-04 16:42:00,
2013-01-04 11:43:00,34.1,24.0,30.00,WNW,300,7.0,8.0,66,0.00,,,0.00,VWS V14.01,2013-01-04 16:43:00,
2013-01-04 11:44:00,34.2,24.0,30.00,West,272,4.0,8.0,66,0.00,,,0.00,VWS V14.01,2013-01-04 16:44:00,
2013-01-04 11:45:00,34.3,24.1,30.00,West,281,7.0,8.0,66,0.00,,,0.00,VWS V14.01,2013-01-04 16:45:00,
2013-01-04 11:46:00,34.4,24.2,30.00,West,265,4.0,8.0,66,0.00,,,0.00,VWS V14.01,2013-01-04 16:46:00,
2013-01-04 11:47:00,34.4,24.2,30.00,SSW,194,1.0,8.0,66,0.00,,,0.00,VWS V14.01,2013-01-04 16:47:00,
2013-01-04 11:48:00,34.5,24.0,30.00,West,277,7.0,8.0,65,0.00,,,0.00,VWS V14.01,2013-01-04 16:48:00,
2013-01-04 11:49:00,34.5,24.0,30.00,SW,234,2.0,8.0,65,0.00,,,0.00,VWS V14.01,2013-01-04 16:49:00,
2013-01-04 11:50:00,34.5,24.0,30.00,NNW,333,4.0,8.0,65,0.00,,,0.00,VWS V14.01,2013-01-04 16:50:00,
2013-01-04 11:51:00,34.5,24.0,30.00,WSW,246,5.0,9.0,65,0.00,,,0.00,VWS V14.01,2013-01-04 16:51:00,
2013-01-04 11:52:00,34.6,24.1,30.00,WNW,284,4.0,9.0,65,0.00,,,0.00,VWS V14.01,2013-01-04 16:52:00,
2013-01-04 11:53:00,34.7,24.1,30.00,SW,232,8.0,16.0,65,0.00,,,0.00,VWS V14.01,2013-01-04 16:53:00,
2013-01-04 11:54:00,34.7,23.8,30.00,WNW,284,6.0,16.0,64,0.00,,,0.00,VWS V14.01,2013-01-04 16:54:00,
2013-01-04 11:55:00,34.7,23.8,30.00,West,261,9.0,16.0,64,0.00,,,0.00,VWS V14.01,2013-01-04 16:55:00,
2013-01-04 11:56:00,34.8,24.2,30.00,WSW,250,11.0,16.0,65,0.00,,,0.00,VWS V14.01,2013-01-04 16:56:00,
2013-01-04 11:57:00,34.8,23.9,30.00,WSW,244,6.0,16.0,64,0.00,,,0.00,VWS V14.01,2013-01-04 16:57:00,
2013-01-04 11:58:00,34.9,24.0,30.00,SSW,206,1.0,16.0,64,0.00,,,0.00,VWS V14.01,2013-01-04 16:58:00,
2013-01-04 11:59:00,34.9,23.6,30.00,West,271,11.0,16.0,63,0.00,,,0.00,VWS V14.01,2013-01-04 16:59:00,
2013-01-04 12:00:00,34.9,23.6,29.99,WNW,287,8.0,16.0,63,0.00,,,0.00,VWS V14.01,2013-01-04 17:00:00,
2013-01-04 12:01:00,34.9,24.0,29.99,West,275,5.0,11.0,64,0.00,,,0.00,VWS V14.01,2013-01-04 17:01:00,
2013-01-04 12:02:00,34.8,23.9,29.99,West,279,9.0,13.0,64,0.00,,,0.00,VWS V14.01,2013-01-04 17:02:00,
2013-01-04 12:03:00,34.8,23.5,29.99,WNW,287,12.0,16.0,63,0.00,,,0.00,VWS V14.01,2013-01-04 17:03:00,
2013-01-04 12:04:00,34.8,23.5,29.99,West,273,5.0,16.0,63,0.00,,,0.00,VWS V14.01,2013-01-04 17:04:00,
2013-01-04 12:05:00,34.8,23.5,29.99,West,271,7.0,16.0,63,0.00,,,0.00,VWS V14.01,2013-01-04 17:05:00,
2013-01-04 12:06:00,34.8,23.5,29.99,SW,215,5.0,16.0,63,0.00,,,0.00,VWS V14.01,2013-01-04 17:06:00,
2013-01-04 12:07:00,34.8,23.5,29.99,WSW,250,10.0,16.0,63,0.00,,,0.00,VWS V14.01,2013-01-04 17:07:00,
2013-01-04 12:08:00,34.8,23.5,29.99,WSW,250,10.0,16.0,63,0.00,,,0.00,VWS V14.01,2013-01-04 17:08:00,
2013-01-04 12:09:00,34.9,23.6,29.99,WNW,294,10.0,16.0,63,0.00,,,0.00,VWS V14.01,2013-01-04 17:09:00,
2013-01-04 12:10:00,34.9,23.2,29.99,WSW,254,6.0,16.0,62,0.00,,,0.00,VWS V14.01,2013-01-04 17:10:00,
2013-01-04 12:11:00,34.9,23.2,29.99,West,263,5.0,9.0,62,0.00,,,0.00,VWS V14.01,2013-01-04 17:11:00,
2013-01-04 12:12:00,34.9,23.2,29.99,West,268,2.0,9.0,62,0.00,,,0.00,VWS V14.01,2013-01-04 17:12:00,
2013-01-04 12:13:00,34.9,23.2,29.99,West,268,2.0,9.0,62,0.00,,,0.00,VWS V14.01,2013-01-04 17:13:00,
2013-01-04 12:14:00,35.1,23.8,29.99,WNW,286,5.0,9.0,63,0.00,,,0.00,VWS V14.01,2013-01-04 17:14:00,
2013-01-04 12:15:00,35.2,23.9,29.99,WSW,251,10.0,10.0,63,0.00,,,0.00,VWS V14.01,2013-01-04 17:15:00,
2013-01-04 12:16:00,35.3,24.0,29.99,WSW,256,10.0,10.0,63,0.00,,,0.00,VWS V14.01,2013-01-04 17:16:00,
2013-01-04 12:17:00,35.3,23.6,29.99,WSW,254,6.0,10.0,62,0.00,,,0.00,VWS V14.01,2013-01-04 17:17:00,
2013-01-04 12:18:00,35.3,23.6,29.99,WSW,254,6.0,10.0,62,0.00,,,0.00,VWS V14.01,2013-01-04 17:18:00,
2013-01-04 12:19:00,35.3,23.2,29.99,West,261,6.0,10.0,61,0.00,,,0.00,VWS V14.01,2013-01-04 17:19:00,
2013-01-04 12:20:00,35.3,23.6,29.99,NNE,17,7.0,14.0,62,0.00,,,0.00,VWS V14.01,2013-01-04 17:20:00,
2013-01-04 12:21:00,35.3,23.2,29.99,West,272,8.0,12.0,61,0.00,,,0.00,VWS V14.01,2013-01-04 17:21:00,
2013-01-04 12:22:00,35.3,23.2,29.99,NW,304,7.0,12.0,61,0.00,,,0.00,VWS V14.01,2013-01-04 17:22:00,
2013-01-04 12:23:00,35.3,23.2,29.99,West,267,11.0,12.0,61,0.00,,,0.00,VWS V14.01,2013-01-04 17:23:00,
2013-01-04 12:24:00,35.3,23.2,29.99,WSW,238,9.0,12.0,61,0.00,,,0.00,VWS V14.01,2013-01-04 17:24:00,
2013-01-04 12:25:00,35.2,23.1,29.99,NW,321,10.0,12.0,61,0.00,,,0.00,VWS V14.01,2013-01-04 17:25:00,
2013-01-04 12:26:00,35.2,23.1,29.99,WSW,242,6.0,13.0,61,0.00,,,0.00,VWS V14.01,2013-01-04 17:26:00,
2013-01-04 12:27:00,35.2,23.1,29.99,WNW,292,6.0,13.0,61,0.00,,,0.00,VWS V14.01,2013-01-04 17:27:00,
2013-01-04 12:28:00,35.0,22.9,29.99,WSW,256,7.0,13.0,61,0.00,,,0.00,VWS V14.01,2013-01-04 17:28:00,
2013-01-04 12:29:00,35.0,22.9,29.99,WSW,258,1.0,13.0,61,0.00,,,0.00,VWS V14.01,2013-01-04 17:29:00,
2013-01-04 12:30:00,35.0,23.3,29.98,West,265,4.0,13.0,62,0.00,,,0.00,VWS V14.01,2013-01-04 17:30:00,
2013-01-04 12:31:00,35.0,23.3,29.98,West,267,5.0,9.0,62,0.00,,,0.00,VWS V14.01,2013-01-04 17:31:00,
2013-01-04 12:32:00,35.0,23.3,29.98,West,269,7.0,9.0,62,0.00,,,0.00,VWS V14.01,2013-01-04 17:32:00,
2013-01-04 12:33:00,34.9,22.8,29.98,NNW,329,2.0,9.0,61,0.00,,,0.00,VWS V14.01,2013-01-04 17:33:00,
2013-01-04 12:34:00,34.8,22.7,29.98,WSW,246,4.0,9.0,61,0.00,,,0.00,VWS V14.01,2013-01-04 17:34:00,
2013-01-04 12:35:00,34.9,23.2,29.98,WSW,252,5.0,9.0,62,0.00,,,0.00,VWS V14.01,2013-01-04 17:35:00,
2013-01-04 12:36:00,34.9,23.2,29.98,NNE,13,3.0,9.0,62,0.00,,,0.00,VWS V14.01,2013-01-04 17:36:00,
2013-01-04 12:37:00,34.9,23.2,29.98,NNE,13,0.0,9.0,62,0.00,,,0.00,VWS V14.01,2013-01-04 17:37:00,
2013-01-04 12:38:00,34.9,23.2,29.98,WSW,258,6.0,9.0,62,0.00,,,0.00,VWS V14.01,2013-01-04 17:38:00,
2013-01-04 12:39:00,34.9,22.8,29.98,WNW,295,5.0,15.0,61,0.00,,,0.00,VWS V14.01,2013-01-04 17:39:00,
2013-01-04 12:40:00,34.8,23.1,29.98,WSW,254,5.0,15.0,62,0.00,,,0.00,VWS V14.01,2013-01-04 17:40:00,
2013-01-04 12:41:00,34.8,23.1,29.98,SSW,206,6.0,14.0,62,0.00,,,0.00,VWS V14.01,2013-01-04 17:41:00,
2013-01-04 12:42:00,34.7,23.0,29.98,SW,217,3.0,14.0,62,0.00,,,0.00,VWS V14.01,2013-01-04 17:42:00,
2013-01-04 12:43:00,34.6,22.9,29.98,WSW,244,7.0,14.0,62,0.00,,,0.00,VWS V14.01,2013-01-04 17:43:00,
2013-01-04 12:44:00,34.5,22.8,29.98,NW,306,4.0,14.0,62,0.00,,,0.00,VWS V14.01,2013-01-04 17:44:00,
2013-01-04 12:45:00,34.4,22.7,29.97,West,271,3.0,14.0,62,0.00,,,0.00,VWS V14.01,2013-01-04 17:45:00,
2013-01-04 12:46:00,34.4,22.7,29.97,West,269,9.0,14.0,62,0.00,,,0.00,VWS V14.01,2013-01-04 17:46:00,
2013-01-04 12:47:00,34.4,22.7,29.97,SW,233,6.0,14.0,62,0.00,,,0.00,VWS V14.01,2013-01-04 17:47:00,
2013-01-04 12:48:00,34.4,22.7,29.97,SW,233,6.0,14.0,62,0.00,,,0.00,VWS V14.01,2013-01-04 17:48:00,
2013-01-04 12:49:00,34.2,22.5,29.97,WSW,246,4.0,14.0,62,0.00,,,0.00,VWS V14.01,2013-01-04 17:49:00,
2013-01-04 12:50:00,34.2,22.9,29.97,WSW,246,7.0,14.0,63,0.00,,,0.00,VWS V14.01,2013-01-04 17:50:00,
2013-01-04 12:51:00,34.2,22.9,29.97,NW,321,3.0,7.0,63,0.00,,,0.00,VWS V14.01,2013-01-04 17:51:00,
2013-01-04 12:52:00,34.2,22.9,29.97,SW,229,4.0,7.0,63,0.00,,,0.00,VWS V14.01,2013-01-04 17:52:00,
2013-01-04 12:53:00,34.2,22.9,29.97,SW,229,4.0,7.0,63,0.00,,,0.00,VWS V14.01,2013-01-04 17:53:00,
2013-01-04 12:54:00,34.2,22.9,29.97,WNW,300,5.0,16.0,63,0.00,,,0.00,VWS V14.01,2013-01-04 17:54:00,
2013-01-04 12:55:00,34.2,22.9,29.97,WNW,292,3.0,16.0,63,0.00,,,0.00,VWS V14.01,2013-01-04 17:55:00,
2013-01-04 12:56:00,34.2,22.5,29.97,NW,308,5.0,16.0,62,0.00,,,0.00,VWS V14.01,2013-01-04 17:56:00,
2013-01-04 12:57:00,34.2,22.9,29.97,NW,308,2.0,16.0,63,0.00,,,0.00,VWS V14.01,2013-01-04 17:57:00,
2013-01-04 12:58:00,34.3,23.0,29.97,SW,234,3.0,16.0,63,0.00,,,0.00,VWS V14.01,2013-01-04 17:58:00,
2013-01-04 12:59:00,34.3,23.0,29.97,SW,234,2.0,16.0,63,0.00,,,0.00,VWS V14.01,2013-01-04 17:59:00,
2013-01-04 13:00:00,34.4,23.1,29.97,West,271,4.0,16.0,63,0.00,,,0.00,VWS V14.01,2013-01-04 18:00:00,
2013-01-04 13:01:00,34.4,23.1,29.97,West,261,3.0,5.0,63,0.00,,,0.00,VWS V14.01,2013-01-04 18:01:00,
2013-01-04 13:02:00,34.4,23.1,29.97,SW,221,3.0,5.0,63,0.00,,,0.00,VWS V14.01,2013-01-04 18:02:00,
2013-01-04 13:03:00,34.5,23.2,29.97,SW,223,8.0,10.0,63,0.00,,,0.00,VWS V14.01,2013-01-04 18:03:00,
2013-01-04 13:04:00,34.5,23.2,29.97,WSW,253,8.0,10.0,63,0.00,,,0.00,VWS V14.01,2013-01-04 18:04:00,
2013-01-04 13:05:00,34.5,23.2,29.97,WSW,240,7.0,13.0,63,0.00,,,0.00,VWS V14.01,2013-01-04 18:05:00,
2013-01-04 13:06:00,34.6,23.3,29.97,WNW,303,1.0,13.0,63,0.00,,,0.00,VWS V14.01,2013-01-04 18:06:00,
2013-01-04 13:07:00,34.5,23.2,29.97,WNW,293,3.0,13.0,63,0.00,,,0.00,VWS V14.01,2013-01-04 18:07:00,
2013-01-04 13:08:00,34.6,23.3,29.97,SSE,163,2.0,13.0,63,0.00,,,0.00,VWS V14.01,2013-01-04 18:08:00,
2013-01-04 13:09:00,34.6,23.3,29.97,West,281,10.0,13.0,63,0.00,,,0.00,VWS V14.01,2013-01-04 18:09:00,
2013-01-04 13:10:00,34.6,23.3,29.97,SW,229,5.0,13.0,63,0.00,,,0.00,VWS V14.01,2013-01-04 18:10:00,
2013-01-04 13:11:00,34.6,23.3,29.97,West,279,2.0,6.0,63,0.00,,,0.00,VWS V14.01,2013-01-04 18:11:00,
2013-01-04 13:12:00,34.7,23.4,29.97,West,278,1.0,6.0,63,0.00,,,0.00,VWS V14.01,2013-01-04 18:12:00,
2013-01-04 13:13:00,34.6,23.3,29.97,SW,232,6.0,7.0,63,0.00,,,0.00,VWS V14.01,2013-01-04 18:13:00,
2013-01-04 13:14:00,34.6,22.9,29.97,WSW,257,5.0,16.0,62,0.00,,,0.00,VWS V14.01,2013-01-04 18:14:00,
2013-01-04 13:15:00,34.6,22.9,29.96,NNW,348,7.0,16.0,62,0.00,,,0.00,VWS V14.01,2013-01-04 18:15:00,
2013-01-04 13:16:00,34.6,22.9,29.96,WSW,240,3.0,16.0,62,0.00,,,0.00,VWS V14.01,2013-01-04 18:16:00,
2013-01-04 13:17:00,34.6,22.9,29.96,WSW,240,1.0,16.0,62,0.00,,,0.00,VWS V14.01,2013-01-04 18:17:00,
2013-01-04 13:18:00,34.5,23.2,29.96,West,277,14.0,21.0,63,0.00,,,0.00,VWS V14.01,2013-01-04 18:18:00,
2013-01-04 13:19:00,34.4,22.7,29.96,West,269,16.0,21.0,62,0.00,,,0.00,VWS V14.01,2013-01-04 18:19:00,
2013-01-04 13:20:00,34.4,22.7,29.96,WNW,283,3.0,21.0,62,0.00,,,0.00,VWS V14.01,2013-01-04 18:20:00,
2013-01-04 13:21:00,34.4,23.1,29.96,West,265,6.0,7.0,63,0.00,,,0.00,VWS V14.01,2013-01-04 18:21:00,
2013-01-04 13:22:00,34.3,23.0,29.96,WSW,238,11.0,12.0,63,0.00,,,0.00,VWS V14.01,2013-01-04 18:22:00,
2013-01-04 13:23:00,34.3,23.0,29.96,WSW,238,11.0,12.0,63,0.00,,,0.00,VWS V14.01,2013-01-04 18:23:00,
2013-01-04 13:24:00,34.3,22.6,29.96,South,190,7.0,12.0,62,0.00,,,0.00,VWS V14.01,2013-01-04 18:24:00,
2013-01-04 13:25:00,34.3,23.0,29.96,West,266,8.0,12.0,63,0.00,,,0.00,VWS V14.01,2013-01-04 18:25:00,
2013-01-04 13:26:00,34.3,23.0,29.96,South,191,1.0,12.0,63,0.00,,,0.00,VWS V14.01,2013-01-04 18:26:00,
2013-01-04 13:27:00,34.3,23.0,29.96,SSW,204,2.0,12.0,63,0.00,,,0.00,VWS V14.01,2013-01-04 18:27:00,
2013-01-04 13:28:00,34.3,23.0,29.96,SSW,204,2.0,12.0,63,0.00,,,0.00,VWS V14.01,2013-01-04 18:28:00,
2013-01-04 13:29:00,34.4,23.1,29.96,WSW,257,13.0,14.0,63,0.00,,,0.00,VWS V14.01,2013-01-04 18:29:00,
2013-01-04 13:30:00,34.4,23.1,29.96,West,264,9.0,14.0,63,0.00,,,0.00,VWS V14.01,2013-01-04 18:30:00,
2013-01-04 13:31:00,34.4,23.1,29.96,WSW,249,8.0,12.0,63,0.00,,,0.00,VWS V14.01,2013-01-04 18:31:00,
2013-01-04 13:32:00,34.4,23.1,29.96,West,263,2.0,12.0,63,0.00,,,0.00,VWS V14.01,2013-01-04 18:32:00,
2013-01-04 13:33:00,34.4,23.1,29.96,WSW,250,8.0,12.0,63,0.00,,,0.00,VWS V14.01,2013-01-04 18:33:00,
2013-01-04 13:34:00,34.4,23.1,29.96,WSW,245,5.0,12.0,63,0.00,,,0.00,VWS V14.01,2013-01-04 18:34:00,
2013-01-04 13:35:00,34.5,23.2,29.96,SW,234,2.0,12.0,63,0.00,,,0.00,VWS V14.01,2013-01-04 18:35:00,
2013-01-04 13:36:00,34.5,23.2,29.96,SE,128,1.0,12.0,63,0.00,,,0.00,VWS V14.01,2013-01-04 18:36:00,
2013-01-04 13:37:00,34.5,23.2,29.96,WNW,284,4.0,12.0,63,0.00,,,0.00,VWS V14.01,2013-01-04 18:37:00,
2013-01-04 13:38:00,34.6,23.3,29.96,WSW,258,8.0,12.0,63,0.00,,,0.00,VWS V14.01,2013-01-04 18:38:00,
2013-01-04 13:39:00,34.6,23.3,29.96,North,355,6.0,12.0,63,0.00,,,0.00,VWS V14.01,2013-01-04 18:39:00,
2013-01-04 13:40:00,34.6,23.3,29.96,WNW,286,5.0,13.0,63,0.00,,,0.00,VWS V14.01,2013-01-04 18:40:00,
2013-01-04 13:41:00,34.7,23.4,29.96,SW,217,2.0,7.0,63,0.00,,,0.00,VWS V14.01,2013-01-04 18:41:00,
2013-01-04 13:42:00,34.7,23.4,29.96,South,174,1.0,7.0,63,0.00,,,0.00,VWS V14.01,2013-01-04 18:42:00,
2013-01-04 13:43:00,34.7,23.0,29.96,North,355,4.0,13.0,62,0.00,,,0.00,VWS V14.01,2013-01-04 18:43:00,
2013-01-04 13:44:00,34.7,23.0,29.96,West,267,16.0,16.0,62,0.00,,,0.00,VWS V14.01,2013-01-04 18:44:00,
2013-01-04 13:45:00,34.7,23.0,29.95,NNW,337,11.0,16.0,62,0.00,,,0.00,VWS V14.01,2013-01-04 18:45:00,
2013-01-04 13:46:00,34.7,23.0,29.95,SW,235,9.0,16.0,62,0.00,,,0.00,VWS V14.01,2013-01-04 18:46:00,
2013-01-04 13:47:00,34.7,23.0,29.95,West,277,9.0,16.0,62,0.00,,,0.00,VWS V14.01,2013-01-04 18:47:00,
2013-01-04 13:48:00,34.6,22.9,29.95,West,267,3.0,16.0,62,0.00,,,0.00,VWS V14.01,2013-01-04 18:48:00,
2013-01-04 13:49:00,34.6,22.9,29.95,West,266,7.0,16.0,62,0.00,,,0.00,VWS V14.01,2013-01-04 18:49:00,
2013-01-04 13:50:00,34.7,23.0,29.95,West,261,1.0,16.0,62,0.00,,,0.00,VWS V14.01,2013-01-04 18:50:00,
2013-01-04 13:51:00,34.7,23.0,29.95,West,270,6.0,14.0,62,0.00,,,0.00,VWS V14.01,2013-01-04 18:51:00,
2013-01-04 13:52:00,34.7,23.0,29.95,WSW,250,9.0,14.0,62,0.00,,,0.00,VWS V14.01,2013-01-04 18:52:00,
2013-01-04 13:53:00,34.7,23.0,29.95,NNW,331,4.0,14.0,62,0.00,,,0.00,VWS V14.01,2013-01-04 18:53:00,
2013-01-04 13:54:00,34.7,23.0,29.95,West,267,8.0,14.0,62,0.00,,,0.00,VWS V14.01,2013-01-04 18:54:00,
2013-01-04 13:55:00,34.6,22.9,29.95,WSW,252,4.0,14.0,62,0.00,,,0.00,VWS V14.01,2013-01-04 18:55:00,
2013-01-04 13:56:00,34.6,22.9,29.95,East,99,2.0,14.0,62,0.00,,,0.00,VWS V14.01,2013-01-04 18:56:00,
2013-01-04 13:57:00,34.6,23.3,29.95,SSW,205,3.0,14.0,63,0.00,,,0.00,VWS V14.01,2013-01-04 18:57:00,
2013-01-04 13:58:00,34.6,23.3,29.95,WSW,240,3.0,14.0,63,0.00,,,0.00,VWS V14.01,2013-01-04 18:58:00,
2013-01-04 13:59:00,34.6,23.3,29.95,WSW,250,3.0,14.0,63,0.00,,,0.00,VWS V14.01,2013-01-04 18:59:00,
2013-01-04 14:00:00,34.6,23.3,29.95,West,279,5.0,14.0,63,0.00,,,0.00,VWS V14.01,2013-01-04 19:00:00,
2013-01-04 14:01:00,34.6,23.3,29.95,SSW,202,7.0,8.0,63,0.00,,,0.00,VWS V14.01,2013-01-04 19:01:00,
2013-01-04 14:02:00,34.7,23.4,29.95,SSW,213,3.0,8.0,63,0.00,,,0.00,VWS V14.01,2013-01-04 19:02:00,
2013-01-04 14:03:00,34.7,23.4,29.95,SSW,213,3.0,8.0,63,0.00,,,0.00,VWS V14.01,2013-01-04 19:03:00,
2013-01-04 14:04:00,34.7,23.4,29.95,WNW,284,2.0,10.0,63,0.00,,,0.00,VWS V14.01,2013-01-04 19:04:00,
2013-01-04 14:05:00,34.7,23.4,29.95,WSW,240,6.0,10.0,63,0.00,,,0.00,VWS V14.01,2013-01-04 19:05:00,
2013-01-04 14:06:00,34.7,23.4,29.95,WSW,258,10.0,10.0,63,0.00,,,0.00,VWS V14.01,2013-01-04 19:06:00,
2013-01-04 14:07:00,34.7,23.4,29.95,WNW,285,10.0,10.0,63,0.00,,,0.00,VWS V14.01,2013-01-04 19:07:00,
2013-01-04 14:08:00,34.7,23.4,29.95,WNW,285,10.0,10.0,63,0.00,,,0.00,VWS V14.01,2013-01-04 19:08:00,
2013-01-04 14:09:00,34.7,23.4,29.95,West,264,6.0,10.0,63,0.00,,,0.00,VWS V14.01,2013-01-04 19:09:00,
2013-01-04 14:10:00,34.6,22.9,29.95,WSW,249,7.0,10.0,62,0.00,,,0.00,VWS V14.01,2013-01-04 19:10:00,
2013-01-04 14:11:00,34.6,23.3,29.95,West,263,9.0,16.0,63,0.00,,,0.00,VWS V14.01,2013-01-04 19:11:00,
2013-01-04 14:12:00,34.6,22.9,29.95,SW,219,8.0,16.0,62,0.00,,,0.00,VWS V14.01,2013-01-04 19:12:00,
2013-01-04 14:13:00,34.5,23.2,29.95,West,267,4.0,16.0,63,0.00,,,0.00,VWS V14.01,2013-01-04 19:13:00,
2013-01-04 14:14:00,34.5,23.2,29.95,West,273,12.0,16.0,63,0.00,,,0.00,VWS V14.01,2013-01-04 19:14:00,
2013-01-04 14:15:00,34.5,23.2,29.95,NW,314,4.0,16.0,63,0.00,,,0.00,VWS V14.01,2013-01-04 19:15:00,
2013-01-04 14:16:00,34.4,23.1,29.95,West,279,2.0,16.0,63,0.00,,,0.00,VWS V14.01,2013-01-04 19:16:00,
2013-01-04 14:17:00,34.4,23.1,29.95,WSW,250,4.0,16.0,63,0.00,,,0.00,VWS V14.01,2013-01-04 19:17:00,
2013-01-04 14:18:00,34.4,23.1,29.95,SW,227,6.0,16.0,63,0.00,,,0.00,VWS V14.01,2013-01-04 19:18:00,
2013-01-04 14:19:00,34.4,23.1,29.95,South,178,5.0,16.0,63,0.00,,,0.00,VWS V14.01,2013-01-04 19:19:00,
2013-01-04 14:20:00,34.4,23.1,29.95,NW,324,4.0,16.0,63,0.00,,,0.00,VWS V14.01,2013-01-04 19:20:00,
2013-01-04 14:21:00,34.4,23.1,29.95,SSW,209,3.0,12.0,63,0.00,,,0.00,VWS V14.01,2013-01-04 19:21:00,
2013-01-04 14:22:00,34.4,23.1,29.95,SSW,209,2.0,12.0,63,0.00,,,0.00,VWS V14.01,2013-01-04 19:22:00,
2013-01-04 14:23:00,34.4,23.1,29.95,WNW,284,10.0,12.0,63,0.00,,,0.00,VWS V14.01,2013-01-04 19:23:00,
2013-01-04 14:24:00,34.4,23.1,29.95,West,269,7.0,12.0,63,0.00,,,0.00,VWS V14.01,2013-01-04 19:24:00,
2013-01-04 14:25:00,34.3,23.0,29.95,West,261,9.0,12.0,63,0.00,,,0.00,VWS V14.01,2013-01-04 19:25:00,
2013-01-04 14:26:00,34.3,23.0,29.95,WNW,298,1.0,12.0,63,0.00,,,0.00,VWS V14.01,2013-01-04 19:26:00,
2013-01-04 14:27:00,34.3,23.0,29.95,West,261,10.0,12.0,63,0.00,,,0.00,VWS V14.01,2013-01-04 19:27:00,
2013-01-04 14:28:00,34.3,23.0,29.95,WSW,257,8.0,12.0,63,0.00,,,0.00,VWS V14.01,2013-01-04 19:28:00,
2013-01-04 14:29:00,34.2,22.9,29.95,West,260,6.0,12.0,63,0.00,,,0.00,VWS V14.01,2013-01-04 19:29:00,
2013-01-04 14:30:00,34.2,22.9,29.94,SW,233,4.0,12.0,63,0.00,,,0.00,VWS V14.01,2013-01-04 19:30:00,
2013-01-04 14:31:00,34.3,23.0,29.94,NW,317,4.0,9.0,63,0.00,,,0.00,VWS V14.01,2013-01-04 19:31:00,
2013-01-04 14:32:00,34.3,23.0,29.94,WSW,245,4.0,9.0,63,0.00,,,0.00,VWS V14.01,2013-01-04 19:32:00,
2013-01-04 14:33:00,34.3,23.0,29.94,WSW,256,2.0,9.0,63,0.00,,,0.00,VWS V14.01,2013-01-04 19:33:00,
2013-01-04 14:34:00,34.3,23.0,29.94,SSW,198,3.0,9.0,63,0.00,,,0.00,VWS V14.01,2013-01-04 19:34:00,
2013-01-04 14:35:00,34.3,23.4,29.94,WSW,256,10.0,12.0,64,0.00,,,0.00,VWS V14.01,2013-01-04 19:35:00,
2013-01-04 14:36:00,34.3,23.4,29.94,WSW,254,8.0,12.0,64,0.00,,,0.00,VWS V14.01,2013-01-04 19:36:00,
2013-01-04 14:37:00,34.3,23.0,29.94,West,264,12.0,12.0,63,0.00,,,0.00,VWS V14.01,2013-01-04 19:37:00,
2013-01-04 14:38:00,34.3,23.0,29.94,West,264,12.0,12.0,63,0.00,,,0.00,VWS V14.01,2013-01-04 19:38:00,
2013-01-04 14:39:00,34.3,23.0,29.94,SW,224,6.0,12.0,63,0.00,,,0.00,VWS V14.01,2013-01-04 19:39:00,
2013-01-04 14:40:00,34.3,23.0,29.94,SW,235,8.0,12.0,63,0.00,,,0.00,VWS V14.01,2013-01-04 19:40:00,
2013-01-04 14:41:00,34.3,23.0,29.94,West,264,8.0,9.0,63,0.00,,,0.00,VWS V14.01,2013-01-04 19:41:00,
2013-01-04 14:42:00,34.3,23.0,29.94,WSW,257,3.0,9.0,63,0.00,,,0.00,VWS V14.01,2013-01-04 19:42:00,
2013-01-04 14:43:00,34.3,23.0,29.94,WSW,257,3.0,9.0,63,0.00,,,0.00,VWS V14.01,2013-01-04 19:43:00,
2013-01-04 14:44:00,34.3,23.4,29.94,WNW,286,5.0,9.0,64,0.00,,,0.00,VWS V14.01,2013-01-04 19:44:00,
2013-01-04 14:45:00,34.3,23.4,29.95,SW,231,8.0,11.0,64,0.00,,,0.00,VWS V14.01,2013-01-04 19:45:00,
2013-01-04 14:46:00,34.3,23.4,29.95,West,265,5.0,11.0,64,0.00,,,0.00,VWS V14.01,2013-01-04 19:46:00,
2013-01-04 14:47:00,34.2,23.3,29.95,West,266,7.0,11.0,64,0.00,,,0.00,VWS V14.01,2013-01-04 19:47:00,
2013-01-04 14:48:00,34.2,22.9,29.95,West,265,1.0,11.0,63,0.00,,,0.00,VWS V14.01,2013-01-04 19:48:00,
2013-01-04 14:49:00,34.2,22.9,29.95,West,263,5.0,11.0,63,0.00,,,0.00,VWS V14.01,2013-01-04 19:49:00,
2013-01-04 14:50:00,34.2,23.3,29.95,West,262,6.0,11.0,64,0.00,,,0.00,VWS V14.01,2013-01-04 19:50:00,
2013-01-04 14:51:00,34.2,22.9,29.95,WNW,290,2.0,10.0,63,0.00,,,0.00,VWS V14.01,2013-01-04 19:51:00,
2013-01-04 14:52:00,34.2,23.3,29.95,West,281,4.0,10.0,64,0.00,,,0.00,VWS V14.01,2013-01-04 19:52:00,
2013-01-04 14:53:00,34.2,23.3,29.95,WSW,238,4.0,10.0,64,0.00,,,0.00,VWS V14.01,2013-01-04 19:53:00,
2013-01-04 14:54:00,34.2,23.3,29.95,West,271,5.0,10.0,64,0.00,,,0.00,VWS V14.01,2013-01-04 19:54:00,
2013-01-04 14:55:00,34.1,23.2,29.95,West,269,3.0,10.0,64,0.00,,,0.00,VWS V14.01,2013-01-04 19:55:00,
2013-01-04 14:56:00,34.1,23.2,29.95,WSW,258,4.0,15.0,64,0.00,,,0.00,VWS V14.01,2013-01-04 19:56:00,
2013-01-04 14:57:00,34.1,23.2,29.95,West,263,8.0,15.0,64,0.00,,,0.00,VWS V14.01,2013-01-04 19:57:00,
2013-01-04 14:58:00,34.1,23.2,29.95,West,263,8.0,15.0,64,0.00,,,0.00,VWS V14.01,2013-01-04 19:58:00,
2013-01-04 14:59:00,34.1,23.2,29.95,SW,226,6.0,15.0,64,0.00,,,0.00,VWS V14.01,2013-01-04 19:59:00,
2013-01-04 15:00:00,34.1,23.2,29.94,West,261,3.0,15.0,64,0.00,,,0.00,VWS V14.01,2013-01-04 20:00:00,
2013-01-04 15:01:00,34.1,23.2,29.94,SW,230,6.0,6.0,64,0.00,,,0.00,VWS V14.01,2013-01-04 20:01:00,
2013-01-04 15:02:00,34.1,23.2,29.94,WSW,246,9.0,9.0,64,0.00,,,0.00,VWS V14.01,2013-01-04 20:02:00,
2013-01-04 15:03:00,34.1,23.2,29.94,WSW,246,9.0,9.0,64,0.00,,,0.00,VWS V14.01,2013-01-04 20:03:00,
2013-01-04 15:04:00,34.0,23.1,29.94,West,263,2.0,9.0,64,0.00,,,0.00,VWS V14.01,2013-01-04 20:04:00,
2013-01-04 15:05:00,34.1,23.2,29.94,West,266,7.0,9.0,64,0.00,,,0.00,VWS V14.01,2013-01-04 20:05:00,
2013-01-04 15:06:00,34.0,23.1,29.94,West,269,4.0,10.0,64,0.00,,,0.00,VWS V14.01,2013-01-04 20:06:00,
2013-01-04 15:07:00,34.0,23.1,29.94,West,275,4.0,10.0,64,0.00,,,0.00,VWS V14.01,2013-01-04 20:07:00,
2013-01-04 15:08:00,33.9,23.0,29.94,West,259,0.0,10.0,64,0.00,,,0.00,VWS V14.01,2013-01-04 20:08:00,
2013-01-04 15:09:00,34.0,23.1,29.94,West,273,3.0,10.0,64,0.00,,,0.00,VWS V14.01,2013-01-04 20:09:00,
2013-01-04 15:10:00,33.9,23.0,29.94,WSW,253,3.0,10.0,64,0.00,,,0.00,VWS V14.01,2013-01-04 20:10:00,
2013-01-04 15:11:00,33.9,23.0,29.94,West,269,6.0,13.0,64,0.00,,,0.00,VWS V14.01,2013-01-04 20:11:00,
2013-01-04 15:12:00,33.9,23.0,29.94,WSW,237,5.0,13.0,64,0.00,,,0.00,VWS V14.01,2013-01-04 20:12:00,
2013-01-04 15:13:00,33.9,23.0,29.94,West,263,2.0,13.0,64,0.00,,,0.00,VWS V14.01,2013-01-04 20:13:00,
2013-01-04 15:14:00,33.9,23.0,29.94,West,259,5.0,13.0,64,0.00,,,0.00,VWS V14.01,2013-01-04 20:14:00,
2013-01-04 15:15:00,33.9,23.0,29.95,WNW,288,4.0,13.0,64,0.00,,,0.00,VWS V14.01,2013-01-04 20:15:00,
2013-01-04 15:16:00,33.9,23.0,29.95,SSW,212,6.0,13.0,64,0.00,,,0.00,VWS V14.01,2013-01-04 20:16:00,
2013-01-04 15:17:00,33.9,23.0,29.95,WSW,242,5.0,13.0,64,0.00,,,0.00,VWS V14.01,2013-01-04 20:17:00,
2013-01-04 15:18:00,33.8,22.9,29.95,West,277,9.0,13.0,64,0.00,,,0.00,VWS V14.01,2013-01-04 20:18:00,
2013-01-04 15:19:00,33.8,23.3,29.95,West,277,2.0,13.0,65,0.00,,,0.00,VWS V14.01,2013-01-04 20:19:00,
2013-01-04 15:20:00,33.8,23.3,29.95,West,263,8.0,13.0,65,0.00,,,0.00,VWS V14.01,2013-01-04 20:20:00,
2013-01-04 15:21:00,33.8,23.3,29.95,West,267,6.0,10.0,65,0.00,,,0.00,VWS V14.01,2013-01-04 20:21:00,
2013-01-04 15:22:00,33.8,23.3,29.95,NW,319,4.0,10.0,65,0.00,,,0.00,VWS V14.01,2013-01-04 20:22:00,
2013-01-04 15:23:00,33.7,23.2,29.95,West,266,4.0,10.0,65,0.00,,,0.00,VWS V14.01,2013-01-04 20:23:00,
2013-01-04 15:24:00,33.7,23.2,29.95,WSW,257,1.0,10.0,65,0.00,,,0.00,VWS V14.01,2013-01-04 20:24:00,
2013-01-04 15:25:00,33.7,23.2,29.95,WSW,248,5.0,11.0,65,0.00,,,0.00,VWS V14.01,2013-01-04 20:25:00,
2013-01-04 15:26:00,33.7,23.2,29.95,West,271,7.0,11.0,65,0.00,,,0.00,VWS V14.01,2013-01-04 20:26:00,
2013-01-04 15:27:00,33.6,23.1,29.95,West,269,6.0,11.0,65,0.00,,,0.00,VWS V14.01,2013-01-04 20:27:00,
2013-01-04 15:28:00,33.6,23.1,29.95,West,278,3.0,11.0,65,0.00,,,0.00,VWS V14.01,2013-01-04 20:28:00,
2013-01-04 15:29:00,33.5,23.0,29.95,SW,227,6.0,12.0,65,0.00,,,0.00,VWS V14.01,2013-01-04 20:29:00,
2013-01-04 15:30:00,33.5,23.0,29.94,West,267,11.0,12.0,65,0.00,,,0.00,VWS V14.01,2013-01-04 20:30:00,
2013-01-04 15:31:00,33.5,23.0,29.94,SSW,205,5.0,8.0,65,0.00,,,0.00,VWS V14.01,2013-01-04 20:31:00,
2013-01-04 15:32:00,33.5,23.0,29.94,West,260,6.0,8.0,65,0.00,,,0.00,VWS V14.01,2013-01-04 20:32:00,
2013-01-04 15:33:00,33.5,23.0,29.94,West,260,6.0,8.0,65,0.00,,,0.00,VWS V14.01,2013-01-04 20:33:00,
2013-01-04 15:34:00,33.5,23.0,29.94,West,265,3.0,8.0,65,0.00,,,0.00,VWS V14.01,2013-01-04 20:34:00,
2013-01-04 15:35:00,33.5,23.0,29.94,SW,234,6.0,8.0,65,0.00,,,0.00,VWS V14.01,2013-01-04 20:35:00,
2013-01-04 15:36:00,33.4,22.9,29.94,West,259,10.0,14.0,65,0.00,,,0.00,VWS V14.01,2013-01-04 20:36:00,
2013-01-04 15:37:00,33.4,22.9,29.94,West,265,9.0,14.0,65,0.00,,,0.00,VWS V14.01,2013-01-04 20:37:00,
2013-01-04 15:38:00,33.4,22.9,29.94,West,265,9.0,14.0,65,0.00,,,0.00,VWS V14.01,2013-01-04 20:38:00,
2013-01-04 15:39:00,33.4,22.9,29.94,WSW,246,6.0,14.0,65,0.00,,,0.00,VWS V14.01,2013-01-04 20:39:00,
2013-01-04 15:40:00,33.4,22.9,29.94,West,265,8.0,14.0,65,0.00,,,0.00,VWS V14.01,2013-01-04 20:40:00,
2013-01-04 15:41:00,33.4,22.9,29.94,WSW,252,9.0,14.0,65,0.00,,,0.00,VWS V14.01,2013-01-04 20:41:00,
2013-01-04 15:42:00,33.4,22.9,29.94,WSW,254,8.0,14.0,65,0.00,,,0.00,VWS V14.01,2013-01-04 20:42:00,
2013-01-04 15:43:00,33.4,22.9,29.94,WSW,254,8.0,14.0,65,0.00,,,0.00,VWS V14.01,2013-01-04 20:43:00,
2013-01-04 15:44:00,33.3,22.8,29.94,WSW,243,4.0,14.0,65,0.00,,,0.00,VWS V14.01,2013-01-04 20:44:00,
2013-01-04 15:45:00,33.3,22.8,29.94,WSW,250,8.0,14.0,65,0.00,,,0.00,VWS V14.01,2013-01-04 20:45:00,
2013-01-04 15:46:00,33.3,22.8,29.94,SW,229,5.0,14.0,65,0.00,,,0.00,VWS V14.01,2013-01-04 20:46:00,
2013-01-04 15:47:00,33.3,22.8,29.94,WSW,238,8.0,14.0,65,0.00,,,0.00,VWS V14.01,2013-01-04 20:47:00,
2013-01-04 15:48:00,33.3,22.8,29.94,WSW,240,1.0,14.0,65,0.00,,,0.00,VWS V14.01,2013-01-04 20:48:00,
2013-01-04 15:49:00,33.3,22.8,29.94,WSW,241,1.0,14.0,65,0.00,,,0.00,VWS V14.01,2013-01-04 20:49:00,
2013-01-04 15:50:00,33.3,22.8,29.94,SW,229,1.0,14.0,65,0.00,,,0.00,VWS V14.01,2013-01-04 20:50:00,
2013-01-04 15:51:00,33.3,22.8,29.94,West,259,3.0,13.0,65,0.00,,,0.00,VWS V14.01,2013-01-04 20:51:00,
2013-01-04 15:52:00,33.3,22.8,29.94,WSW,239,5.0,13.0,65,0.00,,,0.00,VWS V14.01,2013-01-04 20:52:00,
2013-01-04 15:53:00,33.2,22.7,29.94,WSW,248,10.0,13.0,65,0.00,,,0.00,VWS V14.01,2013-01-04 20:53:00,
2013-01-04 15:54:00,33.2,22.7,29.94,WSW,257,7.0,13.0,65,0.00,,,0.00,VWS V14.01,2013-01-04 20:54:00,
2013-01-04 15:55:00,33.2,22.7,29.94,WSW,242,7.0,13.0,65,0.00,,,0.00,VWS V14.01,2013-01-04 20:55:00,
2013-01-04 15:56:00,33.2,22.7,29.94,WNW,301,11.0,13.0,65,0.00,,,0.00,VWS V14.01,2013-01-04 20:56:00,
2013-01-04 15:57:00,33.2,22.7,29.94,West,277,4.0,13.0,65,0.00,,,0.00,VWS V14.01,2013-01-04 20:57:00,
2013-01-04 15:58:00,33.2,22.7,29.94,SW,229,5.0,13.0,65,0.00,,,0.00,VWS V14.01,2013-01-04 20:58:00,
2013-01-04 15:59:00,33.2,22.7,29.94,SW,232,3.0,13.0,65,0.00,,,0.00,VWS V14.01,2013-01-04 20:59:00,
2013-01-04 16:00:00,33.2,22.7,29.94,WSW,244,3.0,13.0,65,0.00,,,0.00,VWS V14.01,2013-01-04 21:00:00,
2013-01-04 16:01:00,33.2,23.1,29.94,West,265,5.0,9.0,66,0.00,,,0.00,VWS V14.01,2013-01-04 21:01:00,
2013-01-04 16:02:00,33.2,23.1,29.94,WNW,282,3.0,9.0,66,0.00,,,0.00,VWS V14.01,2013-01-04 21:02:00,
2013-01-04 16:03:00,33.1,23.0,29.94,West,281,6.0,9.0,66,0.00,,,0.00,VWS V14.01,2013-01-04 21:03:00,
2013-01-04 16:04:00,33.1,23.0,29.94,West,273,5.0,9.0,66,0.00,,,0.00,VWS V14.01,2013-01-04 21:04:00,
2013-01-04 16:05:00,33.1,23.0,29.94,West,267,6.0,9.0,66,0.00,,,0.00,VWS V14.01,2013-01-04 21:05:00,
2013-01-04 16:06:00,33.1,23.0,29.94,SSE,163,3.0,9.0,66,0.00,,,0.00,VWS V14.01,2013-01-04 21:06:00,
2013-01-04 16:07:00,33.1,23.0,29.94,WSW,257,3.0,9.0,66,0.00,,,0.00,VWS V14.01,2013-01-04 21:07:00,
2013-01-04 16:08:00,33.0,22.9,29.94,WNW,288,7.0,9.0,66,0.00,,,0.00,VWS V14.01,2013-01-04 21:08:00,
2013-01-04 16:09:00,33.0,22.9,29.94,West,280,3.0,9.0,66,0.00,,,0.00,VWS V14.01,2013-01-04 21:09:00,
2013-01-04 16:10:00,33.0,22.9,29.94,WSW,244,3.0,9.0,66,0.00,,,0.00,VWS V14.01,2013-01-04 21:10:00,
2013-01-04 16:11:00,33.0,22.9,29.94,West,259,3.0,6.0,66,0.00,,,0.00,VWS V14.01,2013-01-04 21:11:00,
2013-01-04 16:12:00,33.0,22.9,29.94,SW,236,7.0,7.0,66,0.00,,,0.00,VWS V14.01,2013-01-04 21:12:00,
2013-01-04 16:13:00,33.0,22.9,29.94,SW,236,7.0,7.0,66,0.00,,,0.00,VWS V14.01,2013-01-04 21:13:00,
2013-01-04 16:14:00,32.9,22.8,29.94,West,268,2.0,7.0,66,0.00,,,0.00,VWS V14.01,2013-01-04 21:14:00,
2013-01-04 16:15:00,32.9,22.8,29.94,WSW,254,7.0,7.0,66,0.00,,,0.00,VWS V14.01,2013-01-04 21:15:00,
2013-01-04 16:16:00,32.9,22.8,29.94,West,259,6.0,10.0,66,0.00,,,0.00,VWS V14.01,2013-01-04 21:16:00,
2013-01-04 16:17:00,32.9,22.8,29.94,NW,309,8.0,10.0,66,0.00,,,0.00,VWS V14.01,2013-01-04 21:17:00,
2013-01-04 16:18:00,32.9,22.8,29.94,NW,309,8.0,10.0,66,0.00,,,0.00,VWS V14.01,2013-01-04 21:18:00,
2013-01-04 16:19:00,32.9,22.8,29.94,WNW,286,6.0,11.0,66,0.00,,,0.00,VWS V14.01,2013-01-04 21:19:00,
2013-01-04 16:20:00,32.9,22.8,29.94,West,263,3.0,11.0,66,0.00,,,0.00,VWS V14.01,2013-01-04 21:20:00,
2013-01-04 16:21:00,32.9,22.8,29.94,WSW,246,5.0,7.0,66,0.00,,,0.00,VWS V14.01,2013-01-04 21:21:00,
2013-01-04 16:22:00,32.9,22.8,29.94,WSW,258,3.0,7.0,66,0.00,,,0.00,VWS V14.01,2013-01-04 21:22:00,
2013-01-04 16:23:00,32.8,22.7,29.94,West,265,1.0,7.0,66,0.00,,,0.00,VWS V14.01,2013-01-04 21:23:00,
2013-01-04 16:24:00,32.8,22.7,29.94,West,265,0.0,7.0,66,0.00,,,0.00,VWS V14.01,2013-01-04 21:24:00,
2013-01-04 16:25:00,32.8,22.7,29.94,WNW,290,3.0,7.0,66,0.00,,,0.00,VWS V14.01,2013-01-04 21:25:00,
2013-01-04 16:26:00,32.8,22.7,29.94,WSW,249,4.0,9.0,66,0.00,,,0.00,VWS V14.01,2013-01-04 21:26:00,
2013-01-04 16:27:00,32.8,23.1,29.94,SSW,210,4.0,9.0,67,0.00,,,0.00,VWS V14.01,2013-01-04 21:27:00,
2013-01-04 16:28:00,32.8,23.1,29.94,WSW,258,5.0,9.0,67,0.00,,,0.00,VWS V14.01,2013-01-04 21:28:00,
2013-01-04 16:29:00,32.7,23.0,29.94,West,271,6.0,9.0,67,0.00,,,0.00,VWS V14.01,2013-01-04 21:29:00,
2013-01-04 16:30:00,32.7,23.0,29.95,WSW,246,5.0,12.0,67,0.00,,,0.00,VWS V14.01,2013-01-04 21:30:00,
2013-01-04 16:31:00,32.7,23.0,29.95,WSW,242,7.0,7.0,67,0.00,,,0.00,VWS V14.01,2013-01-04 21:31:00,
2013-01-04 16:32:00,32.6,22.9,29.95,West,269,8.0,8.0,67,0.00,,,0.00,VWS V14.01,2013-01-04 21:32:00,
2013-01-04 16:33:00,32.6,22.9,29.95,West,274,2.0,8.0,67,0.00,,,0.00,VWS V14.01,2013-01-04 21:33:00,
2013-01-04 16:34:00,32.6,22.9,29.95,WNW,283,8.0,12.0,67,0.00,,,0.00,VWS V14.01,2013-01-04 21:34:00,
2013-01-04 16:35:00,32.6,22.9,29.95,West,267,1.0,12.0,67,0.00,,,0.00,VWS V14.01,2013-01-04 21:35:00,
2013-01-04 16:36:00,32.6,22.9,29.95,West,265,4.0,12.0,67,0.00,,,0.00,VWS V14.01,2013-01-04 21:36:00,
2013-01-04 16:37:00,32.6,22.9,29.95,West,265,1.0,12.0,67,0.00,,,0.00,VWS V14.01,2013-01-04 21:37:00,
2013-01-04 16:38:00,32.6,22.9,29.95,West,276,3.0,12.0,67,0.00,,,0.00,VWS V14.01,2013-01-04 21:38:00,
2013-01-04 16:39:00,32.6,22.9,29.95,West,281,3.0,12.0,67,0.00,,,0.00,VWS V14.01,2013-01-04 21:39:00,
2013-01-04 16:40:00,32.6,22.9,29.95,WNW,293,8.0,12.0,67,0.00,,,0.00,VWS V14.01,2013-01-04 21:40:00,
2013-01-04 16:41:00,32.6,22.9,29.95,WSW,243,6.0,10.0,67,0.00,,,0.00,VWS V14.01,2013-01-04 21:41:00,
2013-01-04 16:42:00,32.5,22.8,29.95,West,263,6.0,10.0,67,0.00,,,0.00,VWS V14.01,2013-01-04 21:42:00,
2013-01-04 16:43:00,32.5,22.8,29.95,West,266,5.0,10.0,67,0.00,,,0.00,VWS V14.01,2013-01-04 21:43:00,
2013-01-04 16:44:00,32.5,22.8,29.95,WNW,289,11.0,11.0,67,0.00,,,0.00,VWS V14.01,2013-01-04 21:44:00,
2013-01-04 16:45:00,32.5,22.8,29.95,WNW,296,11.0,11.0,67,0.00,,,0.00,VWS V14.01,2013-01-04 21:45:00,
2013-01-04 16:46:00,32.4,22.7,29.95,West,261,7.0,13.0,67,0.00,,,0.00,VWS V14.01,2013-01-04 21:46:00,
2013-01-04 16:47:00,32.4,22.7,29.95,WSW,257,6.0,13.0,67,0.00,,,0.00,VWS V14.01,2013-01-04 21:47:00,
2013-01-04 16:48:00,32.4,22.7,29.95,WSW,257,6.0,13.0,67,0.00,,,0.00,VWS V14.01,2013-01-04 21:48:00,
2013-01-04 16:49:00,32.4,22.7,29.95,West,273,0.0,13.0,67,0.00,,,0.00,VWS V14.01,2013-01-04 21:49:00,
2013-01-04 16:50:00,32.4,22.7,29.95,West,267,4.0,13.0,67,0.00,,,0.00,VWS V14.01,2013-01-04 21:50:00,
2013-01-04 16:51:00,32.4,23.0,29.95,SW,236,4.0,9.0,68,0.00,,,0.00,VWS V14.01,2013-01-04 21:51:00,
2013-01-04 16:52:00,32.4,23.0,29.95,West,264,7.0,10.0,68,0.00,,,0.00,VWS V14.01,2013-01-04 21:52:00,
2013-01-04 16:53:00,32.4,23.0,29.95,West,264,7.0,10.0,68,0.00,,,0.00,VWS V14.01,2013-01-04 21:53:00,
2013-01-04 16:54:00,32.4,23.0,29.95,West,263,5.0,10.0,68,0.00,,,0.00,VWS V14.01,2013-01-04 21:54:00,
2013-01-04 16:55:00,32.4,23.0,29.95,West,261,1.0,10.0,68,0.00,,,0.00,VWS V14.01,2013-01-04 21:55:00,
2013-01-04 16:56:00,32.3,22.9,29.95,WNW,288,3.0,10.0,68,0.00,,,0.00,VWS V14.01,2013-01-04 21:56:00,
2013-01-04 16:57:00,32.4,23.0,29.95,West,262,5.0,10.0,68,0.00,,,0.00,VWS V14.01,2013-01-04 21:57:00,
2013-01-04 16:58:00,32.3,22.9,29.95,SW,229,3.0,10.0,68,0.00,,,0.00,VWS V14.01,2013-01-04 21:58:00,
2013-01-04 16:59:00,32.3,22.9,29.95,WNW,292,5.0,10.0,68,0.00,,,0.00,VWS V14.01,2013-01-04 21:59:00,
2013-01-04 17:00:00,32.3,22.9,29.95,WSW,249,4.0,10.0,68,0.00,,,0.00,VWS V14.01,2013-01-04 22:00:00,
2013-01-04 17:01:00,32.3,22.9,29.95,West,279,7.0,11.0,68,0.00,,,0.00,VWS V14.01,2013-01-04 22:01:00,
2013-01-04 17:02:00,32.3,22.9,29.95,WSW,255,5.0,11.0,68,0.00,,,0.00,VWS V14.01,2013-01-04 22:02:00,
2013-01-04 17:03:00,32.3,22.9,29.95,West,259,2.0,11.0,68,0.00,,,0.00,VWS V14.01,2013-01-04 22:03:00,
2013-01-04 17:04:00,32.3,22.9,29.95,WSW,244,7.0,11.0,68,0.00,,,0.00,VWS V14.01,2013-01-04 22:04:00,
2013-01-04 17:05:00,32.3,22.9,29.95,West,263,1.0,11.0,68,0.00,,,0.00,VWS V14.01,2013-01-04 22:05:00,
2013-01-04 17:06:00,32.2,22.8,29.95,WSW,244,8.0,11.0,68,0.00,,,0.00,VWS V14.01,2013-01-04 22:06:00,
2013-01-04 17:07:00,32.3,22.9,29.95,West,277,3.0,11.0,68,0.00,,,0.00,VWS V14.01,2013-01-04 22:07:00,
2013-01-04 17:08:00,32.2,22.8,29.95,WNW,292,4.0,11.0,68,0.00,,,0.00,VWS V14.01,2013-01-04 22:08:00,
2013-01-04 17:09:00,32.2,22.8,29.95,West,264,3.0,11.0,68,0.00,,,0.00,VWS V14.01,2013-01-04 22:09:00,
2013-01-04 17:10:00,32.2,22.8,29.95,West,269,2.0,11.0,68,0.00,,,0.00,VWS V14.01,2013-01-04 22:10:00,
2013-01-04 17:11:00,32.2,22.8,29.95,West,271,1.0,5.0,68,0.00,,,0.00,VWS V14.01,2013-01-04 22:11:00,
2013-01-04 17:12:00,32.2,22.8,29.95,WSW,256,6.0,6.0,68,0.00,,,0.00,VWS V14.01,2013-01-04 22:12:00,
2013-01-04 17:13:00,32.2,22.8,29.95,West,261,12.0,13.0,68,0.00,,,0.00,VWS V14.01,2013-01-04 22:13:00,
2013-01-04 17:14:00,32.1,22.8,29.95,WNW,288,6.0,13.0,68,0.00,,,0.00,VWS V14.01,2013-01-04 22:14:00,
2013-01-04 17:15:00,32.2,23.2,29.95,WSW,246,8.0,13.0,69,0.00,,,0.00,VWS V14.01,2013-01-04 22:15:00,
2013-01-04 17:16:00,32.2,23.2,29.95,West,260,3.0,13.0,69,0.00,,,0.00,VWS V14.01,2013-01-04 22:16:00,
2013-01-04 17:17:00,32.2,23.2,29.95,West,259,3.0,13.0,69,0.00,,,0.00,VWS V14.01,2013-01-04 22:17:00,
2013-01-04 17:18:00,32.2,23.2,29.95,WSW,254,4.0,13.0,69,0.00,,,0.00,VWS V14.01,2013-01-04 22:18:00,
2013-01-04 17:19:00,32.1,23.1,29.95,West,279,9.0,13.0,69,0.00,,,0.00,VWS V14.01,2013-01-04 22:19:00,
2013-01-04 17:20:00,32.1,23.1,29.95,WSW,241,6.0,13.0,69,0.00,,,0.00,VWS V14.01,2013-01-04 22:20:00,
2013-01-04 17:21:00,32.1,23.1,29.95,WSW,247,4.0,7.0,69,0.00,,,0.00,VWS V14.01,2013-01-04 22:21:00,
2013-01-04 17:22:00,32.1,23.1,29.95,West,272,5.0,7.0,69,0.00,,,0.00,VWS V14.01,2013-01-04 22:22:00,
2013-01-04 17:23:00,32.1,23.1,29.95,WSW,245,7.0,11.0,69,0.00,,,0.00,VWS V14.01,2013-01-04 22:23:00,
2013-01-04 17:24:00,32.1,23.1,29.95,WSW,258,2.0,12.0,69,0.00,,,0.00,VWS V14.01,2013-01-04 22:24:00,
2013-01-04 17:25:00,32.1,23.1,29.95,West,275,7.0,12.0,69,0.00,,,0.00,VWS V14.01,2013-01-04 22:25:00,
2013-01-04 17:26:00,32.1,23.1,29.95,West,270,5.0,12.0,69,0.00,,,0.00,VWS V14.01,2013-01-04 22:26:00,
2013-01-04 17:27:00,32.1,23.1,29.95,WSW,253,6.0,12.0,69,0.00,,,0.00,VWS V14.01,2013-01-04 22:27:00,
2013-01-04 17:28:00,32.1,23.1,29.95,WSW,253,6.0,12.0,69,0.00,,,0.00,VWS V14.01,2013-01-04 22:28:00,
2013-01-04 17:29:00,32.2,23.2,29.95,WSW,243,11.0,12.0,69,0.00,,,0.00,VWS V14.01,2013-01-04 22:29:00,
2013-01-04 17:30:00,32.2,23.2,29.96,WSW,258,6.0,12.0,69,0.00,,,0.00,VWS V14.01,2013-01-04 22:30:00,
2013-01-04 17:31:00,32.2,23.2,29.96,WSW,246,4.0,6.0,69,0.00,,,0.00,VWS V14.01,2013-01-04 22:31:00,
2013-01-04 17:32:00,32.2,23.2,29.96,WSW,244,5.0,6.0,69,0.00,,,0.00,VWS V14.01,2013-01-04 22:32:00,
2013-01-04 17:33:00,32.2,23.2,29.96,WSW,244,5.0,6.0,69,0.00,,,0.00,VWS V14.01,2013-01-04 22:33:00,
2013-01-04 17:34:00,32.1,23.1,29.96,West,276,7.0,12.0,69,0.00,,,0.00,VWS V14.01,2013-01-04 22:34:00,
2013-01-04 17:35:00,32.1,23.1,29.96,West,267,7.0,12.0,69,0.00,,,0.00,VWS V14.01,2013-01-04 22:35:00,
2013-01-04 17:36:00,32.1,23.1,29.96,West,259,6.0,12.0,69,0.00,,,0.00,VWS V14.01,2013-01-04 22:36:00,
2013-01-04 17:37:00,32.1,23.1,29.96,West,264,6.0,12.0,69,0.00,,,0.00,VWS V14.01,2013-01-04 22:37:00,
2013-01-04 17:38:00,32.2,23.2,29.96,WSW,240,7.0,12.0,69,0.00,,,0.00,VWS V14.01,2013-01-04 22:38:00,
2013-01-04 17:39:00,32.1,23.1,29.96,WSW,251,9.0,12.0,69,0.00,,,0.00,VWS V14.01,2013-01-04 22:39:00,
2013-01-04 17:40:00,32.2,23.2,29.96,WSW,248,3.0,12.0,69,0.00,,,0.00,VWS V14.01,2013-01-04 22:40:00,
2013-01-04 17:41:00,32.2,23.2,29.96,WSW,238,5.0,5.0,69,0.00,,,0.00,VWS V14.01,2013-01-04 22:41:00,
2013-01-04 17:42:00,32.2,23.2,29.96,WSW,240,2.0,5.0,69,0.00,,,0.00,VWS V14.01,2013-01-04 22:42:00,
2013-01-04 17:43:00,32.2,23.2,29.96,West,270,5.0,5.0,69,0.00,,,0.00,VWS V14.01,2013-01-04 22:43:00,
2013-01-04 17:44:00,32.2,23.2,29.96,WNW,288,9.0,12.0,69,0.00,,,0.00,VWS V14.01,2013-01-04 22:44:00,
2013-01-04 17:45:00,32.2,23.2,29.97,WSW,257,5.0,12.0,69,0.00,,,0.00,VWS V14.01,2013-01-04 22:45:00,
2013-01-04 17:46:00,32.2,23.2,29.97,WSW,238,2.0,12.0,69,0.00,,,0.00,VWS V14.01,2013-01-04 22:46:00,
2013-01-04 17:47:00,32.2,23.2,29.97,WSW,238,3.0,12.0,69,0.00,,,0.00,VWS V14.01,2013-01-04 22:47:00,
2013-01-04 17:48:00,32.2,23.2,29.97,West,259,5.0,12.0,69,0.00,,,0.00,VWS V14.01,2013-01-04 22:48:00,
2013-01-04 17:49:00,32.2,23.2,29.97,WSW,252,4.0,12.0,69,0.00,,,0.00,VWS V14.01,2013-01-04 22:49:00,
2013-01-04 17:50:00,32.1,23.1,29.97,WSW,246,3.0,12.0,69,0.00,,,0.00,VWS V14.01,2013-01-04 22:50:00,
2013-01-04 17:51:00,32.1,23.1,29.97,WSW,242,5.0,6.0,69,0.00,,,0.00,VWS V14.01,2013-01-04 22:51:00,
2013-01-04 17:52:00,32.2,23.2,29.97,WSW,258,6.0,6.0,69,0.00,,,0.00,VWS V14.01,2013-01-04 22:52:00,
2013-01-04 17:53:00,32.1,23.1,29.97,NW,323,5.0,10.0,69,0.00,,,0.00,VWS V14.01,2013-01-04 22:53:00,
2013-01-04 17:54:00,32.1,23.1,29.97,WSW,238,3.0,10.0,69,0.00,,,0.00,VWS V14.01,2013-01-04 22:54:00,
2013-01-04 17:55:00,32.1,23.1,29.97,West,265,3.0,10.0,69,0.00,,,0.00,VWS V14.01,2013-01-04 22:55:00,
2013-01-04 17:56:00,32.1,23.1,29.97,WSW,248,4.0,10.0,69,0.00,,,0.00,VWS V14.01,2013-01-04 22:56:00,
2013-01-04 17:57:00,32.1,23.1,29.97,WSW,246,2.0,10.0,69,0.00,,,0.00,VWS V14.01,2013-01-04 22:57:00,
2013-01-04 17:58:00,32.1,23.1,29.97,WSW,255,7.0,11.0,69,0.00,,,0.00,VWS V14.01,2013-01-04 22:58:00,
2013-01-04 17:59:00,32.0,23.0,29.97,SW,217,5.0,15.0,69,0.00,,,0.00,VWS V14.01,2013-01-04 22:59:00,
2013-01-04 18:00:00,32.0,23.0,29.97,West,268,10.0,15.0,69,0.00,,,0.00,VWS V14.01,2013-01-04 23:00:00,
2013-01-04 18:01:00,32.1,23.1,29.97,West,259,6.0,10.0,69,0.00,,,0.00,VWS V14.01,2013-01-04 23:01:00,
2013-01-04 18:02:00,32.1,23.1,29.97,WSW,254,6.0,10.0,69,0.00,,,0.00,VWS V14.01,2013-01-04 23:02:00,
2013-01-04 18:03:00,32.1,23.1,29.97,WSW,254,6.0,10.0,69,0.00,,,0.00,VWS V14.01,2013-01-04 23:03:00,
2013-01-04 18:04:00,32.1,23.1,29.97,WSW,258,3.0,10.0,69,0.00,,,0.00,VWS V14.01,2013-01-04 23:04:00,
2013-01-04 18:05:00,32.1,23.1,29.97,WSW,254,7.0,10.0,69,0.00,,,0.00,VWS V14.01,2013-01-04 23:05:00,
2013-01-04 18:06:00,32.1,23.1,29.97,WNW,289,2.0,10.0,69,0.00,,,0.00,VWS V14.01,2013-01-04 23:06:00,
2013-01-04 18:07:00,32.1,23.1,29.97,West,279,3.0,10.0,69,0.00,,,0.00,VWS V14.01,2013-01-04 23:07:00,
2013-01-04 18:08:00,32.1,23.1,29.97,West,279,3.0,10.0,69,0.00,,,0.00,VWS V14.01,2013-01-04 23:08:00,
2013-01-04 18:09:00,32.1,23.1,29.97,NW,316,4.0,10.0,69,0.00,,,0.00,VWS V14.01,2013-01-04 23:09:00,
2013-01-04 18:10:00,32.1,23.1,29.97,WSW,256,6.0,10.0,69,0.00,,,0.00,VWS V14.01,2013-01-04 23:10:00,
2013-01-04 18:11:00,32.1,23.1,29.97,SW,225,6.0,10.0,69,0.00,,,0.00,VWS V14.01,2013-01-04 23:11:00,
2013-01-04 18:12:00,32.0,23.0,29.97,West,278,4.0,10.0,69,0.00,,,0.00,VWS V14.01,2013-01-04 23:12:00,
2013-01-04 18:13:00,32.0,23.0,29.97,West,278,4.0,10.0,69,0.00,,,0.00,VWS V14.01,2013-01-04 23:13:00,
2013-01-04 18:14:00,32.0,23.0,29.97,WNW,284,0.0,10.0,69,0.00,,,0.00,VWS V14.01,2013-01-04 23:14:00,
2013-01-04 18:15:00,32.0,23.0,29.97,West,269,6.0,10.0,69,0.00,,,0.00,VWS V14.01,2013-01-04 23:15:00,
2013-01-04 18:16:00,32.0,23.0,29.97,West,269,3.0,10.0,69,0.00,,,0.00,VWS V14.01,2013-01-04 23:16:00,
2013-01-04 18:17:00,32.0,23.0,29.97,West,269,0.0,10.0,69,0.00,,,0.00,VWS V14.01,2013-01-04 23:17:00,
2013-01-04 18:18:00,31.9,22.9,29.97,WSW,240,3.0,11.0,69,0.00,,,0.00,VWS V14.01,2013-01-04 23:18:00,
2013-01-04 18:19:00,31.9,22.9,29.97,WSW,240,1.0,11.0,69,0.00,,,0.00,VWS V14.01,2013-01-04 23:19:00,
2013-01-04 18:20:00,31.9,22.9,29.97,West,269,3.0,11.0,69,0.00,,,0.00,VWS V14.01,2013-01-04 23:20:00,
2013-01-04 18:21:00,31.9,22.9,29.97,West,269,0.0,3.0,69,0.00,,,0.00,VWS V14.01,2013-01-04 23:21:00,
2013-01-04 18:22:00,31.9,22.9,29.97,West,269,3.0,3.0,69,0.00,,,0.00,VWS V14.01,2013-01-04 23:22:00,
2013-01-04 18:23:00,31.8,22.8,29.97,West,278,5.0,7.0,69,0.00,,,0.00,VWS V14.01,2013-01-04 23:23:00,
2013-01-04 18:24:00,31.8,22.8,29.97,WSW,257,6.0,7.0,69,0.00,,,0.00,VWS V14.01,2013-01-04 23:24:00,
2013-01-04 18:25:00,31.8,22.8,29.97,WSW,238,11.0,11.0,69,0.00,,,0.00,VWS V14.01,2013-01-04 23:25:00,
2013-01-04 18:26:00,31.7,22.7,29.97,WSW,255,3.0,11.0,69,0.00,,,0.00,VWS V14.01,2013-01-04 23:26:00,
2013-01-04 18:27:00,31.7,22.7,29.97,WSW,256,1.0,11.0,69,0.00,,,0.00,VWS V14.01,2013-01-04 23:27:00,
2013-01-04 18:28:00,31.7,22.7,29.97,WNW,285,5.0,11.0,69,0.00,,,0.00,VWS V14.01,2013-01-04 23:28:00,
2013-01-04 18:29:00,31.7,22.7,29.97,WSW,242,3.0,11.0,69,0.00,,,0.00,VWS V14.01,2013-01-04 23:29:00,
2013-01-04 18:30:00,31.7,22.7,29.97,West,275,4.0,11.0,69,0.00,,,0.00,VWS V14.01,2013-01-04 23:30:00,
2013-01-04 18:31:00,31.7,22.7,29.97,West,262,6.0,6.0,69,0.00,,,0.00,VWS V14.01,2013-01-04 23:31:00,
2013-01-04 18:32:00,31.7,22.7,29.97,SW,235,5.0,6.0,69,0.00,,,0.00,VWS V14.01,2013-01-04 23:32:00,
2013-01-04 18:33:00,31.7,22.7,29.97,West,275,9.0,9.0,69,0.00,,,0.00,VWS V14.01,2013-01-04 23:33:00,
2013-01-04 18:34:00,31.7,22.7,29.97,West,263,4.0,9.0,69,0.00,,,0.00,VWS V14.01,2013-01-04 23:34:00,
2013-01-04 18:35:00,31.7,22.7,29.97,West,272,5.0,9.0,69,0.00,,,0.00,VWS V14.01,2013-01-04 23:35:00,
2013-01-04 18:36:00,31.7,22.7,29.97,WSW,248,1.0,10.0,69,0.00,,,0.00,VWS V14.01,2013-01-04 23:36:00,
2013-01-04 18:37:00,31.6,22.6,29.97,WSW,248,2.0,10.0,69,0.00,,,0.00,VWS V14.01,2013-01-04 23:37:00,
2013-01-04 18:38:00,31.7,22.7,29.97,WNW,282,2.0,10.0,69,0.00,,,0.00,VWS V14.01,2013-01-04 23:38:00,
2013-01-04 18:39:00,31.7,22.7,29.97,West,266,8.0,10.0,69,0.00,,,0.00,VWS V14.01,2013-01-04 23:39:00,
2013-01-04 18:40:00,31.6,22.6,29.97,West,270,4.0,10.0,69,0.00,,,0.00,VWS V14.01,2013-01-04 23:40:00,
2013-01-04 18:41:00,31.7,22.7,29.97,WNW,292,5.0,8.0,69,0.00,,,0.00,VWS V14.01,2013-01-04 23:41:00,
2013-01-04 18:42:00,31.7,22.7,29.97,WNW,293,5.0,8.0,69,0.00,,,0.00,VWS V14.01,2013-01-04 23:42:00,
2013-01-04 18:43:00,31.7,22.7,29.97,WNW,293,5.0,8.0,69,0.00,,,0.00,VWS V14.01,2013-01-04 23:43:00,
2013-01-04 18:44:00,31.6,22.6,29.97,West,281,2.0,10.0,69,0.00,,,0.00,VWS V14.01,2013-01-04 23:44:00,
2013-01-04 18:45:00,31.6,22.6,29.97,WSW,253,1.0,10.0,69,0.00,,,0.00,VWS V14.01,2013-01-04 23:45:00,
2013-01-04 18:46:00,31.6,22.6,29.97,NW,324,9.0,10.0,69,0.00,,,0.00,VWS V14.01,2013-01-04 23:46:00,
2013-01-04 18:47:00,31.6,22.6,29.97,NW,323,6.0,10.0,69,0.00,,,0.00,VWS V14.01,2013-01-04 23:47:00,
2013-01-04 18:48:00,31.6,22.6,29.97,NW,323,6.0,10.0,69,0.00,,,0.00,VWS V14.01,2013-01-04 23:48:00,
2013-01-04 18:49:00,31.6,23.0,29.97,West,259,8.0,10.0,70,0.00,,,0.00,VWS V14.01,2013-01-04 23:49:00,
2013-01-04 18:50:00,31.6,23.0,29.97,West,273,5.0,10.0,70,0.00,,,0.00,VWS V14.01,2013-01-04 23:50:00,
2013-01-04 18:51:00,31.6,23.0,29.97,West,273,2.0,5.0,70,0.00,,,0.00,VWS V14.01,2013-01-04 23:51:00,
2013-01-04 18:52:00,31.6,23.0,29.97,West,273,2.0,5.0,70,0.00,,,0.00,VWS V14.01,2013-01-04 23:52:00,
2013-01-04 18:53:00,31.6,23.0,29.97,West,273,1.0,5.0,70,0.00,,,0.00,VWS V14.01,2013-01-04 23:53:00,
2013-01-04 18:54:00,31.6,23.0,29.97,West,273,0.0,5.0,70,0.00,,,0.00,VWS V14.01,2013-01-04 23:54:00,
2013-01-04 18:55:00,31.5,22.9,29.97,West,260,3.0,6.0,70,0.00,,,0.00,VWS V14.01,2013-01-04 23:55:00,
2013-01-04 18:56:00,31.5,22.9,29.97,SSW,212,3.0,6.0,70,0.00,,,0.00,VWS V14.01,2013-01-04 23:56:00,
2013-01-04 18:57:00,31.5,22.9,29.97,WSW,254,3.0,6.0,70,0.00,,,0.00,VWS V14.01,2013-01-04 23:57:00,
2013-01-04 18:58:00,31.5,22.9,29.97,West,269,5.0,6.0,70,0.00,,,0.00,VWS V14.01,2013-01-04 23:58:00,
2013-01-04 18:59:00,31.5,22.9,29.97,West,269,3.0,6.0,70,0.00,,,0.00,VWS V14.01,2013-01-04 23:59:00,
2013-01-04 19:00:00,31.4,22.8,29.97,West,262,3.0,6.0,70,0.00,,,0.00,VWS V14.01,2013-01-05 00:00:00,
2013-01-04 19:01:00,31.4,22.8,29.97,WSW,257,4.0,5.0,70,0.00,,,0.00,VWS V14.01,2013-01-05 00:01:00,
2013-01-04 19:02:00,31.4,22.8,29.97,WSW,240,6.0,6.0,70,0.00,,,0.00,VWS V14.01,2013-01-05 00:02:00,
2013-01-04 19:03:00,31.4,22.8,29.97,West,265,1.0,6.0,70,0.00,,,0.00,VWS V14.01,2013-01-05 00:03:00,
2013-01-04 19:04:00,31.4,22.8,29.97,West,265,1.0,6.0,70,0.00,,,0.00,VWS V14.01,2013-01-05 00:04:00,
2013-01-04 19:05:00,31.4,22.8,29.97,WNW,294,9.0,9.0,70,0.00,,,0.00,VWS V14.01,2013-01-05 00:05:00,
2013-01-04 19:06:00,31.3,22.7,29.97,WSW,244,4.0,9.0,70,0.00,,,0.00,VWS V14.01,2013-01-05 00:06:00,
2013-01-04 19:07:00,31.3,22.7,29.97,SW,229,2.0,9.0,70,0.00,,,0.00,VWS V14.01,2013-01-05 00:07:00,
2013-01-04 19:08:00,31.3,22.7,29.97,WSW,245,6.0,9.0,70,0.00,,,0.00,VWS V14.01,2013-01-05 00:08:00,
2013-01-04 19:09:00,31.3,22.7,29.97,WSW,250,8.0,9.0,70,0.00,,,0.00,VWS V14.01,2013-01-05 00:09:00,
2013-01-04 19:10:00,31.3,22.7,29.97,SW,232,2.0,9.0,70,0.00,,,0.00,VWS V14.01,2013-01-05 00:10:00,
2013-01-04 19:11:00,31.2,22.6,29.97,WSW,254,10.0,10.0,70,0.00,,,0.00,VWS V14.01,2013-01-05 00:11:00,
2013-01-04 19:12:00,31.2,22.6,29.97,West,276,9.0,10.0,70,0.00,,,0.00,VWS V14.01,2013-01-05 00:12:00,
2013-01-04 19:13:00,31.2,22.6,29.97,SW,221,2.0,10.0,70,0.00,,,0.00,VWS V14.01,2013-01-05 00:13:00,
2013-01-04 19:14:00,31.2,22.6,29.97,West,265,4.0,10.0,70,0.00,,,0.00,VWS V14.01,2013-01-05 00:14:00,
2013-01-04 19:15:00,31.2,22.6,29.97,West,261,6.0,10.0,70,0.00,,,0.00,VWS V14.01,2013-01-05 00:15:00,
2013-01-04 19:16:00,31.2,22.6,29.97,West,271,4.0,10.0,70,0.00,,,0.00,VWS V14.01,2013-01-05 00:16:00,
2013-01-04 19:17:00,31.2,22.6,29.97,West,267,2.0,10.0,70,0.00,,,0.00,VWS V14.01,2013-01-05 00:17:00,
2013-01-04 19:18:00,31.2,22.6,29.97,West,259,4.0,10.0,70,0.00,,,0.00,VWS V14.01,2013-01-05 00:18:00,
2013-01-04 19:19:00,31.2,22.6,29.97,WNW,294,4.0,10.0,70,0.00,,,0.00,VWS V14.01,2013-01-05 00:19:00,
2013-01-04 19:20:00,31.1,22.5,29.97,SW,230,0.0,10.0,70,0.00,,,0.00,VWS V14.01,2013-01-05 00:20:00,
2013-01-04 19:21:00,31.2,22.6,29.97,SW,230,0.0,0.0,70,0.00,,,0.00,VWS V14.01,2013-01-05 00:21:00,
2013-01-04 19:22:00,31.1,22.5,29.97,WSW,251,4.0,4.0,70,0.00,,,0.00,VWS V14.01,2013-01-05 00:22:00,
2013-01-04 19:23:00,31.1,22.5,29.97,WSW,251,4.0,4.0,70,0.00,,,0.00,VWS V14.01,2013-01-05 00:23:00,
2013-01-04 19:24:00,31.1,22.8,29.97,West,267,7.0,13.0,71,0.00,,,0.00,VWS V14.01,2013-01-05 00:24:00,
2013-01-04 19:25:00,31.1,22.8,29.97,West,277,5.0,13.0,71,0.00,,,0.00,VWS V14.01,2013-01-05 00:25:00,
2013-01-04 19:26:00,31.1,22.8,29.97,West,261,5.0,13.0,71,0.00,,,0.00,VWS V14.01,2013-01-05 00:26:00,
2013-01-04 19:27:00,31.1,22.8,29.97,West,260,4.0,13.0,71,0.00,,,0.00,VWS V14.01,2013-01-05 00:27:00,
2013-01-04 19:28:00,31.1,22.8,29.97,West,260,4.0,13.0,71,0.00,,,0.00,VWS V14.01,2013-01-05 00:28:00,
2013-01-04 19:29:00,31.0,22.7,29.97,WSW,247,5.0,13.0,71,0.00,,,0.00,VWS V14.01,2013-01-05 00:29:00,
2013-01-04 19:30:00,31.1,22.8,29.97,West,280,1.0,13.0,71,0.00,,,0.00,VWS V14.01,2013-01-05 00:30:00,
2013-01-04 19:31:00,31.0,22.7,29.97,West,275,5.0,6.0,71,0.00,,,0.00,VWS V14.01,2013-01-05 00:31:00,
2013-01-04 19:32:00,31.0,22.7,29.97,West,272,3.0,6.0,71,0.00,,,0.00,VWS V14.01,2013-01-05 00:32:00,
2013-01-04 19:33:00,31.0,22.7,29.97,West,260,2.0,6.0,71,0.00,,,0.00,VWS V14.01,2013-01-05 00:33:00,
2013-01-04 19:34:00,31.0,22.7,29.97,SW,227,3.0,6.0,71,0.00,,,0.00,VWS V14.01,2013-01-05 00:34:00,
2013-01-04 19:35:00,31.0,22.7,29.97,WSW,247,3.0,6.0,71,0.00,,,0.00,VWS V14.01,2013-01-05 00:35:00,
2013-01-04 19:36:00,31.0,22.7,29.97,WSW,257,10.0,11.0,71,0.00,,,0.00,VWS V14.01,2013-01-05 00:36:00,
2013-01-04 19:37:00,31.0,22.7,29.97,West,275,8.0,11.0,71,0.00,,,0.00,VWS V14.01,2013-01-05 00:37:00,
2013-01-04 19:38:00,31.0,22.7,29.97,West,275,8.0,11.0,71,0.00,,,0.00,VWS V14.01,2013-01-05 00:38:00,
2013-01-04 19:39:00,31.0,22.7,29.97,WNW,290,4.0,11.0,71,0.00,,,0.00,VWS V14.01,2013-01-05 00:39:00,
2013-01-04 19:40:00,31.0,22.7,29.97,WSW,257,8.0,11.0,71,0.00,,,0.00,VWS V14.01,2013-01-05 00:40:00,
2013-01-04 19:41:00,31.0,22.7,29.97,WSW,243,5.0,12.0,71,0.00,,,0.00,VWS V14.01,2013-01-05 00:41:00,
2013-01-04 19:42:00,30.9,22.6,29.97,WNW,288,3.0,12.0,71,0.00,,,0.00,VWS V14.01,2013-01-05 00:42:00,
2013-01-04 19:43:00,31.0,22.7,29.97,West,264,6.0,12.0,71,0.00,,,0.00,VWS V14.01,2013-01-05 00:43:00,
2013-01-04 19:44:00,31.0,22.7,29.97,WSW,248,7.0,12.0,71,0.00,,,0.00,VWS V14.01,2013-01-05 00:44:00,
2013-01-04 19:45:00,31.0,22.7,29.97,West,279,8.0,12.0,71,0.00,,,0.00,VWS V14.01,2013-01-05 00:45:00,
2013-01-04 19:46:00,31.0,22.7,29.97,West,273,5.0,12.0,71,0.00,,,0.00,VWS V14.01,2013-01-05 00:46:00,
2013-01-04 19:47:00,31.0,22.7,29.97,West,267,3.0,12.0,71,0.00,,,0.00,VWS V14.01,2013-01-05 00:47:00,
2013-01-04 19:48:00,31.0,22.7,29.97,SW,222,6.0,12.0,71,0.00,,,0.00,VWS V14.01,2013-01-05 00:48:00,
2013-01-04 19:49:00,31.0,22.7,29.97,WSW,240,4.0,12.0,71,0.00,,,0.00,VWS V14.01,2013-01-05 00:49:00,
2013-01-04 19:50:00,31.0,22.7,29.97,West,273,7.0,12.0,71,0.00,,,0.00,VWS V14.01,2013-01-05 00:50:00,
2013-01-04 19:51:00,31.0,22.7,29.97,WSW,252,3.0,7.0,71,0.00,,,0.00,VWS V14.01,2013-01-05 00:51:00,
2013-01-04 19:52:00,31.0,22.7,29.97,WSW,252,2.0,7.0,71,0.00,,,0.00,VWS V14.01,2013-01-05 00:52:00,
2013-01-04 19:53:00,31.0,22.7,29.97,West,260,4.0,8.0,71,0.00,,,0.00,VWS V14.01,2013-01-05 00:53:00,
2013-01-04 19:54:00,31.0,22.7,29.97,WSW,257,1.0,8.0,71,0.00,,,0.00,VWS V14.01,2013-01-05 00:54:00,
2013-01-04 19:55:00,31.0,22.7,29.97,West,272,4.0,8.0,71,0.00,,,0.00,VWS V14.01,2013-01-05 00:55:00,
2013-01-04 19:56:00,31.0,22.7,29.97,West,271,0.0,8.0,71,0.00,,,0.00,VWS V14.01,2013-01-05 00:56:00,
2013-01-04 19:57:00,31.0,22.7,29.97,West,270,2.0,8.0,71,0.00,,,0.00,VWS V14.01,2013-01-05 00:57:00,
2013-01-04 19:58:00,31.0,22.7,29.97,West,269,0.0,8.0,71,0.00,,,0.00,VWS V14.01,2013-01-05 00:58:00,
2013-01-04 19:59:00,30.9,22.6,29.97,West,269,0.0,8.0,71,0.00,,,0.00,VWS V14.01,2013-01-05 00:59:00,
2013-01-04 20:00:00,30.9,22.6,29.96,West,264,8.0,11.0,71,0.00,,,0.00,VWS V14.01,2013-01-05 01:00:00,
2013-01-04 20:01:00,30.9,22.6,29.96,West,271,4.0,4.0,71,0.00,,,0.00,VWS V14.01,2013-01-05 01:01:00,
2013-01-04 20:02:00,30.9,22.6,29.96,West,273,7.0,7.0,71,0.00,,,0.00,VWS V14.01,2013-01-05 01:02:00,
2013-01-04 20:03:00,30.9,22.6,29.96,WSW,238,6.0,8.0,71,0.00,,,0.00,VWS V14.01,2013-01-05 01:03:00,
2013-01-04 20:04:00,30.9,22.6,29.96,WSW,258,8.0,10.0,71,0.00,,,0.00,VWS V14.01,2013-01-05 01:04:00,
2013-01-04 20:05:00,30.9,22.6,29.96,West,281,9.0,10.0,71,0.00,,,0.00,VWS V14.01,2013-01-05 01:05:00,
2013-01-04 20:06:00,30.9,22.6,29.96,WSW,258,4.0,10.0,71,0.00,,,0.00,VWS V14.01,2013-01-05 01:06:00,
2013-01-04 20:07:00,30.9,22.6,29.96,WSW,249,5.0,10.0,71,0.00,,,0.00,VWS V14.01,2013-01-05 01:07:00,
2013-01-04 20:08:00,31.0,22.7,29.96,SW,233,3.0,10.0,71,0.00,,,0.00,VWS V14.01,2013-01-05 01:08:00,
2013-01-04 20:09:00,31.0,22.7,29.96,West,281,2.0,10.0,71,0.00,,,0.00,VWS V14.01,2013-01-05 01:09:00,
2013-01-04 20:10:00,31.0,22.7,29.96,West,275,8.0,10.0,71,0.00,,,0.00,VWS V14.01,2013-01-05 01:10:00,
2013-01-04 20:11:00,31.0,22.7,29.96,West,261,8.0,8.0,71,0.00,,,0.00,VWS V14.01,2013-01-05 01:11:00,
2013-01-04 20:12:00,31.0,22.7,29.96,West,262,4.0,8.0,71,0.00,,,0.00,VWS V14.01,2013-01-05 01:12:00,
2013-01-04 20:13:00,31.0,22.7,29.96,West,262,4.0,8.0,71,0.00,,,0.00,VWS V14.01,2013-01-05 01:13:00,
2013-01-04 20:14:00,31.0,22.7,29.96,West,269,3.0,8.0,71,0.00,,,0.00,VWS V14.01,2013-01-05 01:14:00,
2013-01-04 20:15:00,31.0,22.7,29.96,WNW,298,4.0,8.0,71,0.00,,,0.00,VWS V14.01,2013-01-05 01:15:00,
2013-01-04 20:16:00,31.0,22.7,29.96,SE,139,3.0,8.0,71,0.00,,,0.00,VWS V14.01,2013-01-05 01:16:00,
2013-01-04 20:17:00,31.0,22.7,29.96,SSE,152,0.0,8.0,71,0.00,,,0.00,VWS V14.01,2013-01-05 01:17:00,
2013-01-04 20:18:00,31.0,22.7,29.96,SSE,152,0.0,8.0,71,0.00,,,0.00,VWS V14.01,2013-01-05 01:18:00,
2013-01-04 20:19:00,31.0,22.4,29.96,WSW,241,5.0,9.0,70,0.00,,,0.00,VWS V14.01,2013-01-05 01:19:00,
2013-01-04 20:20:00,31.0,22.4,29.96,West,263,5.0,9.0,70,0.00,,,0.00,VWS V14.01,2013-01-05 01:20:00,
2013-01-04 20:21:00,31.0,22.4,29.96,WNW,291,0.0,5.0,70,0.00,,,0.00,VWS V14.01,2013-01-05 01:21:00,
2013-01-04 20:22:00,31.0,22.4,29.96,WSW,249,3.0,5.0,70,0.00,,,0.00,VWS V14.01,2013-01-05 01:22:00,
2013-01-04 20:23:00,31.0,22.4,29.96,WSW,246,3.0,6.0,70,0.00,,,0.00,VWS V14.01,2013-01-05 01:23:00,
2013-01-04 20:24:00,31.0,22.4,29.96,WSW,248,6.0,6.0,70,0.00,,,0.00,VWS V14.01,2013-01-05 01:24:00,
2013-01-04 20:25:00,31.0,22.4,29.96,WSW,256,3.0,6.0,70,0.00,,,0.00,VWS V14.01,2013-01-05 01:25:00,
2013-01-04 20:26:00,31.0,22.4,29.96,SW,232,3.0,6.0,70,0.00,,,0.00,VWS V14.01,2013-01-05 01:26:00,
2013-01-04 20:27:00,31.0,22.4,29.96,West,273,6.0,6.0,70,0.00,,,0.00,VWS V14.01,2013-01-05 01:27:00,
2013-01-04 20:28:00,31.0,22.4,29.96,WSW,246,4.0,8.0,70,0.00,,,0.00,VWS V14.01,2013-01-05 01:28:00,
2013-01-04 20:29:00,31.0,22.4,29.96,WSW,245,2.0,8.0,70,0.00,,,0.00,VWS V14.01,2013-01-05 01:29:00,
2013-01-04 20:30:00,30.9,22.3,29.96,NNW,345,7.0,8.0,70,0.00,,,0.00,VWS V14.01,2013-01-05 01:30:00,
2013-01-04 20:31:00,30.9,22.3,29.96,West,259,1.0,7.0,70,0.00,,,0.00,VWS V14.01,2013-01-05 01:31:00,
2013-01-04 20:32:00,30.9,22.3,29.96,South,186,1.0,7.0,70,0.00,,,0.00,VWS V14.01,2013-01-05 01:32:00,
2013-01-04 20:33:00,30.9,22.3,29.96,West,280,3.0,7.0,70,0.00,,,0.00,VWS V14.01,2013-01-05 01:33:00,
2013-01-04 20:34:00,30.9,22.3,29.96,SW,236,3.0,7.0,70,0.00,,,0.00,VWS V14.01,2013-01-05 01:34:00,
2013-01-04 20:35:00,30.9,22.3,29.96,SW,236,2.0,7.0,70,0.00,,,0.00,VWS V14.01,2013-01-05 01:35:00,
2013-01-04 20:36:00,30.9,22.3,29.96,WSW,238,2.0,7.0,70,0.00,,,0.00,VWS V14.01,2013-01-05 01:36:00,
2013-01-04 20:37:00,30.9,22.3,29.96,WSW,255,4.0,7.0,70,0.00,,,0.00,VWS V14.01,2013-01-05 01:37:00,
2013-01-04 20:38:00,30.9,22.3,29.96,NW,319,5.0,7.0,70,0.00,,,0.00,VWS V14.01,2013-01-05 01:38:00,
2013-01-04 20:39:00,30.8,22.2,29.96,WNW,302,1.0,7.0,70,0.00,,,0.00,VWS V14.01,2013-01-05 01:39:00,
2013-01-04 20:40:00,30.8,22.2,29.96,NW,309,2.0,7.0,70,0.00,,,0.00,VWS V14.01,2013-01-05 01:40:00,
2013-01-04 20:41:00,30.8,22.2,29.96,West,265,3.0,3.0,70,0.00,,,0.00,VWS V14.01,2013-01-05 01:41:00,
2013-01-04 20:42:00,30.8,22.2,29.96,West,259,4.0,4.0,70,0.00,,,0.00,VWS V14.01,2013-01-05 01:42:00,
2013-01-04 20:43:00,30.7,22.1,29.96,WSW,257,3.0,4.0,70,0.00,,,0.00,VWS V14.01,2013-01-05 01:43:00,
2013-01-04 20:44:00,30.7,22.1,29.96,WSW,247,9.0,9.0,70,0.00,,,0.00,VWS V14.01,2013-01-05 01:44:00,
2013-01-04 20:45:00,30.7,22.1,29.96,SW,233,5.0,9.0,70,0.00,,,0.00,VWS V14.01,2013-01-05 01:45:00,
2013-01-04 20:46:00,30.7,22.1,29.96,West,279,5.0,9.0,70,0.00,,,0.00,VWS V14.01,2013-01-05 01:46:00,
2013-01-04 20:47:00,30.7,22.1,29.96,WSW,258,7.0,9.0,70,0.00,,,0.00,VWS V14.01,2013-01-05 01:47:00,
2013-01-04 20:48:00,30.7,22.1,29.96,WSW,248,6.0,9.0,70,0.00,,,0.00,VWS V14.01,2013-01-05 01:48:00,
2013-01-04 20:49:00,30.7,22.1,29.96,WNW,291,4.0,9.0,70,0.00,,,0.00,VWS V14.01,2013-01-05 01:49:00,
2013-01-04 20:50:00,30.7,22.1,29.96,SW,236,2.0,9.0,70,0.00,,,0.00,VWS V14.01,2013-01-05 01:50:00,
2013-01-04 20:51:00,30.7,22.1,29.96,SW,214,0.0,5.0,70,0.00,,,0.00,VWS V14.01,2013-01-05 01:51:00,
2013-01-04 20:52:00,30.7,22.1,29.96,SW,215,0.0,5.0,70,0.00,,,0.00,VWS V14.01,2013-01-05 01:52:00,
2013-01-04 20:53:00,30.7,22.1,29.96,SW,215,0.0,5.0,70,0.00,,,0.00,VWS V14.01,2013-01-05 01:53:00,
2013-01-04 20:54:00,30.7,22.1,29.96,SSW,201,5.0,6.0,70,0.00,,,0.00,VWS V14.01,2013-01-05 01:54:00,
2013-01-04 20:55:00,30.7,22.1,29.96,NW,305,0.0,6.0,70,0.00,,,0.00,VWS V14.01,2013-01-05 01:55:00,
2013-01-04 20:56:00,30.7,22.1,29.96,WNW,292,2.0,6.0,70,0.00,,,0.00,VWS V14.01,2013-01-05 01:56:00,
2013-01-04 20:57:00,30.7,22.1,29.96,WSW,253,2.0,6.0,70,0.00,,,0.00,VWS V14.01,2013-01-05 01:57:00,
2013-01-04 20:58:00,30.7,22.1,29.96,WSW,253,2.0,6.0,70,0.00,,,0.00,VWS V14.01,2013-01-05 01:58:00,
2013-01-04 20:59:00,30.6,22.0,29.96,West,266,6.0,6.0,70,0.00,,,0.00,VWS V14.01,2013-01-05 01:59:00,
2013-01-04 21:00:00,30.6,22.0,29.97,SW,235,3.0,7.0,70,0.00,,,0.00,VWS V14.01,2013-01-05 02:00:00,
2013-01-04 21:01:00,30.6,22.0,29.97,WSW,258,3.0,6.0,70,0.00,,,0.00,VWS V14.01,2013-01-05 02:01:00,
2013-01-04 21:02:00,30.6,22.0,29.97,WSW,248,2.0,6.0,70,0.00,,,0.00,VWS V14.01,2013-01-05 02:02:00,
2013-01-04 21:03:00,30.6,22.0,29.97,West,264,2.0,6.0,70,0.00,,,0.00,VWS V14.01,2013-01-05 02:03:00,
2013-01-04 21:04:00,30.6,22.0,29.97,West,264,3.0,6.0,70,0.00,,,0.00,VWS V14.01,2013-01-05 02:04:00,
2013-01-04 21:05:00,30.6,22.0,29.97,West,259,7.0,10.0,70,0.00,,,0.00,VWS V14.01,2013-01-05 02:05:00,
2013-01-04 21:06:00,30.5,21.9,29.97,WSW,246,4.0,10.0,70,0.00,,,0.00,VWS V14.01,2013-01-05 02:06:00,
2013-01-04 21:07:00,30.5,21.9,29.97,NW,311,4.0,10.0,70,0.00,,,0.00,VWS V14.01,2013-01-05 02:07:00,
2013-01-04 21:08:00,30.5,21.9,29.97,WSW,246,3.0,10.0,70,0.00,,,0.00,VWS V14.01,2013-01-05 02:08:00,
2013-01-04 21:09:00,30.5,21.9,29.97,West,271,5.0,10.0,70,0.00,,,0.00,VWS V14.01,2013-01-05 02:09:00,
2013-01-04 21:10:00,30.5,21.9,29.97,West,259,3.0,10.0,70,0.00,,,0.00,VWS V14.01,2013-01-05 02:10:00,
2013-01-04 21:11:00,30.5,21.9,29.97,SW,236,3.0,5.0,70,0.00,,,0.00,VWS V14.01,2013-01-05 02:11:00,
2013-01-04 21:12:00,30.5,21.9,29.97,West,267,1.0,5.0,70,0.00,,,0.00,VWS V14.01,2013-01-05 02:12:00,
2013-01-04 21:13:00,30.5,21.9,29.97,WSW,249,3.0,10.0,70,0.00,,,0.00,VWS V14.01,2013-01-05 02:13:00,
2013-01-04 21:14:00,30.5,21.9,29.97,West,265,6.0,10.0,70,0.00,,,0.00,VWS V14.01,2013-01-05 02:14:00,
2013-01-04 21:15:00,30.5,21.9,29.97,West,277,4.0,10.0,70,0.00,,,0.00,VWS V14.01,2013-01-05 02:15:00,
2013-01-04 21:16:00,30.5,21.9,29.97,SW,217,2.0,10.0,70,0.00,,,0.00,VWS V14.01,2013-01-05 02:16:00,
2013-01-04 21:17:00,30.5,21.9,29.97,SW,217,1.0,10.0,70,0.00,,,0.00,VWS V14.01,2013-01-05 02:17:00,
2013-01-04 21:18:00,30.5,21.9,29.97,West,263,0.0,10.0,70,0.00,,,0.00,VWS V14.01,2013-01-05 02:18:00,
2013-01-04 21:19:00,30.4,21.8,29.97,West,261,4.0,10.0,70,0.00,,,0.00,VWS V14.01,2013-01-05 02:19:00,
2013-01-04 21:20:00,30.4,21.8,29.97,WSW,255,1.0,10.0,70,0.00,,,0.00,VWS V14.01,2013-01-05 02:20:00,
2013-01-04 21:21:00,30.4,21.8,29.97,SW,236,4.0,4.0,70,0.00,,,0.00,VWS V14.01,2013-01-05 02:21:00,
2013-01-04 21:22:00,30.4,21.8,29.97,NNW,347,4.0,4.0,70,0.00,,,0.00,VWS V14.01,2013-01-05 02:22:00,
2013-01-04 21:23:00,30.4,21.8,29.97,WSW,254,2.0,4.0,70,0.00,,,0.00,VWS V14.01,2013-01-05 02:23:00,
2013-01-04 21:24:00,30.4,21.8,29.97,WNW,300,5.0,6.0,70,0.00,,,0.00,VWS V14.01,2013-01-05 02:24:00,
2013-01-04 21:25:00,30.4,21.8,29.97,West,275,10.0,10.0,70,0.00,,,0.00,VWS V14.01,2013-01-05 02:25:00,
2013-01-04 21:26:00,30.4,21.8,29.97,NW,304,4.0,10.0,70,0.00,,,0.00,VWS V14.01,2013-01-05 02:26:00,
2013-01-04 21:27:00,30.4,21.8,29.97,West,259,3.0,10.0,70,0.00,,,0.00,VWS V14.01,2013-01-05 02:27:00,
2013-01-04 21:28:00,30.4,21.8,29.97,West,259,3.0,10.0,70,0.00,,,0.00,VWS V14.01,2013-01-05 02:28:00,
2013-01-04 21:29:00,30.4,21.8,29.97,SW,217,3.0,10.0,70,0.00,,,0.00,VWS V14.01,2013-01-05 02:29:00,
2013-01-04 21:30:00,30.4,21.8,29.97,NW,319,8.0,10.0,70,0.00,,,0.00,VWS V14.01,2013-01-05 02:30:00,
2013-01-04 21:31:00,30.4,21.8,29.97,WNW,297,2.0,3.0,70,0.00,,,0.00,VWS V14.01,2013-01-05 02:31:00,
2013-01-04 21:32:00,30.4,21.8,29.97,WNW,298,0.0,3.0,70,0.00,,,0.00,VWS V14.01,2013-01-05 02:32:00,
2013-01-04 21:33:00,30.4,21.8,29.97,WNW,298,0.0,3.0,70,0.00,,,0.00,VWS V14.01,2013-01-05 02:33:00,
2013-01-04 21:34:00,30.4,21.8,29.97,West,259,1.0,3.0,70,0.00,,,0.00,VWS V14.01,2013-01-05 02:34:00,
2013-01-04 21:35:00,30.4,21.8,29.97,WSW,254,3.0,3.0,70,0.00,,,0.00,VWS V14.01,2013-01-05 02:35:00,
2013-01-04 21:36:00,30.4,21.8,29.97,WSW,254,2.0,3.0,70,0.00,,,0.00,VWS V14.01,2013-01-05 02:36:00,
2013-01-04 21:37:00,30.4,21.8,29.97,WSW,254,1.0,3.0,70,0.00,,,0.00,VWS V14.01,2013-01-05 02:37:00,
2013-01-04 21:38:00,30.4,21.8,29.97,WNW,288,4.0,4.0,70,0.00,,,0.00,VWS V14.01,2013-01-05 02:38:00,
2013-01-04 21:39:00,30.4,21.8,29.97,WNW,287,2.0,4.0,70,0.00,,,0.00,VWS V14.01,2013-01-05 02:39:00,
2013-01-04 21:40:00,30.3,21.7,29.97,WSW,254,5.0,9.0,70,0.00,,,0.00,VWS V14.01,2013-01-05 02:40:00,
2013-01-04 21:41:00,30.3,21.7,29.97,WNW,299,4.0,8.0,70,0.00,,,0.00,VWS V14.01,2013-01-05 02:41:00,
2013-01-04 21:42:00,30.3,21.7,29.97,WNW,282,0.0,8.0,70,0.00,,,0.00,VWS V14.01,2013-01-05 02:42:00,
2013-01-04 21:43:00,30.3,21.7,29.97,West,275,3.0,8.0,70,0.00,,,0.00,VWS V14.01,2013-01-05 02:43:00,
2013-01-04 21:44:00,30.3,21.7,29.97,NW,308,4.0,8.0,70,0.00,,,0.00,VWS V14.01,2013-01-05 02:44:00,
2013-01-04 21:45:00,30.3,21.7,29.97,WSW,256,1.0,8.0,70,0.00,,,0.00,VWS V14.01,2013-01-05 02:45:00,
2013-01-04 21:46:00,30.3,21.7,29.97,West,263,4.0,8.0,70,0.00,,,0.00,VWS V14.01,2013-01-05 02:46:00,
2013-01-04 21:47:00,30.3,21.7,29.97,West,259,0.0,8.0,70,0.00,,,0.00,VWS V14.01,2013-01-05 02:47:00,
2013-01-04 21:48:00,30.3,21.7,29.97,WNW,292,0.0,8.0,70,0.00,,,0.00,VWS V14.01,2013-01-05 02:48:00,
2013-01-04 21:49:00,30.3,21.7,29.97,WNW,292,0.0,8.0,70,0.00,,,0.00,VWS V14.01,2013-01-05 02:49:00,
2013-01-04 21:50:00,30.3,21.7,29.97,SW,227,5.0,8.0,70,0.00,,,0.00,VWS V14.01,2013-01-05 02:50:00,
2013-01-04 21:51:00,30.3,21.7,29.97,WSW,246,7.0,8.0,70,0.00,,,0.00,VWS V14.01,2013-01-05 02:51:00,
2013-01-04 21:52:00,30.3,21.7,29.97,West,263,5.0,8.0,70,0.00,,,0.00,VWS V14.01,2013-01-05 02:52:00,
2013-01-04 21:53:00,30.2,21.6,29.97,West,269,0.0,8.0,70,0.00,,,0.00,VWS V14.01,2013-01-05 02:53:00,
2013-01-04 21:54:00,30.2,21.6,29.97,WSW,245,5.0,8.0,70,0.00,,,0.00,VWS V14.01,2013-01-05 02:54:00,
2013-01-04 21:55:00,30.2,21.6,29.97,West,265,1.0,8.0,70,0.00,,,0.00,VWS V14.01,2013-01-05 02:55:00,
2013-01-04 21:56:00,30.2,21.6,29.97,West,265,0.0,8.0,70,0.00,,,0.00,VWS V14.01,2013-01-05 02:56:00,
2013-01-04 21:57:00,30.2,21.6,29.97,West,265,0.0,8.0,70,0.00,,,0.00,VWS V14.01,2013-01-05 02:57:00,
2013-01-04 21:58:00,30.2,21.6,29.97,WSW,258,3.0,8.0,70,0.00,,,0.00,VWS V14.01,2013-01-05 02:58:00,
2013-01-04 21:59:00,30.2,21.6,29.97,WNW,294,2.0,8.0,70,0.00,,,0.00,VWS V14.01,2013-01-05 02:59:00,
2013-01-04 22:00:00,30.2,21.6,29.98,WSW,252,3.0,8.0,70,0.00,,,0.00,VWS V14.01,2013-01-05 03:00:00,
2013-01-04 22:01:00,30.2,21.6,29.98,WSW,252,0.0,7.0,70,0.00,,,0.00,VWS V14.01,2013-01-05 03:01:00,
2013-01-04 22:02:00,30.2,21.6,29.98,WSW,250,1.0,7.0,70,0.00,,,0.00,VWS V14.01,2013-01-05 03:02:00,
2013-01-04 22:03:00,30.1,21.5,29.98,WSW,250,11.0,12.0,70,0.00,,,0.00,VWS V14.01,2013-01-05 03:03:00,
2013-01-04 22:04:00,30.1,21.5,29.98,West,276,9.0,12.0,70,0.00,,,0.00,VWS V14.01,2013-01-05 03:04:00,
2013-01-04 22:05:00,30.1,21.5,29.98,West,268,1.0,12.0,70,0.00,,,0.00,VWS V14.01,2013-01-05 03:05:00,
2013-01-04 22:06:00,30.1,21.5,29.98,West,261,3.0,12.0,70,0.00,,,0.00,VWS V14.01,2013-01-05 03:06:00,
2013-01-04 22:07:00,30.1,21.5,29.98,West,261,0.0,12.0,70,0.00,,,0.00,VWS V14.01,2013-01-05 03:07:00,
2013-01-04 22:08:00,30.1,21.5,29.98,West,261,0.0,12.0,70,0.00,,,0.00,VWS V14.01,2013-01-05 03:08:00,
2013-01-04 22:09:00,30.1,21.5,29.98,SW,225,1.0,12.0,70,0.00,,,0.00,VWS V14.01,2013-01-05 03:09:00,
2013-01-04 22:10:00,30.1,21.5,29.98,West,277,8.0,12.0,70,0.00,,,0.00,VWS V14.01,2013-01-05 03:10:00,
2013-01-04 22:11:00,30.1,21.5,29.98,SW,232,5.0,12.0,70,0.00,,,0.00,VWS V14.01,2013-01-05 03:11:00,
2013-01-04 22:12:00,30.1,21.5,29.98,West,264,5.0,12.0,70,0.00,,,0.00,VWS V14.01,2013-01-05 03:12:00,
2013-01-04 22:13:00,30.1,21.5,29.98,West,264,5.0,12.0,70,0.00,,,0.00,VWS V14.01,2013-01-05 03:13:00,
2013-01-04 22:14:00,30.1,21.5,29.98,West,262,1.0,12.0,70,0.00,,,0.00,VWS V14.01,2013-01-05 03:14:00,
2013-01-04 22:15:00,30.1,21.5,29.98,WSW,246,4.0,12.0,70,0.00,,,0.00,VWS V14.01,2013-01-05 03:15:00,
2013-01-04 22:16:00,30.1,21.5,29.98,WSW,242,6.0,12.0,70,0.00,,,0.00,VWS V14.01,2013-01-05 03:16:00,
2013-01-04 22:17:00,30.1,21.5,29.98,SSW,213,3.0,12.0,70,0.00,,,0.00,VWS V14.01,2013-01-05 03:17:00,
2013-01-04 22:18:00,30.1,21.2,29.98,West,259,6.0,12.0,69,0.00,,,0.00,VWS V14.01,2013-01-05 03:18:00,
2013-01-04 22:19:00,30.1,21.2,29.98,WSW,243,4.0,12.0,69,0.00,,,0.00,VWS V14.01,2013-01-05 03:19:00,
2013-01-04 22:20:00,30.1,21.2,29.98,SSW,198,7.0,12.0,69,0.00,,,0.00,VWS V14.01,2013-01-05 03:20:00,
2013-01-04 22:21:00,30.1,21.2,29.98,SW,232,6.0,7.0,69,0.00,,,0.00,VWS V14.01,2013-01-05 03:21:00,
2013-01-04 22:22:00,30.1,21.2,29.98,WSW,255,5.0,7.0,69,0.00,,,0.00,VWS V14.01,2013-01-05 03:22:00,
2013-01-04 22:23:00,30.2,21.3,29.98,WSW,245,3.0,7.0,69,0.00,,,0.00,VWS V14.01,2013-01-05 03:23:00,
2013-01-04 22:24:00,30.2,21.3,29.98,WSW,245,1.0,7.0,69,0.00,,,0.00,VWS V14.01,2013-01-05 03:24:00,
2013-01-04 22:25:00,30.2,21.3,29.98,SSW,200,2.0,7.0,69,0.00,,,0.00,VWS V14.01,2013-01-05 03:25:00,
2013-01-04 22:26:00,30.2,21.3,29.98,SW,234,3.0,7.0,69,0.00,,,0.00,VWS V14.01,2013-01-05 03:26:00,
2013-01-04 22:27:00,30.2,21.3,29.98,WSW,239,4.0,7.0,69,0.00,,,0.00,VWS V14.01,2013-01-05 03:27:00,
2013-01-04 22:28:00,30.2,21.3,29.98,SW,232,1.0,7.0,69,0.00,,,0.00,VWS V14.01,2013-01-05 03:28:00,
2013-01-04 22:29:00,30.2,21.3,29.98,WSW,244,6.0,7.0,69,0.00,,,0.00,VWS V14.01,2013-01-05 03:29:00,
2013-01-04 22:30:00,30.3,21.0,29.99,NW,309,3.0,7.0,68,0.00,,,0.00,VWS V14.01,2013-01-05 03:30:00,
2013-01-04 22:31:00,30.3,21.0,29.99,WSW,239,2.0,5.0,68,0.00,,,0.00,VWS V14.01,2013-01-05 03:31:00,
2013-01-04 22:32:00,30.2,20.9,29.99,West,261,5.0,5.0,68,0.00,,,0.00,VWS V14.01,2013-01-05 03:32:00,
2013-01-04 22:33:00,30.3,21.0,29.99,West,269,5.0,7.0,68,0.00,,,0.00,VWS V14.01,2013-01-05 03:33:00,
2013-01-04 22:34:00,30.4,21.1,29.99,WSW,248,8.0,10.0,68,0.00,,,0.00,VWS V14.01,2013-01-05 03:34:00,
2013-01-04 22:35:00,30.4,21.1,29.99,West,261,10.0,10.0,68,0.00,,,0.00,VWS V14.01,2013-01-05 03:35:00,
2013-01-04 22:36:00,30.5,21.2,29.99,SW,224,2.0,10.0,68,0.00,,,0.00,VWS V14.01,2013-01-05 03:36:00,
2013-01-04 22:37:00,30.5,20.9,29.99,WSW,252,5.0,10.0,67,0.00,,,0.00,VWS V14.01,2013-01-05 03:37:00,
2013-01-04 22:38:00,30.5,20.9,29.99,West,267,3.0,10.0,67,0.00,,,0.00,VWS V14.01,2013-01-05 03:38:00,
2013-01-04 22:39:00,30.6,21.0,29.99,WSW,255,3.0,10.0,67,0.00,,,0.00,VWS V14.01,2013-01-05 03:39:00,
2013-01-04 22:40:00,30.6,21.0,29.99,West,273,8.0,10.0,67,0.00,,,0.00,VWS V14.01,2013-01-05 03:40:00,
2013-01-04 22:41:00,30.7,21.1,29.99,WSW,240,1.0,3.0,67,0.00,,,0.00,VWS V14.01,2013-01-05 03:41:00,
2013-01-04 22:42:00,30.7,21.1,29.99,South,188,3.0,4.0,67,0.00,,,0.00,VWS V14.01,2013-01-05 03:42:00,
2013-01-04 22:43:00,30.7,21.1,29.99,West,261,4.0,7.0,67,0.00,,,0.00,VWS V14.01,2013-01-05 03:43:00,
2013-01-04 22:44:00,30.7,21.1,29.99,West,267,7.0,7.0,67,0.00,,,0.00,VWS V14.01,2013-01-05 03:44:00,
2013-01-04 22:45:00,30.8,20.8,29.99,West,259,4.0,9.0,66,0.00,,,0.00,VWS V14.01,2013-01-05 03:45:00,
2013-01-04 22:46:00,30.8,20.8,29.99,WNW,282,4.0,9.0,66,0.00,,,0.00,VWS V14.01,2013-01-05 03:46:00,
2013-01-04 22:47:00,30.8,20.8,29.99,WSW,257,6.0,9.0,66,0.00,,,0.00,VWS V14.01,2013-01-05 03:47:00,
2013-01-04 22:48:00,30.8,20.8,29.99,WSW,257,6.0,9.0,66,0.00,,,0.00,VWS V14.01,2013-01-05 03:48:00,
2013-01-04 22:49:00,30.8,20.8,29.99,WSW,241,3.0,9.0,66,0.00,,,0.00,VWS V14.01,2013-01-05 03:49:00,
2013-01-04 22:50:00,30.9,20.9,29.99,WSW,247,4.0,9.0,66,0.00,,,0.00,VWS V14.01,2013-01-05 03:50:00,
2013-01-04 22:51:00,30.9,20.9,29.99,WNW,297,0.0,7.0,66,0.00,,,0.00,VWS V14.01,2013-01-05 03:51:00,
2013-01-04 22:52:00,30.9,20.9,29.99,WNW,297,0.0,7.0,66,0.00,,,0.00,VWS V14.01,2013-01-05 03:52:00,
2013-01-04 22:53:00,30.9,20.9,29.99,WNW,294,5.0,7.0,66,0.00,,,0.00,VWS V14.01,2013-01-05 03:53:00,
2013-01-04 22:54:00,30.9,20.9,29.99,WSW,240,6.0,7.0,66,0.00,,,0.00,VWS V14.01,2013-01-05 03:54:00,
2013-01-04 22:55:00,30.9,20.9,29.99,WSW,253,7.0,11.0,66,0.00,,,0.00,VWS V14.01,2013-01-05 03:55:00,
2013-01-04 22:56:00,30.9,20.9,29.99,SW,219,4.0,11.0,66,0.00,,,0.00,VWS V14.01,2013-01-05 03:56:00,
2013-01-04 22:57:00,30.9,20.9,29.99,SW,222,4.0,11.0,66,0.00,,,0.00,VWS V14.01,2013-01-05 03:57:00,
2013-01-04 22:58:00,30.9,20.9,29.99,West,271,2.0,11.0,66,0.00,,,0.00,VWS V14.01,2013-01-05 03:58:00,
2013-01-04 22:59:00,30.9,20.9,29.99,NW,311,7.0,11.0,66,0.00,,,0.00,VWS V14.01,2013-01-05 03:59:00,
2013-01-04 23:00:00,30.9,20.9,30.00,West,271,5.0,15.0,66,0.00,,,0.00,VWS V14.01,2013-01-05 04:00:00,
2013-01-04 23:01:00,31.0,20.6,30.00,NNE,23,1.0,5.0,65,0.00,,,0.00,VWS V14.01,2013-01-05 04:01:00,
2013-01-04 23:02:00,31.0,20.6,30.00,NNE,23,0.0,5.0,65,0.00,,,0.00,VWS V14.01,2013-01-05 04:02:00,
2013-01-04 23:03:00,31.0,20.6,30.00,NNW,328,2.0,5.0,65,0.00,,,0.00,VWS V14.01,2013-01-05 04:03:00,
2013-01-04 23:04:00,31.0,20.6,30.00,NNW,328,2.0,5.0,65,0.00,,,0.00,VWS V14.01,2013-01-05 04:04:00,
2013-01-04 23:05:00,31.0,20.6,30.00,WNW,284,7.0,7.0,65,0.00,,,0.00,VWS V14.01,2013-01-05 04:05:00,
2013-01-04 23:06:00,31.0,20.6,30.00,West,275,6.0,7.0,65,0.00,,,0.00,VWS V14.01,2013-01-05 04:06:00,
2013-01-04 23:07:00,31.0,20.6,30.00,West,260,6.0,9.0,65,0.00,,,0.00,VWS V14.01,2013-01-05 04:07:00,
2013-01-04 23:08:00,31.0,20.6,30.00,SSW,194,2.0,9.0,65,0.00,,,0.00,VWS V14.01,2013-01-05 04:08:00,
2013-01-04 23:09:00,31.0,20.6,30.00,WSW,240,6.0,9.0,65,0.00,,,0.00,VWS V14.01,2013-01-05 04:09:00,
2013-01-04 23:10:00,31.0,20.6,30.00,SW,221,4.0,12.0,65,0.00,,,0.00,VWS V14.01,2013-01-05 04:10:00,
2013-01-04 23:11:00,31.0,20.6,30.00,WSW,242,4.0,6.0,65,0.00,,,0.00,VWS V14.01,2013-01-05 04:11:00,
2013-01-04 23:12:00,31.0,20.6,30.00,SSW,207,6.0,6.0,65,0.00,,,0.00,VWS V14.01,2013-01-05 04:12:00,
2013-01-04 23:13:00,31.0,20.6,30.00,SW,225,4.0,6.0,65,0.00,,,0.00,VWS V14.01,2013-01-05 04:13:00,
2013-01-04 23:14:00,31.0,20.6,30.00,WNW,303,5.0,6.0,65,0.00,,,0.00,VWS V14.01,2013-01-05 04:14:00,
2013-01-04 23:15:00,31.0,20.6,30.00,SW,229,1.0,6.0,65,0.00,,,0.00,VWS V14.01,2013-01-05 04:15:00,
2013-01-04 23:16:00,31.0,20.6,30.00,NW,323,6.0,13.0,65,0.00,,,0.00,VWS V14.01,2013-01-05 04:16:00,
2013-01-04 23:17:00,31.0,20.6,30.00,NNW,332,3.0,13.0,65,0.00,,,0.00,VWS V14.01,2013-01-05 04:17:00,
2013-01-04 23:18:00,31.0,20.6,30.00,WNW,289,4.0,13.0,65,0.00,,,0.00,VWS V14.01,2013-01-05 04:18:00,
2013-01-04 23:19:00,31.0,20.6,30.00,SW,221,5.0,13.0,65,0.00,,,0.00,VWS V14.01,2013-01-05 04:19:00,
2013-01-04 23:20:00,30.9,20.5,30.00,WSW,257,8.0,13.0,65,0.00,,,0.00,VWS V14.01,2013-01-05 04:20:00,
2013-01-04 23:21:00,30.9,20.5,30.00,WSW,248,6.0,12.0,65,0.00,,,0.00,VWS V14.01,2013-01-05 04:21:00,
2013-01-04 23:22:00,31.0,20.6,30.00,West,260,9.0,12.0,65,0.00,,,0.00,VWS V14.01,2013-01-05 04:22:00,
2013-01-04 23:23:00,31.0,20.6,30.00,West,260,9.0,12.0,65,0.00,,,0.00,VWS V14.01,2013-01-05 04:23:00,
2013-01-04 23:24:00,31.0,20.6,30.00,WSW,256,0.0,12.0,65,0.00,,,0.00,VWS V14.01,2013-01-05 04:24:00,
2013-01-04 23:25:00,31.0,20.6,30.00,SSW,201,2.0,12.0,65,0.00,,,0.00,VWS V14.01,2013-01-05 04:25:00,
2013-01-04 23:26:00,31.0,20.6,30.00,WSW,255,2.0,12.0,65,0.00,,,0.00,VWS V14.01,2013-01-05 04:26:00,
2013-01-04 23:27:00,31.0,20.6,30.00,WSW,255,2.0,12.0,65,0.00,,,0.00,VWS V14.01,2013-01-05 04:27:00,
2013-01-04 23:28:00,31.0,20.6,30.00,WSW,255,2.0,12.0,65,0.00,,,0.00,VWS V14.01,2013-01-05 04:28:00,
2013-01-04 23:29:00,30.9,20.5,30.00,NW,317,2.0,12.0,65,0.00,,,0.00,VWS V14.01,2013-01-05 04:29:00,
2013-01-04 23:30:00,30.9,20.5,30.00,SW,224,6.0,12.0,65,0.00,,,0.00,VWS V14.01,2013-01-05 04:30:00,
2013-01-04 23:31:00,30.8,20.4,30.00,West,264,0.0,8.0,65,0.00,,,0.00,VWS V14.01,2013-01-05 04:31:00,
2013-01-04 23:32:00,30.8,20.4,30.00,WSW,248,8.0,8.0,65,0.00,,,0.00,VWS V14.01,2013-01-05 04:32:00,
2013-01-04 23:33:00,30.8,20.4,30.00,West,273,1.0,8.0,65,0.00,,,0.00,VWS V14.01,2013-01-05 04:33:00,
2013-01-04 23:34:00,30.8,20.4,30.00,SW,233,9.0,9.0,65,0.00,,,0.00,VWS V14.01,2013-01-05 04:34:00,
2013-01-04 23:35:00,30.8,20.4,30.00,West,259,5.0,9.0,65,0.00,,,0.00,VWS V14.01,2013-01-05 04:35:00,
2013-01-04 23:36:00,30.8,20.4,30.00,SW,224,5.0,9.0,65,0.00,,,0.00,VWS V14.01,2013-01-05 04:36:00,
2013-01-04 23:37:00,30.8,20.4,30.00,SW,224,5.0,9.0,65,0.00,,,0.00,VWS V14.01,2013-01-05 04:37:00,
2013-01-04 23:38:00,30.7,20.3,30.00,NW,312,8.0,9.0,65,0.00,,,0.00,VWS V14.01,2013-01-05 04:38:00,
2013-01-04 23:39:00,30.8,20.4,30.00,West,280,2.0,9.0,65,0.00,,,0.00,VWS V14.01,2013-01-05 04:39:00,
2013-01-04 23:40:00,30.7,20.3,30.00,SW,236,4.0,13.0,65,0.00,,,0.00,VWS V14.01,2013-01-05 04:40:00,
2013-01-04 23:41:00,30.8,20.4,30.00,South,190,3.0,5.0,65,0.00,,,0.00,VWS V14.01,2013-01-05 04:41:00,
2013-01-04 23:42:00,30.7,20.3,30.00,NW,311,7.0,7.0,65,0.00,,,0.00,VWS V14.01,2013-01-05 04:42:00,
2013-01-04 23:43:00,30.7,20.3,30.00,South,188,5.0,7.0,65,0.00,,,0.00,VWS V14.01,2013-01-05 04:43:00,
2013-01-04 23:44:00,30.7,20.3,30.00,WSW,244,12.0,13.0,65,0.00,,,0.00,VWS V14.01,2013-01-05 04:44:00,
2013-01-04 23:45:00,30.7,20.3,30.01,WNW,285,4.0,13.0,65,0.00,,,0.00,VWS V14.01,2013-01-05 04:45:00,
2013-01-04 23:46:00,30.7,20.3,30.01,NW,311,7.0,13.0,65,0.00,,,0.00,VWS V14.01,2013-01-05 04:46:00,
2013-01-04 23:47:00,30.7,20.3,30.01,West,261,9.0,13.0,65,0.00,,,0.00,VWS V14.01,2013-01-05 04:47:00,
2013-01-04 23:48:00,30.7,20.3,30.01,NNW,335,2.0,13.0,65,0.00,,,0.00,VWS V14.01,2013-01-05 04:48:00,
2013-01-04 23:49:00,30.7,20.7,30.01,WSW,254,4.0,14.0,66,0.00,,,0.00,VWS V14.01,2013-01-05 04:49:00,
2013-01-04 23:50:00,30.7,20.7,30.01,WSW,238,7.0,14.0,66,0.00,,,0.00,VWS V14.01,2013-01-05 04:50:00,
2013-01-04 23:51:00,30.7,20.3,30.01,SW,234,4.0,4.0,65,0.00,,,0.00,VWS V14.01,2013-01-05 04:51:00,
2013-01-04 23:52:00,30.6,20.2,30.01,NNW,348,4.0,4.0,65,0.00,,,0.00,VWS V14.01,2013-01-05 04:52:00,
2013-01-04 23:53:00,30.6,20.2,30.01,WNW,290,6.0,6.0,65,0.00,,,0.00,VWS V14.01,2013-01-05 04:53:00,
2013-01-04 23:54:00,30.6,20.2,30.01,WSW,241,10.0,10.0,65,0.00,,,0.00,VWS V14.01,2013-01-05 04:54:00,
2013-01-04 23:55:00,30.6,20.2,30.01,West,267,4.0,10.0,65,0.00,,,0.00,VWS V14.01,2013-01-05 04:55:00,
2013-01-04 23:56:00,30.6,20.2,30.01,WSW,239,7.0,11.0,65,0.00,,,0.00,VWS V14.01,2013-01-05 04:56:00,
2013-01-04 23:57:00,30.6,20.2,30.01,WSW,252,3.0,11.0,65,0.00,,,0.00,VWS V14.01,2013-01-05 04:57:00,
2013-01-04 23:58:00,30.5,20.1,30.01,SW,216,4.0,11.0,65,0.00,,,0.00,VWS V14.01,2013-01-05 04:58:00,
2013-01-04 23:59:00,30.6,20.2,30.01,NW,319,9.0,11.0,65,0.00,,,0.00,VWS V14.01,2013-01-05 04:59:00,